<?xml version="1.0" encoding="UTF-8" standalone="no" ?>
<gpx xmlns="http://www.topografix.com/GPX/1/1" xmlns:xsi="http://www.w3.org/2001/XMLSchema-instance" xsi:schemaLocation="http://www.topografix.com/GPX/1/1 http://www.topografix.com/GPX/1/1/gpx.xsd" version="1.1" creator="VisuGPX - https://www.visugpx.com">
  <metadata>
    <name>Les Balcons du Glandasse</name>
    <desc><![CDATA[Les Balcons du Glandasse]]></desc>
  </metadata>
  <trk>
    <name><![CDATA[10-OCT-15 15:14:52]]></name>
    <trkseg>
      <trkpt lat="44.74207" lon="5.42491">
        <ele>602.4</ele>
        <time>2015-10-10T09:21:02Z</time>
      </trkpt>
      <trkpt lat="44.74206" lon="5.42489">
        <ele>604.81</ele>
        <time>2015-10-10T09:21:04Z</time>
      </trkpt>
      <trkpt lat="44.74207" lon="5.42488">
        <ele>609.13</ele>
        <time>2015-10-10T09:21:07Z</time>
      </trkpt>
      <trkpt lat="44.74207" lon="5.42487">
        <ele>604.81</ele>
        <time>2015-10-10T09:21:08Z</time>
      </trkpt>
      <trkpt lat="44.74207" lon="5.42484">
        <ele>605.29</ele>
        <time>2015-10-10T09:21:12Z</time>
      </trkpt>
      <trkpt lat="44.7421" lon="5.42476">
        <ele>605.29</ele>
        <time>2015-10-10T09:21:18Z</time>
      </trkpt>
      <trkpt lat="44.74209" lon="5.42473">
        <ele>606.25</ele>
        <time>2015-10-10T09:21:20Z</time>
      </trkpt>
      <trkpt lat="44.74209" lon="5.42472">
        <ele>611.06</ele>
        <time>2015-10-10T09:21:22Z</time>
      </trkpt>
      <trkpt lat="44.7421" lon="5.42471">
        <ele>606.73</ele>
        <time>2015-10-10T09:21:23Z</time>
      </trkpt>
      <trkpt lat="44.74211" lon="5.42468">
        <ele>606.25</ele>
        <time>2015-10-10T09:21:25Z</time>
      </trkpt>
      <trkpt lat="44.74215" lon="5.42466">
        <ele>609.13</ele>
        <time>2015-10-10T09:21:29Z</time>
      </trkpt>
      <trkpt lat="44.74223" lon="5.42466">
        <ele>604.81</ele>
        <time>2015-10-10T09:21:34Z</time>
      </trkpt>
      <trkpt lat="44.74225" lon="5.42467">
        <ele>616.82</ele>
        <time>2015-10-10T09:21:36Z</time>
      </trkpt>
      <trkpt lat="44.74226" lon="5.42468">
        <ele>607.69</ele>
        <time>2015-10-10T09:21:37Z</time>
      </trkpt>
      <trkpt lat="44.74242" lon="5.42472">
        <ele>612.98</ele>
        <time>2015-10-10T09:21:49Z</time>
      </trkpt>
      <trkpt lat="44.74242" lon="5.42472">
        <ele>606.73</ele>
        <time>2015-10-10T09:21:50Z</time>
      </trkpt>
      <trkpt lat="44.74245" lon="5.42473">
        <ele>610.09</ele>
        <time>2015-10-10T09:21:53Z</time>
      </trkpt>
      <trkpt lat="44.74247" lon="5.42472">
        <ele>610.09</ele>
        <time>2015-10-10T09:21:55Z</time>
      </trkpt>
      <trkpt lat="44.74249" lon="5.42472">
        <ele>610.09</ele>
        <time>2015-10-10T09:21:56Z</time>
      </trkpt>
      <trkpt lat="44.74251" lon="5.42472">
        <ele>609.61</ele>
        <time>2015-10-10T09:21:58Z</time>
      </trkpt>
      <trkpt lat="44.74253" lon="5.42472">
        <ele>610.09</ele>
        <time>2015-10-10T09:21:59Z</time>
      </trkpt>
      <trkpt lat="44.74257" lon="5.42472">
        <ele>610.57</ele>
        <time>2015-10-10T09:22:02Z</time>
      </trkpt>
      <trkpt lat="44.74259" lon="5.42472">
        <ele>610.09</ele>
        <time>2015-10-10T09:22:03Z</time>
      </trkpt>
      <trkpt lat="44.7426" lon="5.42471">
        <ele>610.57</ele>
        <time>2015-10-10T09:22:04Z</time>
      </trkpt>
      <trkpt lat="44.74265" lon="5.42472">
        <ele>611.06</ele>
        <time>2015-10-10T09:22:08Z</time>
      </trkpt>
      <trkpt lat="44.74266" lon="5.42472">
        <ele>611.06</ele>
        <time>2015-10-10T09:22:09Z</time>
      </trkpt>
      <trkpt lat="44.74268" lon="5.42472">
        <ele>611.06</ele>
        <time>2015-10-10T09:22:10Z</time>
      </trkpt>
      <trkpt lat="44.74269" lon="5.42473">
        <ele>611.06</ele>
        <time>2015-10-10T09:22:11Z</time>
      </trkpt>
      <trkpt lat="44.7427" lon="5.42473">
        <ele>611.54</ele>
        <time>2015-10-10T09:22:12Z</time>
      </trkpt>
      <trkpt lat="44.74281" lon="5.42478">
        <ele>612.5</ele>
        <time>2015-10-10T09:22:23Z</time>
      </trkpt>
      <trkpt lat="44.74293" lon="5.42487">
        <ele>615.38</ele>
        <time>2015-10-10T09:22:33Z</time>
      </trkpt>
      <trkpt lat="44.74295" lon="5.42488">
        <ele>615.86</ele>
        <time>2015-10-10T09:22:34Z</time>
      </trkpt>
      <trkpt lat="44.74309" lon="5.42501">
        <ele>617.3</ele>
        <time>2015-10-10T09:22:46Z</time>
      </trkpt>
      <trkpt lat="44.74324" lon="5.42513">
        <ele>619.71</ele>
        <time>2015-10-10T09:22:58Z</time>
      </trkpt>
      <trkpt lat="44.7433" lon="5.42519">
        <ele>620.67</ele>
        <time>2015-10-10T09:23:03Z</time>
      </trkpt>
      <trkpt lat="44.74331" lon="5.4252">
        <ele>621.15</ele>
        <time>2015-10-10T09:23:04Z</time>
      </trkpt>
      <trkpt lat="44.74342" lon="5.4253">
        <ele>623.07</ele>
        <time>2015-10-10T09:23:14Z</time>
      </trkpt>
      <trkpt lat="44.74352" lon="5.42538">
        <ele>624.51</ele>
        <time>2015-10-10T09:23:23Z</time>
      </trkpt>
      <trkpt lat="44.74364" lon="5.42547">
        <ele>625.96</ele>
        <time>2015-10-10T09:23:33Z</time>
      </trkpt>
      <trkpt lat="44.74366" lon="5.42547">
        <ele>626.44</ele>
        <time>2015-10-10T09:23:35Z</time>
      </trkpt>
      <trkpt lat="44.74372" lon="5.42549">
        <ele>627.88</ele>
        <time>2015-10-10T09:23:44Z</time>
      </trkpt>
      <trkpt lat="44.74374" lon="5.4255">
        <ele>628.84</ele>
        <time>2015-10-10T09:23:46Z</time>
      </trkpt>
      <trkpt lat="44.74381" lon="5.42555">
        <ele>629.32</ele>
        <time>2015-10-10T09:23:53Z</time>
      </trkpt>
      <trkpt lat="44.74387" lon="5.42559">
        <ele>630.28</ele>
        <time>2015-10-10T09:23:58Z</time>
      </trkpt>
      <trkpt lat="44.74391" lon="5.42562">
        <ele>631.24</ele>
        <time>2015-10-10T09:24:01Z</time>
      </trkpt>
      <trkpt lat="44.74406" lon="5.42567">
        <ele>633.17</ele>
        <time>2015-10-10T09:24:12Z</time>
      </trkpt>
      <trkpt lat="44.74413" lon="5.4257">
        <ele>633.17</ele>
        <time>2015-10-10T09:24:20Z</time>
      </trkpt>
      <trkpt lat="44.74429" lon="5.42574">
        <ele>635.57</ele>
        <time>2015-10-10T09:24:31Z</time>
      </trkpt>
      <trkpt lat="44.74435" lon="5.42576">
        <ele>637.49</ele>
        <time>2015-10-10T09:24:36Z</time>
      </trkpt>
      <trkpt lat="44.74454" lon="5.42577">
        <ele>639.41</ele>
        <time>2015-10-10T09:24:48Z</time>
      </trkpt>
      <trkpt lat="44.74467" lon="5.42581">
        <ele>640.86</ele>
        <time>2015-10-10T09:24:58Z</time>
      </trkpt>
      <trkpt lat="44.74467" lon="5.42581">
        <ele>640.86</ele>
        <time>2015-10-10T09:24:59Z</time>
      </trkpt>
      <trkpt lat="44.74471" lon="5.4258">
        <ele>640.86</ele>
        <time>2015-10-10T09:25:02Z</time>
      </trkpt>
      <trkpt lat="44.74481" lon="5.42577">
        <ele>642.3</ele>
        <time>2015-10-10T09:25:08Z</time>
      </trkpt>
      <trkpt lat="44.74496" lon="5.42573">
        <ele>644.22</ele>
        <time>2015-10-10T09:25:20Z</time>
      </trkpt>
      <trkpt lat="44.74499" lon="5.42574">
        <ele>645.18</ele>
        <time>2015-10-10T09:25:24Z</time>
      </trkpt>
      <trkpt lat="44.74509" lon="5.42574">
        <ele>646.14</ele>
        <time>2015-10-10T09:25:31Z</time>
      </trkpt>
      <trkpt lat="44.7452" lon="5.42576">
        <ele>648.07</ele>
        <time>2015-10-10T09:25:41Z</time>
      </trkpt>
      <trkpt lat="44.74531" lon="5.42576">
        <ele>649.03</ele>
        <time>2015-10-10T09:25:49Z</time>
      </trkpt>
      <trkpt lat="44.74536" lon="5.42578">
        <ele>649.51</ele>
        <time>2015-10-10T09:25:53Z</time>
      </trkpt>
      <trkpt lat="44.74542" lon="5.4258">
        <ele>650.95</ele>
        <time>2015-10-10T09:26:00Z</time>
      </trkpt>
      <trkpt lat="44.74547" lon="5.42581">
        <ele>651.43</ele>
        <time>2015-10-10T09:26:03Z</time>
      </trkpt>
      <trkpt lat="44.7456" lon="5.42587">
        <ele>653.35</ele>
        <time>2015-10-10T09:26:13Z</time>
      </trkpt>
      <trkpt lat="44.74567" lon="5.42591">
        <ele>654.8</ele>
        <time>2015-10-10T09:26:19Z</time>
      </trkpt>
      <trkpt lat="44.74572" lon="5.42594">
        <ele>655.76</ele>
        <time>2015-10-10T09:26:25Z</time>
      </trkpt>
      <trkpt lat="44.74579" lon="5.42595">
        <ele>656.72</ele>
        <time>2015-10-10T09:26:29Z</time>
      </trkpt>
      <trkpt lat="44.74598" lon="5.42595">
        <ele>659.12</ele>
        <time>2015-10-10T09:26:42Z</time>
      </trkpt>
      <trkpt lat="44.746" lon="5.42593">
        <ele>659.6</ele>
        <time>2015-10-10T09:26:44Z</time>
      </trkpt>
      <trkpt lat="44.74611" lon="5.42595">
        <ele>660.56</ele>
        <time>2015-10-10T09:26:55Z</time>
      </trkpt>
      <trkpt lat="44.74621" lon="5.42595">
        <ele>661.04</ele>
        <time>2015-10-10T09:27:04Z</time>
      </trkpt>
      <trkpt lat="44.74625" lon="5.42593">
        <ele>662.49</ele>
        <time>2015-10-10T09:27:07Z</time>
      </trkpt>
      <trkpt lat="44.74643" lon="5.42589">
        <ele>664.89</ele>
        <time>2015-10-10T09:27:19Z</time>
      </trkpt>
      <trkpt lat="44.74646" lon="5.4259">
        <ele>660.56</ele>
        <time>2015-10-10T09:27:28Z</time>
      </trkpt>
      <trkpt lat="44.74646" lon="5.4259">
        <ele>665.85</ele>
        <time>2015-10-10T09:27:29Z</time>
      </trkpt>
      <trkpt lat="44.74646" lon="5.4259">
        <ele>660.56</ele>
        <time>2015-10-10T09:27:32Z</time>
      </trkpt>
      <trkpt lat="44.74646" lon="5.4259">
        <ele>664.41</ele>
        <time>2015-10-10T09:27:33Z</time>
      </trkpt>
      <trkpt lat="44.74646" lon="5.4259">
        <ele>624.51</ele>
        <time>2015-10-10T09:27:35Z</time>
      </trkpt>
      <trkpt lat="44.74646" lon="5.4259">
        <ele>671.14</ele>
        <time>2015-10-10T09:27:36Z</time>
      </trkpt>
      <trkpt lat="44.74646" lon="5.4259">
        <ele>665.37</ele>
        <time>2015-10-10T09:27:37Z</time>
      </trkpt>
      <trkpt lat="44.74646" lon="5.4259">
        <ele>664.41</ele>
        <time>2015-10-10T09:27:44Z</time>
      </trkpt>
      <trkpt lat="44.74649" lon="5.42589">
        <ele>665.37</ele>
        <time>2015-10-10T09:27:55Z</time>
      </trkpt>
      <trkpt lat="44.74653" lon="5.42588">
        <ele>665.37</ele>
        <time>2015-10-10T09:27:58Z</time>
      </trkpt>
      <trkpt lat="44.74668" lon="5.42586">
        <ele>667.77</ele>
        <time>2015-10-10T09:28:09Z</time>
      </trkpt>
      <trkpt lat="44.74676" lon="5.42586">
        <ele>668.25</ele>
        <time>2015-10-10T09:28:15Z</time>
      </trkpt>
      <trkpt lat="44.74686" lon="5.42587">
        <ele>669.7</ele>
        <time>2015-10-10T09:28:23Z</time>
      </trkpt>
      <trkpt lat="44.74689" lon="5.4259">
        <ele>669.7</ele>
        <time>2015-10-10T09:28:26Z</time>
      </trkpt>
      <trkpt lat="44.74694" lon="5.4259">
        <ele>671.14</ele>
        <time>2015-10-10T09:28:38Z</time>
      </trkpt>
      <trkpt lat="44.74695" lon="5.42591">
        <ele>671.14</ele>
        <time>2015-10-10T09:28:56Z</time>
      </trkpt>
      <trkpt lat="44.74695" lon="5.4259">
        <ele>671.14</ele>
        <time>2015-10-10T09:29:09Z</time>
      </trkpt>
      <trkpt lat="44.74697" lon="5.4259">
        <ele>670.66</ele>
        <time>2015-10-10T09:29:24Z</time>
      </trkpt>
      <trkpt lat="44.74697" lon="5.42589">
        <ele>670.66</ele>
        <time>2015-10-10T09:29:32Z</time>
      </trkpt>
      <trkpt lat="44.74699" lon="5.4259">
        <ele>671.14</ele>
        <time>2015-10-10T09:29:44Z</time>
      </trkpt>
      <trkpt lat="44.74699" lon="5.4259">
        <ele>671.62</ele>
        <time>2015-10-10T09:29:54Z</time>
      </trkpt>
      <trkpt lat="44.747" lon="5.4259">
        <ele>671.62</ele>
        <time>2015-10-10T09:30:01Z</time>
      </trkpt>
      <trkpt lat="44.74703" lon="5.42591">
        <ele>671.62</ele>
        <time>2015-10-10T09:30:03Z</time>
      </trkpt>
      <trkpt lat="44.74718" lon="5.42591">
        <ele>673.54</ele>
        <time>2015-10-10T09:30:13Z</time>
      </trkpt>
      <trkpt lat="44.74731" lon="5.42593">
        <ele>674.98</ele>
        <time>2015-10-10T09:30:22Z</time>
      </trkpt>
      <trkpt lat="44.7474" lon="5.42593">
        <ele>676.91</ele>
        <time>2015-10-10T09:30:29Z</time>
      </trkpt>
      <trkpt lat="44.74745" lon="5.42591">
        <ele>677.39</ele>
        <time>2015-10-10T09:30:32Z</time>
      </trkpt>
      <trkpt lat="44.74759" lon="5.42587">
        <ele>679.79</ele>
        <time>2015-10-10T09:30:44Z</time>
      </trkpt>
      <trkpt lat="44.74777" lon="5.42579">
        <ele>681.71</ele>
        <time>2015-10-10T09:30:58Z</time>
      </trkpt>
      <trkpt lat="44.74788" lon="5.42571">
        <ele>683.15</ele>
        <time>2015-10-10T09:31:08Z</time>
      </trkpt>
      <trkpt lat="44.74793" lon="5.42575">
        <ele>683.63</ele>
        <time>2015-10-10T09:31:13Z</time>
      </trkpt>
      <trkpt lat="44.74797" lon="5.42575">
        <ele>684.12</ele>
        <time>2015-10-10T09:31:16Z</time>
      </trkpt>
      <trkpt lat="44.74803" lon="5.42571">
        <ele>685.08</ele>
        <time>2015-10-10T09:31:21Z</time>
      </trkpt>
      <trkpt lat="44.74806" lon="5.42562">
        <ele>685.56</ele>
        <time>2015-10-10T09:31:28Z</time>
      </trkpt>
      <trkpt lat="44.74807" lon="5.42558">
        <ele>686.04</ele>
        <time>2015-10-10T09:31:31Z</time>
      </trkpt>
      <trkpt lat="44.74816" lon="5.42551">
        <ele>687</ele>
        <time>2015-10-10T09:31:37Z</time>
      </trkpt>
      <trkpt lat="44.74821" lon="5.42546">
        <ele>687.48</ele>
        <time>2015-10-10T09:31:41Z</time>
      </trkpt>
      <trkpt lat="44.74827" lon="5.42543">
        <ele>687.96</ele>
        <time>2015-10-10T09:31:45Z</time>
      </trkpt>
      <trkpt lat="44.74843" lon="5.42534">
        <ele>689.4</ele>
        <time>2015-10-10T09:31:57Z</time>
      </trkpt>
      <trkpt lat="44.74856" lon="5.42528">
        <ele>691.33</ele>
        <time>2015-10-10T09:32:07Z</time>
      </trkpt>
      <trkpt lat="44.74858" lon="5.42528">
        <ele>691.81</ele>
        <time>2015-10-10T09:32:08Z</time>
      </trkpt>
      <trkpt lat="44.74865" lon="5.42526">
        <ele>691.81</ele>
        <time>2015-10-10T09:32:13Z</time>
      </trkpt>
      <trkpt lat="44.74881" lon="5.42518">
        <ele>693.73</ele>
        <time>2015-10-10T09:32:25Z</time>
      </trkpt>
      <trkpt lat="44.74885" lon="5.42513">
        <ele>694.69</ele>
        <time>2015-10-10T09:32:29Z</time>
      </trkpt>
      <trkpt lat="44.74899" lon="5.42512">
        <ele>696.13</ele>
        <time>2015-10-10T09:32:39Z</time>
      </trkpt>
      <trkpt lat="44.74901" lon="5.42513">
        <ele>696.61</ele>
        <time>2015-10-10T09:32:41Z</time>
      </trkpt>
      <trkpt lat="44.74905" lon="5.42512">
        <ele>697.09</ele>
        <time>2015-10-10T09:32:44Z</time>
      </trkpt>
      <trkpt lat="44.74909" lon="5.42512">
        <ele>698.05</ele>
        <time>2015-10-10T09:32:47Z</time>
      </trkpt>
      <trkpt lat="44.74925" lon="5.4251">
        <ele>700.46</ele>
        <time>2015-10-10T09:32:59Z</time>
      </trkpt>
      <trkpt lat="44.74935" lon="5.42512">
        <ele>701.9</ele>
        <time>2015-10-10T09:33:07Z</time>
      </trkpt>
      <trkpt lat="44.74939" lon="5.42511">
        <ele>702.38</ele>
        <time>2015-10-10T09:33:10Z</time>
      </trkpt>
      <trkpt lat="44.74941" lon="5.42512">
        <ele>702.38</ele>
        <time>2015-10-10T09:33:12Z</time>
      </trkpt>
      <trkpt lat="44.74948" lon="5.4251">
        <ele>704.3</ele>
        <time>2015-10-10T09:33:19Z</time>
      </trkpt>
      <trkpt lat="44.74952" lon="5.42509">
        <ele>704.78</ele>
        <time>2015-10-10T09:33:22Z</time>
      </trkpt>
      <trkpt lat="44.74954" lon="5.42508">
        <ele>704.78</ele>
        <time>2015-10-10T09:33:24Z</time>
      </trkpt>
      <trkpt lat="44.7496" lon="5.42503">
        <ele>705.75</ele>
        <time>2015-10-10T09:33:29Z</time>
      </trkpt>
      <trkpt lat="44.74971" lon="5.42497">
        <ele>707.19</ele>
        <time>2015-10-10T09:33:38Z</time>
      </trkpt>
      <trkpt lat="44.74975" lon="5.42492">
        <ele>708.15</ele>
        <time>2015-10-10T09:33:43Z</time>
      </trkpt>
      <trkpt lat="44.74982" lon="5.42486">
        <ele>709.59</ele>
        <time>2015-10-10T09:33:50Z</time>
      </trkpt>
      <trkpt lat="44.74983" lon="5.42483">
        <ele>710.07</ele>
        <time>2015-10-10T09:33:52Z</time>
      </trkpt>
      <trkpt lat="44.74985" lon="5.42476">
        <ele>710.07</ele>
        <time>2015-10-10T09:33:56Z</time>
      </trkpt>
      <trkpt lat="44.74983" lon="5.4247">
        <ele>711.03</ele>
        <time>2015-10-10T09:34:00Z</time>
      </trkpt>
      <trkpt lat="44.74983" lon="5.42464">
        <ele>711.03</ele>
        <time>2015-10-10T09:34:03Z</time>
      </trkpt>
      <trkpt lat="44.74989" lon="5.42456">
        <ele>711.99</ele>
        <time>2015-10-10T09:34:09Z</time>
      </trkpt>
      <trkpt lat="44.74996" lon="5.42444">
        <ele>713.44</ele>
        <time>2015-10-10T09:34:20Z</time>
      </trkpt>
      <trkpt lat="44.74996" lon="5.42443">
        <ele>713.44</ele>
        <time>2015-10-10T09:34:21Z</time>
      </trkpt>
      <trkpt lat="44.75009" lon="5.42432">
        <ele>714.88</ele>
        <time>2015-10-10T09:34:32Z</time>
      </trkpt>
      <trkpt lat="44.75012" lon="5.4243">
        <ele>714.88</ele>
        <time>2015-10-10T09:34:34Z</time>
      </trkpt>
      <trkpt lat="44.75024" lon="5.42416">
        <ele>716.8</ele>
        <time>2015-10-10T09:34:45Z</time>
      </trkpt>
      <trkpt lat="44.75027" lon="5.42406">
        <ele>717.76</ele>
        <time>2015-10-10T09:34:50Z</time>
      </trkpt>
      <trkpt lat="44.75035" lon="5.42397">
        <ele>717.76</ele>
        <time>2015-10-10T09:34:58Z</time>
      </trkpt>
      <trkpt lat="44.75044" lon="5.42402">
        <ele>718.72</ele>
        <time>2015-10-10T09:35:08Z</time>
      </trkpt>
      <trkpt lat="44.75052" lon="5.4241">
        <ele>722.09</ele>
        <time>2015-10-10T09:35:18Z</time>
      </trkpt>
      <trkpt lat="44.75057" lon="5.42426">
        <ele>723.53</ele>
        <time>2015-10-10T09:35:28Z</time>
      </trkpt>
      <trkpt lat="44.75056" lon="5.42429">
        <ele>724.01</ele>
        <time>2015-10-10T09:35:30Z</time>
      </trkpt>
      <trkpt lat="44.75054" lon="5.4245">
        <ele>726.41</ele>
        <time>2015-10-10T09:35:43Z</time>
      </trkpt>
      <trkpt lat="44.75053" lon="5.42459">
        <ele>726.89</ele>
        <time>2015-10-10T09:35:48Z</time>
      </trkpt>
      <trkpt lat="44.75051" lon="5.42467">
        <ele>727.37</ele>
        <time>2015-10-10T09:35:52Z</time>
      </trkpt>
      <trkpt lat="44.75051" lon="5.42491">
        <ele>729.78</ele>
        <time>2015-10-10T09:36:05Z</time>
      </trkpt>
      <trkpt lat="44.75055" lon="5.42508">
        <ele>731.22</ele>
        <time>2015-10-10T09:36:18Z</time>
      </trkpt>
      <trkpt lat="44.75063" lon="5.42521">
        <ele>732.18</ele>
        <time>2015-10-10T09:36:26Z</time>
      </trkpt>
      <trkpt lat="44.75069" lon="5.4253">
        <ele>733.62</ele>
        <time>2015-10-10T09:36:33Z</time>
      </trkpt>
      <trkpt lat="44.75075" lon="5.42536">
        <ele>734.58</ele>
        <time>2015-10-10T09:36:38Z</time>
      </trkpt>
      <trkpt lat="44.75079" lon="5.42541">
        <ele>734.58</ele>
        <time>2015-10-10T09:36:42Z</time>
      </trkpt>
      <trkpt lat="44.75089" lon="5.42554">
        <ele>736.99</ele>
        <time>2015-10-10T09:36:53Z</time>
      </trkpt>
      <trkpt lat="44.75103" lon="5.42567">
        <ele>739.39</ele>
        <time>2015-10-10T09:37:07Z</time>
      </trkpt>
      <trkpt lat="44.75107" lon="5.4257">
        <ele>739.39</ele>
        <time>2015-10-10T09:37:10Z</time>
      </trkpt>
      <trkpt lat="44.75121" lon="5.42583">
        <ele>741.79</ele>
        <time>2015-10-10T09:37:23Z</time>
      </trkpt>
      <trkpt lat="44.75128" lon="5.42588">
        <ele>742.76</ele>
        <time>2015-10-10T09:37:30Z</time>
      </trkpt>
      <trkpt lat="44.75133" lon="5.42593">
        <ele>743.72</ele>
        <time>2015-10-10T09:37:35Z</time>
      </trkpt>
      <trkpt lat="44.75136" lon="5.42598">
        <ele>745.16</ele>
        <time>2015-10-10T09:37:40Z</time>
      </trkpt>
      <trkpt lat="44.75148" lon="5.42611">
        <ele>746.6</ele>
        <time>2015-10-10T09:37:52Z</time>
      </trkpt>
      <trkpt lat="44.75157" lon="5.42623">
        <ele>748.52</ele>
        <time>2015-10-10T09:38:03Z</time>
      </trkpt>
      <trkpt lat="44.75163" lon="5.42633">
        <ele>749.49</ele>
        <time>2015-10-10T09:38:11Z</time>
      </trkpt>
      <trkpt lat="44.75165" lon="5.42635">
        <ele>750.93</ele>
        <time>2015-10-10T09:38:13Z</time>
      </trkpt>
      <trkpt lat="44.75166" lon="5.42637">
        <ele>750.45</ele>
        <time>2015-10-10T09:38:15Z</time>
      </trkpt>
      <trkpt lat="44.75174" lon="5.4265">
        <ele>752.37</ele>
        <time>2015-10-10T09:38:26Z</time>
      </trkpt>
      <trkpt lat="44.75177" lon="5.42656">
        <ele>752.85</ele>
        <time>2015-10-10T09:38:30Z</time>
      </trkpt>
      <trkpt lat="44.7518" lon="5.42661">
        <ele>753.33</ele>
        <time>2015-10-10T09:38:34Z</time>
      </trkpt>
      <trkpt lat="44.75183" lon="5.42668">
        <ele>754.29</ele>
        <time>2015-10-10T09:38:40Z</time>
      </trkpt>
      <trkpt lat="44.75186" lon="5.42674">
        <ele>754.77</ele>
        <time>2015-10-10T09:38:44Z</time>
      </trkpt>
      <trkpt lat="44.75189" lon="5.42677">
        <ele>755.73</ele>
        <time>2015-10-10T09:38:47Z</time>
      </trkpt>
      <trkpt lat="44.752" lon="5.42681">
        <ele>756.69</ele>
        <time>2015-10-10T09:38:55Z</time>
      </trkpt>
      <trkpt lat="44.75202" lon="5.42682">
        <ele>757.18</ele>
        <time>2015-10-10T09:38:57Z</time>
      </trkpt>
      <trkpt lat="44.75218" lon="5.42681">
        <ele>759.58</ele>
        <time>2015-10-10T09:39:10Z</time>
      </trkpt>
      <trkpt lat="44.75219" lon="5.42687">
        <ele>761.02</ele>
        <time>2015-10-10T09:39:17Z</time>
      </trkpt>
      <trkpt lat="44.75218" lon="5.42691">
        <ele>761.98</ele>
        <time>2015-10-10T09:39:20Z</time>
      </trkpt>
      <trkpt lat="44.75219" lon="5.42702">
        <ele>763.42</ele>
        <time>2015-10-10T09:39:27Z</time>
      </trkpt>
      <trkpt lat="44.75216" lon="5.42716">
        <ele>764.39</ele>
        <time>2015-10-10T09:39:37Z</time>
      </trkpt>
      <trkpt lat="44.75211" lon="5.42722">
        <ele>766.31</ele>
        <time>2015-10-10T09:39:43Z</time>
      </trkpt>
      <trkpt lat="44.75198" lon="5.42736">
        <ele>768.71</ele>
        <time>2015-10-10T09:39:56Z</time>
      </trkpt>
      <trkpt lat="44.75193" lon="5.42744">
        <ele>769.19</ele>
        <time>2015-10-10T09:40:02Z</time>
      </trkpt>
      <trkpt lat="44.75194" lon="5.42747">
        <ele>770.15</ele>
        <time>2015-10-10T09:40:04Z</time>
      </trkpt>
      <trkpt lat="44.75189" lon="5.42756">
        <ele>770.63</ele>
        <time>2015-10-10T09:40:10Z</time>
      </trkpt>
      <trkpt lat="44.7518" lon="5.42772">
        <ele>773.52</ele>
        <time>2015-10-10T09:40:22Z</time>
      </trkpt>
      <trkpt lat="44.75174" lon="5.42781">
        <ele>774.48</ele>
        <time>2015-10-10T09:40:29Z</time>
      </trkpt>
      <trkpt lat="44.75172" lon="5.42796">
        <ele>775.92</ele>
        <time>2015-10-10T09:40:41Z</time>
      </trkpt>
      <trkpt lat="44.75175" lon="5.428">
        <ele>776.88</ele>
        <time>2015-10-10T09:40:44Z</time>
      </trkpt>
      <trkpt lat="44.75178" lon="5.42803">
        <ele>777.36</ele>
        <time>2015-10-10T09:40:47Z</time>
      </trkpt>
      <trkpt lat="44.7518" lon="5.42808">
        <ele>778.32</ele>
        <time>2015-10-10T09:40:51Z</time>
      </trkpt>
      <trkpt lat="44.75181" lon="5.42811">
        <ele>778.81</ele>
        <time>2015-10-10T09:40:53Z</time>
      </trkpt>
      <trkpt lat="44.75185" lon="5.42817">
        <ele>779.77</ele>
        <time>2015-10-10T09:40:58Z</time>
      </trkpt>
      <trkpt lat="44.75194" lon="5.42829">
        <ele>782.17</ele>
        <time>2015-10-10T09:41:09Z</time>
      </trkpt>
      <trkpt lat="44.75205" lon="5.42841">
        <ele>783.61</ele>
        <time>2015-10-10T09:41:21Z</time>
      </trkpt>
      <trkpt lat="44.75213" lon="5.42844">
        <ele>784.57</ele>
        <time>2015-10-10T09:41:33Z</time>
      </trkpt>
      <trkpt lat="44.75213" lon="5.42845">
        <ele>785.05</ele>
        <time>2015-10-10T09:41:43Z</time>
      </trkpt>
      <trkpt lat="44.75213" lon="5.42846">
        <ele>784.57</ele>
        <time>2015-10-10T09:41:59Z</time>
      </trkpt>
      <trkpt lat="44.75213" lon="5.42846">
        <ele>784.57</ele>
        <time>2015-10-10T09:42:00Z</time>
      </trkpt>
      <trkpt lat="44.75229" lon="5.42848">
        <ele>785.53</ele>
        <time>2015-10-10T09:42:12Z</time>
      </trkpt>
      <trkpt lat="44.75243" lon="5.42851">
        <ele>787.46</ele>
        <time>2015-10-10T09:42:23Z</time>
      </trkpt>
      <trkpt lat="44.7526" lon="5.42862">
        <ele>788.9</ele>
        <time>2015-10-10T09:42:38Z</time>
      </trkpt>
      <trkpt lat="44.75269" lon="5.42871">
        <ele>789.86</ele>
        <time>2015-10-10T09:42:47Z</time>
      </trkpt>
      <trkpt lat="44.75273" lon="5.42876">
        <ele>790.82</ele>
        <time>2015-10-10T09:42:51Z</time>
      </trkpt>
      <trkpt lat="44.75275" lon="5.4288">
        <ele>790.82</ele>
        <time>2015-10-10T09:42:54Z</time>
      </trkpt>
      <trkpt lat="44.75282" lon="5.42898">
        <ele>792.74</ele>
        <time>2015-10-10T09:43:06Z</time>
      </trkpt>
      <trkpt lat="44.75283" lon="5.42908">
        <ele>794.67</ele>
        <time>2015-10-10T09:43:15Z</time>
      </trkpt>
      <trkpt lat="44.75285" lon="5.42916">
        <ele>795.15</ele>
        <time>2015-10-10T09:43:19Z</time>
      </trkpt>
      <trkpt lat="44.75289" lon="5.42933">
        <ele>797.55</ele>
        <time>2015-10-10T09:43:29Z</time>
      </trkpt>
      <trkpt lat="44.75292" lon="5.42955">
        <ele>798.99</ele>
        <time>2015-10-10T09:43:42Z</time>
      </trkpt>
      <trkpt lat="44.75293" lon="5.42958">
        <ele>799.95</ele>
        <time>2015-10-10T09:43:44Z</time>
      </trkpt>
      <trkpt lat="44.75295" lon="5.42982">
        <ele>802.36</ele>
        <time>2015-10-10T09:43:58Z</time>
      </trkpt>
      <trkpt lat="44.75295" lon="5.42994">
        <ele>804.28</ele>
        <time>2015-10-10T09:44:06Z</time>
      </trkpt>
      <trkpt lat="44.75295" lon="5.43003">
        <ele>804.76</ele>
        <time>2015-10-10T09:44:11Z</time>
      </trkpt>
      <trkpt lat="44.75295" lon="5.43007">
        <ele>805.24</ele>
        <time>2015-10-10T09:44:13Z</time>
      </trkpt>
      <trkpt lat="44.75291" lon="5.43031">
        <ele>808.13</ele>
        <time>2015-10-10T09:44:27Z</time>
      </trkpt>
      <trkpt lat="44.75288" lon="5.43047">
        <ele>809.57</ele>
        <time>2015-10-10T09:44:36Z</time>
      </trkpt>
      <trkpt lat="44.75283" lon="5.43072">
        <ele>811.97</ele>
        <time>2015-10-10T09:44:51Z</time>
      </trkpt>
      <trkpt lat="44.7528" lon="5.43082">
        <ele>812.93</ele>
        <time>2015-10-10T09:44:57Z</time>
      </trkpt>
      <trkpt lat="44.75278" lon="5.43097">
        <ele>814.85</ele>
        <time>2015-10-10T09:45:07Z</time>
      </trkpt>
      <trkpt lat="44.75275" lon="5.43117">
        <ele>817.74</ele>
        <time>2015-10-10T09:45:21Z</time>
      </trkpt>
      <trkpt lat="44.75275" lon="5.43124">
        <ele>819.18</ele>
        <time>2015-10-10T09:45:26Z</time>
      </trkpt>
      <trkpt lat="44.75275" lon="5.43131">
        <ele>819.66</ele>
        <time>2015-10-10T09:45:30Z</time>
      </trkpt>
      <trkpt lat="44.75273" lon="5.43148">
        <ele>821.1</ele>
        <time>2015-10-10T09:45:41Z</time>
      </trkpt>
      <trkpt lat="44.75274" lon="5.43172">
        <ele>822.55</ele>
        <time>2015-10-10T09:45:53Z</time>
      </trkpt>
      <trkpt lat="44.75275" lon="5.43176">
        <ele>823.51</ele>
        <time>2015-10-10T09:45:55Z</time>
      </trkpt>
      <trkpt lat="44.75277" lon="5.4319">
        <ele>825.91</ele>
        <time>2015-10-10T09:46:06Z</time>
      </trkpt>
      <trkpt lat="44.75281" lon="5.43209">
        <ele>828.31</ele>
        <time>2015-10-10T09:46:20Z</time>
      </trkpt>
      <trkpt lat="44.75284" lon="5.43219">
        <ele>828.79</ele>
        <time>2015-10-10T09:46:26Z</time>
      </trkpt>
      <trkpt lat="44.75287" lon="5.43224">
        <ele>829.76</ele>
        <time>2015-10-10T09:46:29Z</time>
      </trkpt>
      <trkpt lat="44.75286" lon="5.43236">
        <ele>829.76</ele>
        <time>2015-10-10T09:46:37Z</time>
      </trkpt>
      <trkpt lat="44.7528" lon="5.43236">
        <ele>831.2</ele>
        <time>2015-10-10T09:46:42Z</time>
      </trkpt>
      <trkpt lat="44.75271" lon="5.43245">
        <ele>832.64</ele>
        <time>2015-10-10T09:46:54Z</time>
      </trkpt>
      <trkpt lat="44.75264" lon="5.43247">
        <ele>832.16</ele>
        <time>2015-10-10T09:47:00Z</time>
      </trkpt>
      <trkpt lat="44.7526" lon="5.43251">
        <ele>833.12</ele>
        <time>2015-10-10T09:47:04Z</time>
      </trkpt>
      <trkpt lat="44.75255" lon="5.43262">
        <ele>834.56</ele>
        <time>2015-10-10T09:47:11Z</time>
      </trkpt>
      <trkpt lat="44.75252" lon="5.43275">
        <ele>835.04</ele>
        <time>2015-10-10T09:47:19Z</time>
      </trkpt>
      <trkpt lat="44.75246" lon="5.4329">
        <ele>836.96</ele>
        <time>2015-10-10T09:47:30Z</time>
      </trkpt>
      <trkpt lat="44.75244" lon="5.43303">
        <ele>837.93</ele>
        <time>2015-10-10T09:47:38Z</time>
      </trkpt>
      <trkpt lat="44.75242" lon="5.43331">
        <ele>839.85</ele>
        <time>2015-10-10T09:47:54Z</time>
      </trkpt>
      <trkpt lat="44.75239" lon="5.43337">
        <ele>840.81</ele>
        <time>2015-10-10T09:47:58Z</time>
      </trkpt>
      <trkpt lat="44.75237" lon="5.43341">
        <ele>841.29</ele>
        <time>2015-10-10T09:48:02Z</time>
      </trkpt>
      <trkpt lat="44.75236" lon="5.43349">
        <ele>841.29</ele>
        <time>2015-10-10T09:48:06Z</time>
      </trkpt>
      <trkpt lat="44.75235" lon="5.43353">
        <ele>842.25</ele>
        <time>2015-10-10T09:48:08Z</time>
      </trkpt>
      <trkpt lat="44.75235" lon="5.43358">
        <ele>842.25</ele>
        <time>2015-10-10T09:48:11Z</time>
      </trkpt>
      <trkpt lat="44.75234" lon="5.43365">
        <ele>843.69</ele>
        <time>2015-10-10T09:48:15Z</time>
      </trkpt>
      <trkpt lat="44.75229" lon="5.43397">
        <ele>845.62</ele>
        <time>2015-10-10T09:48:31Z</time>
      </trkpt>
      <trkpt lat="44.75228" lon="5.434">
        <ele>846.58</ele>
        <time>2015-10-10T09:48:33Z</time>
      </trkpt>
      <trkpt lat="44.75225" lon="5.4342">
        <ele>848.5</ele>
        <time>2015-10-10T09:48:45Z</time>
      </trkpt>
      <trkpt lat="44.75223" lon="5.43429">
        <ele>848.98</ele>
        <time>2015-10-10T09:48:51Z</time>
      </trkpt>
      <trkpt lat="44.75217" lon="5.4344">
        <ele>850.42</ele>
        <time>2015-10-10T09:48:59Z</time>
      </trkpt>
      <trkpt lat="44.75217" lon="5.43448">
        <ele>850.9</ele>
        <time>2015-10-10T09:49:05Z</time>
      </trkpt>
      <trkpt lat="44.75218" lon="5.43455">
        <ele>851.38</ele>
        <time>2015-10-10T09:49:10Z</time>
      </trkpt>
      <trkpt lat="44.75216" lon="5.43468">
        <ele>852.83</ele>
        <time>2015-10-10T09:49:18Z</time>
      </trkpt>
      <trkpt lat="44.75212" lon="5.4347">
        <ele>852.83</ele>
        <time>2015-10-10T09:49:22Z</time>
      </trkpt>
      <trkpt lat="44.75209" lon="5.4348">
        <ele>854.75</ele>
        <time>2015-10-10T09:49:29Z</time>
      </trkpt>
      <trkpt lat="44.75208" lon="5.43489">
        <ele>855.23</ele>
        <time>2015-10-10T09:49:34Z</time>
      </trkpt>
      <trkpt lat="44.75202" lon="5.43503">
        <ele>857.15</ele>
        <time>2015-10-10T09:49:45Z</time>
      </trkpt>
      <trkpt lat="44.75195" lon="5.43505">
        <ele>858.59</ele>
        <time>2015-10-10T09:49:50Z</time>
      </trkpt>
      <trkpt lat="44.75187" lon="5.43526">
        <ele>860.04</ele>
        <time>2015-10-10T09:50:04Z</time>
      </trkpt>
      <trkpt lat="44.7518" lon="5.43536">
        <ele>861.96</ele>
        <time>2015-10-10T09:50:12Z</time>
      </trkpt>
      <trkpt lat="44.75177" lon="5.43541">
        <ele>862.44</ele>
        <time>2015-10-10T09:50:15Z</time>
      </trkpt>
      <trkpt lat="44.7517" lon="5.43556">
        <ele>863.88</ele>
        <time>2015-10-10T09:50:26Z</time>
      </trkpt>
      <trkpt lat="44.75162" lon="5.4357">
        <ele>866.77</ele>
        <time>2015-10-10T09:50:37Z</time>
      </trkpt>
      <trkpt lat="44.75162" lon="5.43573">
        <ele>867.73</ele>
        <time>2015-10-10T09:50:39Z</time>
      </trkpt>
      <trkpt lat="44.75166" lon="5.43581">
        <ele>868.21</ele>
        <time>2015-10-10T09:50:49Z</time>
      </trkpt>
      <trkpt lat="44.75161" lon="5.43575">
        <ele>867.25</ele>
        <time>2015-10-10T09:51:02Z</time>
      </trkpt>
      <trkpt lat="44.75161" lon="5.43574">
        <ele>866.77</ele>
        <time>2015-10-10T09:51:21Z</time>
      </trkpt>
      <trkpt lat="44.7516" lon="5.43574">
        <ele>867.73</ele>
        <time>2015-10-10T09:51:35Z</time>
      </trkpt>
      <trkpt lat="44.7516" lon="5.43573">
        <ele>867.25</ele>
        <time>2015-10-10T09:51:42Z</time>
      </trkpt>
      <trkpt lat="44.75162" lon="5.43577">
        <ele>868.21</ele>
        <time>2015-10-10T09:51:46Z</time>
      </trkpt>
      <trkpt lat="44.75168" lon="5.43585">
        <ele>869.65</ele>
        <time>2015-10-10T09:51:54Z</time>
      </trkpt>
      <trkpt lat="44.75169" lon="5.43592">
        <ele>870.61</ele>
        <time>2015-10-10T09:52:01Z</time>
      </trkpt>
      <trkpt lat="44.75172" lon="5.43602">
        <ele>872.05</ele>
        <time>2015-10-10T09:52:09Z</time>
      </trkpt>
      <trkpt lat="44.7517" lon="5.43611">
        <ele>873.01</ele>
        <time>2015-10-10T09:52:18Z</time>
      </trkpt>
      <trkpt lat="44.75169" lon="5.43612">
        <ele>873.98</ele>
        <time>2015-10-10T09:52:20Z</time>
      </trkpt>
      <trkpt lat="44.75167" lon="5.43619">
        <ele>874.94</ele>
        <time>2015-10-10T09:52:26Z</time>
      </trkpt>
      <trkpt lat="44.75165" lon="5.43634">
        <ele>875.42</ele>
        <time>2015-10-10T09:52:33Z</time>
      </trkpt>
      <trkpt lat="44.75164" lon="5.43647">
        <ele>876.86</ele>
        <time>2015-10-10T09:52:41Z</time>
      </trkpt>
      <trkpt lat="44.75163" lon="5.43653">
        <ele>877.82</ele>
        <time>2015-10-10T09:52:45Z</time>
      </trkpt>
      <trkpt lat="44.75162" lon="5.43668">
        <ele>879.74</ele>
        <time>2015-10-10T09:52:56Z</time>
      </trkpt>
      <trkpt lat="44.75162" lon="5.43675">
        <ele>880.22</ele>
        <time>2015-10-10T09:53:00Z</time>
      </trkpt>
      <trkpt lat="44.75163" lon="5.43684">
        <ele>881.19</ele>
        <time>2015-10-10T09:53:13Z</time>
      </trkpt>
      <trkpt lat="44.75164" lon="5.43687">
        <ele>881.19</ele>
        <time>2015-10-10T09:53:28Z</time>
      </trkpt>
      <trkpt lat="44.75164" lon="5.43687">
        <ele>881.19</ele>
        <time>2015-10-10T09:53:43Z</time>
      </trkpt>
      <trkpt lat="44.75165" lon="5.4369">
        <ele>882.15</ele>
        <time>2015-10-10T09:53:45Z</time>
      </trkpt>
      <trkpt lat="44.75165" lon="5.43691">
        <ele>882.63</ele>
        <time>2015-10-10T09:53:46Z</time>
      </trkpt>
      <trkpt lat="44.75165" lon="5.43695">
        <ele>882.63</ele>
        <time>2015-10-10T09:53:49Z</time>
      </trkpt>
      <trkpt lat="44.75169" lon="5.43704">
        <ele>884.07</ele>
        <time>2015-10-10T09:53:57Z</time>
      </trkpt>
      <trkpt lat="44.7517" lon="5.43714">
        <ele>885.03</ele>
        <time>2015-10-10T09:54:05Z</time>
      </trkpt>
      <trkpt lat="44.75171" lon="5.43723">
        <ele>886.95</ele>
        <time>2015-10-10T09:54:11Z</time>
      </trkpt>
      <trkpt lat="44.75174" lon="5.43738">
        <ele>888.4</ele>
        <time>2015-10-10T09:54:22Z</time>
      </trkpt>
      <trkpt lat="44.75177" lon="5.43745">
        <ele>889.84</ele>
        <time>2015-10-10T09:54:28Z</time>
      </trkpt>
      <trkpt lat="44.7518" lon="5.43759">
        <ele>891.28</ele>
        <time>2015-10-10T09:54:38Z</time>
      </trkpt>
      <trkpt lat="44.75181" lon="5.43763">
        <ele>891.76</ele>
        <time>2015-10-10T09:54:41Z</time>
      </trkpt>
      <trkpt lat="44.75184" lon="5.43775">
        <ele>893.2</ele>
        <time>2015-10-10T09:54:52Z</time>
      </trkpt>
      <trkpt lat="44.75187" lon="5.43783">
        <ele>895.12</ele>
        <time>2015-10-10T09:54:58Z</time>
      </trkpt>
      <trkpt lat="44.7519" lon="5.43797">
        <ele>896.57</ele>
        <time>2015-10-10T09:55:10Z</time>
      </trkpt>
      <trkpt lat="44.75193" lon="5.43803">
        <ele>897.53</ele>
        <time>2015-10-10T09:55:16Z</time>
      </trkpt>
      <trkpt lat="44.75198" lon="5.43819">
        <ele>898.97</ele>
        <time>2015-10-10T09:55:28Z</time>
      </trkpt>
      <trkpt lat="44.75204" lon="5.43835">
        <ele>901.37</ele>
        <time>2015-10-10T09:55:40Z</time>
      </trkpt>
      <trkpt lat="44.7521" lon="5.43848">
        <ele>903.3</ele>
        <time>2015-10-10T09:55:50Z</time>
      </trkpt>
      <trkpt lat="44.75215" lon="5.43862">
        <ele>905.22</ele>
        <time>2015-10-10T09:56:01Z</time>
      </trkpt>
      <trkpt lat="44.7522" lon="5.43875">
        <ele>906.66</ele>
        <time>2015-10-10T09:56:10Z</time>
      </trkpt>
      <trkpt lat="44.75228" lon="5.43888">
        <ele>908.58</ele>
        <time>2015-10-10T09:56:21Z</time>
      </trkpt>
      <trkpt lat="44.75237" lon="5.43904">
        <ele>910.03</ele>
        <time>2015-10-10T09:56:31Z</time>
      </trkpt>
      <trkpt lat="44.75246" lon="5.43916">
        <ele>911.47</ele>
        <time>2015-10-10T09:56:41Z</time>
      </trkpt>
      <trkpt lat="44.75256" lon="5.43925">
        <ele>913.39</ele>
        <time>2015-10-10T09:56:51Z</time>
      </trkpt>
      <trkpt lat="44.75263" lon="5.43934">
        <ele>914.83</ele>
        <time>2015-10-10T09:56:58Z</time>
      </trkpt>
      <trkpt lat="44.75268" lon="5.43939">
        <ele>916.27</ele>
        <time>2015-10-10T09:57:04Z</time>
      </trkpt>
      <trkpt lat="44.75281" lon="5.43951">
        <ele>919.16</ele>
        <time>2015-10-10T09:57:17Z</time>
      </trkpt>
      <trkpt lat="44.75294" lon="5.43963">
        <ele>921.56</ele>
        <time>2015-10-10T09:57:30Z</time>
      </trkpt>
      <trkpt lat="44.75306" lon="5.43974">
        <ele>923</ele>
        <time>2015-10-10T09:57:42Z</time>
      </trkpt>
      <trkpt lat="44.75315" lon="5.43983">
        <ele>925.89</ele>
        <time>2015-10-10T09:57:53Z</time>
      </trkpt>
      <trkpt lat="44.75317" lon="5.43987">
        <ele>925.89</ele>
        <time>2015-10-10T09:57:56Z</time>
      </trkpt>
      <trkpt lat="44.7532" lon="5.43991">
        <ele>926.37</ele>
        <time>2015-10-10T09:57:59Z</time>
      </trkpt>
      <trkpt lat="44.7533" lon="5.44004">
        <ele>929.25</ele>
        <time>2015-10-10T09:58:12Z</time>
      </trkpt>
      <trkpt lat="44.75331" lon="5.44005">
        <ele>929.25</ele>
        <time>2015-10-10T09:58:13Z</time>
      </trkpt>
      <trkpt lat="44.75333" lon="5.44008">
        <ele>929.73</ele>
        <time>2015-10-10T09:58:16Z</time>
      </trkpt>
      <trkpt lat="44.75335" lon="5.44012">
        <ele>930.69</ele>
        <time>2015-10-10T09:58:19Z</time>
      </trkpt>
      <trkpt lat="44.75343" lon="5.44021">
        <ele>932.14</ele>
        <time>2015-10-10T09:58:28Z</time>
      </trkpt>
      <trkpt lat="44.75347" lon="5.44027">
        <ele>934.06</ele>
        <time>2015-10-10T09:58:37Z</time>
      </trkpt>
      <trkpt lat="44.75355" lon="5.44038">
        <ele>935.5</ele>
        <time>2015-10-10T09:58:47Z</time>
      </trkpt>
      <trkpt lat="44.75356" lon="5.4404">
        <ele>935.98</ele>
        <time>2015-10-10T09:58:48Z</time>
      </trkpt>
      <trkpt lat="44.75361" lon="5.44043">
        <ele>935.98</ele>
        <time>2015-10-10T09:58:51Z</time>
      </trkpt>
      <trkpt lat="44.75366" lon="5.44044">
        <ele>936.94</ele>
        <time>2015-10-10T09:58:55Z</time>
      </trkpt>
      <trkpt lat="44.7537" lon="5.44046">
        <ele>937.42</ele>
        <time>2015-10-10T09:58:59Z</time>
      </trkpt>
      <trkpt lat="44.75381" lon="5.4405">
        <ele>938.86</ele>
        <time>2015-10-10T09:59:10Z</time>
      </trkpt>
      <trkpt lat="44.75385" lon="5.44053">
        <ele>939.83</ele>
        <time>2015-10-10T09:59:13Z</time>
      </trkpt>
      <trkpt lat="44.75394" lon="5.44056">
        <ele>940.79</ele>
        <time>2015-10-10T09:59:21Z</time>
      </trkpt>
      <trkpt lat="44.75402" lon="5.44064">
        <ele>942.71</ele>
        <time>2015-10-10T09:59:33Z</time>
      </trkpt>
      <trkpt lat="44.75403" lon="5.44074">
        <ele>944.63</ele>
        <time>2015-10-10T09:59:45Z</time>
      </trkpt>
      <trkpt lat="44.75402" lon="5.44077">
        <ele>944.63</ele>
        <time>2015-10-10T09:59:47Z</time>
      </trkpt>
      <trkpt lat="44.75396" lon="5.44083">
        <ele>945.11</ele>
        <time>2015-10-10T09:59:50Z</time>
      </trkpt>
      <trkpt lat="44.75392" lon="5.4409">
        <ele>946.07</ele>
        <time>2015-10-10T09:59:55Z</time>
      </trkpt>
      <trkpt lat="44.75389" lon="5.44097">
        <ele>946.07</ele>
        <time>2015-10-10T09:59:59Z</time>
      </trkpt>
      <trkpt lat="44.75389" lon="5.44115">
        <ele>948.96</ele>
        <time>2015-10-10T10:00:10Z</time>
      </trkpt>
      <trkpt lat="44.75395" lon="5.44128">
        <ele>950.88</ele>
        <time>2015-10-10T10:00:23Z</time>
      </trkpt>
      <trkpt lat="44.75406" lon="5.44145">
        <ele>952.32</ele>
        <time>2015-10-10T10:00:35Z</time>
      </trkpt>
      <trkpt lat="44.75409" lon="5.44151">
        <ele>952.8</ele>
        <time>2015-10-10T10:00:39Z</time>
      </trkpt>
      <trkpt lat="44.75413" lon="5.44158">
        <ele>953.77</ele>
        <time>2015-10-10T10:00:46Z</time>
      </trkpt>
      <trkpt lat="44.7542" lon="5.44169">
        <ele>955.69</ele>
        <time>2015-10-10T10:00:57Z</time>
      </trkpt>
      <trkpt lat="44.75427" lon="5.44182">
        <ele>957.61</ele>
        <time>2015-10-10T10:01:07Z</time>
      </trkpt>
      <trkpt lat="44.75433" lon="5.44195">
        <ele>959.05</ele>
        <time>2015-10-10T10:01:17Z</time>
      </trkpt>
      <trkpt lat="44.75441" lon="5.4421">
        <ele>960.98</ele>
        <time>2015-10-10T10:01:27Z</time>
      </trkpt>
      <trkpt lat="44.75443" lon="5.44215">
        <ele>961.94</ele>
        <time>2015-10-10T10:01:33Z</time>
      </trkpt>
      <trkpt lat="44.75455" lon="5.44232">
        <ele>964.82</ele>
        <time>2015-10-10T10:01:48Z</time>
      </trkpt>
      <trkpt lat="44.75466" lon="5.44241">
        <ele>966.74</ele>
        <time>2015-10-10T10:01:59Z</time>
      </trkpt>
      <trkpt lat="44.75472" lon="5.44243">
        <ele>967.22</ele>
        <time>2015-10-10T10:02:03Z</time>
      </trkpt>
      <trkpt lat="44.75478" lon="5.44251">
        <ele>969.15</ele>
        <time>2015-10-10T10:02:15Z</time>
      </trkpt>
      <trkpt lat="44.75486" lon="5.44262">
        <ele>971.55</ele>
        <time>2015-10-10T10:02:25Z</time>
      </trkpt>
      <trkpt lat="44.75497" lon="5.44276">
        <ele>973.47</ele>
        <time>2015-10-10T10:02:38Z</time>
      </trkpt>
      <trkpt lat="44.75498" lon="5.44276">
        <ele>973.47</ele>
        <time>2015-10-10T10:02:40Z</time>
      </trkpt>
      <trkpt lat="44.75501" lon="5.44279">
        <ele>974.43</ele>
        <time>2015-10-10T10:02:42Z</time>
      </trkpt>
      <trkpt lat="44.75501" lon="5.44289">
        <ele>975.88</ele>
        <time>2015-10-10T10:02:50Z</time>
      </trkpt>
      <trkpt lat="44.75488" lon="5.44299">
        <ele>977.32</ele>
        <time>2015-10-10T10:03:05Z</time>
      </trkpt>
      <trkpt lat="44.75487" lon="5.44299">
        <ele>977.8</ele>
        <time>2015-10-10T10:03:06Z</time>
      </trkpt>
      <trkpt lat="44.75477" lon="5.44309">
        <ele>979.24</ele>
        <time>2015-10-10T10:03:15Z</time>
      </trkpt>
      <trkpt lat="44.75464" lon="5.44315">
        <ele>981.16</ele>
        <time>2015-10-10T10:03:28Z</time>
      </trkpt>
      <trkpt lat="44.75462" lon="5.44315">
        <ele>981.64</ele>
        <time>2015-10-10T10:03:30Z</time>
      </trkpt>
      <trkpt lat="44.75451" lon="5.44325">
        <ele>983.57</ele>
        <time>2015-10-10T10:03:42Z</time>
      </trkpt>
      <trkpt lat="44.7545" lon="5.44326">
        <ele>983.57</ele>
        <time>2015-10-10T10:03:43Z</time>
      </trkpt>
      <trkpt lat="44.75443" lon="5.44336">
        <ele>985.01</ele>
        <time>2015-10-10T10:03:50Z</time>
      </trkpt>
      <trkpt lat="44.75435" lon="5.44348">
        <ele>985.97</ele>
        <time>2015-10-10T10:04:01Z</time>
      </trkpt>
      <trkpt lat="44.75427" lon="5.4436">
        <ele>987.89</ele>
        <time>2015-10-10T10:04:11Z</time>
      </trkpt>
      <trkpt lat="44.75419" lon="5.4437">
        <ele>989.33</ele>
        <time>2015-10-10T10:04:21Z</time>
      </trkpt>
      <trkpt lat="44.75409" lon="5.44386">
        <ele>990.78</ele>
        <time>2015-10-10T10:04:34Z</time>
      </trkpt>
      <trkpt lat="44.75403" lon="5.44399">
        <ele>992.22</ele>
        <time>2015-10-10T10:04:45Z</time>
      </trkpt>
      <trkpt lat="44.75398" lon="5.44401">
        <ele>993.66</ele>
        <time>2015-10-10T10:04:50Z</time>
      </trkpt>
      <trkpt lat="44.75393" lon="5.44404">
        <ele>994.14</ele>
        <time>2015-10-10T10:04:54Z</time>
      </trkpt>
      <trkpt lat="44.75391" lon="5.44414">
        <ele>995.1</ele>
        <time>2015-10-10T10:05:00Z</time>
      </trkpt>
      <trkpt lat="44.75384" lon="5.44425">
        <ele>996.54</ele>
        <time>2015-10-10T10:05:09Z</time>
      </trkpt>
      <trkpt lat="44.75367" lon="5.44423">
        <ele>998.95</ele>
        <time>2015-10-10T10:05:22Z</time>
      </trkpt>
      <trkpt lat="44.75365" lon="5.44424">
        <ele>998.47</ele>
        <time>2015-10-10T10:05:23Z</time>
      </trkpt>
      <trkpt lat="44.75361" lon="5.44427">
        <ele>999.91</ele>
        <time>2015-10-10T10:05:27Z</time>
      </trkpt>
      <trkpt lat="44.7536" lon="5.44433">
        <ele>999.43</ele>
        <time>2015-10-10T10:05:30Z</time>
      </trkpt>
      <trkpt lat="44.75357" lon="5.44454">
        <ele>1001.83</ele>
        <time>2015-10-10T10:05:42Z</time>
      </trkpt>
      <trkpt lat="44.75357" lon="5.44455">
        <ele>1001.83</ele>
        <time>2015-10-10T10:05:43Z</time>
      </trkpt>
      <trkpt lat="44.75356" lon="5.44463">
        <ele>1003.27</ele>
        <time>2015-10-10T10:05:49Z</time>
      </trkpt>
      <trkpt lat="44.75349" lon="5.44464">
        <ele>1003.27</ele>
        <time>2015-10-10T10:05:56Z</time>
      </trkpt>
      <trkpt lat="44.75344" lon="5.44478">
        <ele>1004.23</ele>
        <time>2015-10-10T10:06:05Z</time>
      </trkpt>
      <trkpt lat="44.75333" lon="5.44482">
        <ele>1005.68</ele>
        <time>2015-10-10T10:06:17Z</time>
      </trkpt>
      <trkpt lat="44.75329" lon="5.44482">
        <ele>1006.16</ele>
        <time>2015-10-10T10:06:20Z</time>
      </trkpt>
      <trkpt lat="44.75322" lon="5.44481">
        <ele>1007.12</ele>
        <time>2015-10-10T10:06:24Z</time>
      </trkpt>
      <trkpt lat="44.75317" lon="5.44483">
        <ele>1008.56</ele>
        <time>2015-10-10T10:06:30Z</time>
      </trkpt>
      <trkpt lat="44.75305" lon="5.44486">
        <ele>1009.52</ele>
        <time>2015-10-10T10:06:43Z</time>
      </trkpt>
      <trkpt lat="44.75291" lon="5.44483">
        <ele>1011.44</ele>
        <time>2015-10-10T10:06:54Z</time>
      </trkpt>
      <trkpt lat="44.75279" lon="5.44481">
        <ele>1013.85</ele>
        <time>2015-10-10T10:07:06Z</time>
      </trkpt>
      <trkpt lat="44.7527" lon="5.44478">
        <ele>1014.33</ele>
        <time>2015-10-10T10:07:13Z</time>
      </trkpt>
      <trkpt lat="44.75266" lon="5.44478">
        <ele>1015.29</ele>
        <time>2015-10-10T10:07:16Z</time>
      </trkpt>
      <trkpt lat="44.75262" lon="5.44476">
        <ele>1015.77</ele>
        <time>2015-10-10T10:07:19Z</time>
      </trkpt>
      <trkpt lat="44.75256" lon="5.44475">
        <ele>1016.25</ele>
        <time>2015-10-10T10:07:24Z</time>
      </trkpt>
      <trkpt lat="44.75249" lon="5.44469">
        <ele>1017.69</ele>
        <time>2015-10-10T10:07:31Z</time>
      </trkpt>
      <trkpt lat="44.75239" lon="5.44453">
        <ele>1020.58</ele>
        <time>2015-10-10T10:07:44Z</time>
      </trkpt>
      <trkpt lat="44.75232" lon="5.4444">
        <ele>1021.06</ele>
        <time>2015-10-10T10:07:55Z</time>
      </trkpt>
      <trkpt lat="44.75229" lon="5.44436">
        <ele>1022.02</ele>
        <time>2015-10-10T10:07:58Z</time>
      </trkpt>
      <trkpt lat="44.75226" lon="5.44431">
        <ele>1022.5</ele>
        <time>2015-10-10T10:08:02Z</time>
      </trkpt>
      <trkpt lat="44.75223" lon="5.44426">
        <ele>1023.46</ele>
        <time>2015-10-10T10:08:05Z</time>
      </trkpt>
      <trkpt lat="44.75218" lon="5.44416">
        <ele>1024.42</ele>
        <time>2015-10-10T10:08:11Z</time>
      </trkpt>
      <trkpt lat="44.7521" lon="5.4441">
        <ele>1024.42</ele>
        <time>2015-10-10T10:08:17Z</time>
      </trkpt>
      <trkpt lat="44.75204" lon="5.4441">
        <ele>1024.9</ele>
        <time>2015-10-10T10:08:28Z</time>
      </trkpt>
      <trkpt lat="44.75203" lon="5.44408">
        <ele>1024.9</ele>
        <time>2015-10-10T10:08:45Z</time>
      </trkpt>
      <trkpt lat="44.75205" lon="5.44409">
        <ele>1024.9</ele>
        <time>2015-10-10T10:09:00Z</time>
      </trkpt>
      <trkpt lat="44.75206" lon="5.44408">
        <ele>1024.42</ele>
        <time>2015-10-10T10:09:02Z</time>
      </trkpt>
      <trkpt lat="44.75203" lon="5.44403">
        <ele>1022.98</ele>
        <time>2015-10-10T10:09:12Z</time>
      </trkpt>
      <trkpt lat="44.75202" lon="5.44397">
        <ele>1020.58</ele>
        <time>2015-10-10T10:09:22Z</time>
      </trkpt>
      <trkpt lat="44.75202" lon="5.44395">
        <ele>1020.58</ele>
        <time>2015-10-10T10:09:24Z</time>
      </trkpt>
      <trkpt lat="44.75201" lon="5.44391">
        <ele>1019.13</ele>
        <time>2015-10-10T10:09:27Z</time>
      </trkpt>
      <trkpt lat="44.75201" lon="5.4439">
        <ele>1019.13</ele>
        <time>2015-10-10T10:09:36Z</time>
      </trkpt>
      <trkpt lat="44.75201" lon="5.4439">
        <ele>1019.13</ele>
        <time>2015-10-10T10:09:43Z</time>
      </trkpt>
      <trkpt lat="44.75203" lon="5.44399">
        <ele>1022.02</ele>
        <time>2015-10-10T10:09:54Z</time>
      </trkpt>
      <trkpt lat="44.75206" lon="5.44407">
        <ele>1024.9</ele>
        <time>2015-10-10T10:10:04Z</time>
      </trkpt>
      <trkpt lat="44.75203" lon="5.44408">
        <ele>1025.38</ele>
        <time>2015-10-10T10:10:17Z</time>
      </trkpt>
      <trkpt lat="44.75198" lon="5.44411">
        <ele>1025.86</ele>
        <time>2015-10-10T10:10:22Z</time>
      </trkpt>
      <trkpt lat="44.75196" lon="5.44411">
        <ele>1025.86</ele>
        <time>2015-10-10T10:10:24Z</time>
      </trkpt>
      <trkpt lat="44.75192" lon="5.44415">
        <ele>1026.83</ele>
        <time>2015-10-10T10:10:29Z</time>
      </trkpt>
      <trkpt lat="44.75188" lon="5.44418">
        <ele>1027.31</ele>
        <time>2015-10-10T10:10:33Z</time>
      </trkpt>
      <trkpt lat="44.75184" lon="5.44421">
        <ele>1027.79</ele>
        <time>2015-10-10T10:10:37Z</time>
      </trkpt>
      <trkpt lat="44.75181" lon="5.44424">
        <ele>1028.27</ele>
        <time>2015-10-10T10:10:40Z</time>
      </trkpt>
      <trkpt lat="44.75167" lon="5.44434">
        <ele>1029.71</ele>
        <time>2015-10-10T10:10:51Z</time>
      </trkpt>
      <trkpt lat="44.75155" lon="5.44445">
        <ele>1031.15</ele>
        <time>2015-10-10T10:11:04Z</time>
      </trkpt>
      <trkpt lat="44.75148" lon="5.44452">
        <ele>1032.59</ele>
        <time>2015-10-10T10:11:12Z</time>
      </trkpt>
      <trkpt lat="44.75145" lon="5.44455">
        <ele>1034.04</ele>
        <time>2015-10-10T10:11:15Z</time>
      </trkpt>
      <trkpt lat="44.75141" lon="5.44457">
        <ele>1034.04</ele>
        <time>2015-10-10T10:11:19Z</time>
      </trkpt>
      <trkpt lat="44.75125" lon="5.44468">
        <ele>1036.92</ele>
        <time>2015-10-10T10:11:35Z</time>
      </trkpt>
      <trkpt lat="44.75121" lon="5.44469">
        <ele>1037.88</ele>
        <time>2015-10-10T10:11:38Z</time>
      </trkpt>
      <trkpt lat="44.75119" lon="5.44472">
        <ele>1037.88</ele>
        <time>2015-10-10T10:11:41Z</time>
      </trkpt>
      <trkpt lat="44.75116" lon="5.44476">
        <ele>1038.84</ele>
        <time>2015-10-10T10:11:44Z</time>
      </trkpt>
      <trkpt lat="44.75109" lon="5.44484">
        <ele>1039.8</ele>
        <time>2015-10-10T10:11:53Z</time>
      </trkpt>
      <trkpt lat="44.75099" lon="5.44497">
        <ele>1041.25</ele>
        <time>2015-10-10T10:12:05Z</time>
      </trkpt>
      <trkpt lat="44.7509" lon="5.44507">
        <ele>1042.21</ele>
        <time>2015-10-10T10:12:15Z</time>
      </trkpt>
      <trkpt lat="44.75084" lon="5.4451">
        <ele>1043.17</ele>
        <time>2015-10-10T10:12:20Z</time>
      </trkpt>
      <trkpt lat="44.75078" lon="5.44513">
        <ele>1044.13</ele>
        <time>2015-10-10T10:12:26Z</time>
      </trkpt>
      <trkpt lat="44.75064" lon="5.44522">
        <ele>1046.05</ele>
        <time>2015-10-10T10:12:38Z</time>
      </trkpt>
      <trkpt lat="44.75058" lon="5.4453">
        <ele>1046.05</ele>
        <time>2015-10-10T10:12:44Z</time>
      </trkpt>
      <trkpt lat="44.7505" lon="5.44551">
        <ele>1048.45</ele>
        <time>2015-10-10T10:12:56Z</time>
      </trkpt>
      <trkpt lat="44.75048" lon="5.44553">
        <ele>1048.94</ele>
        <time>2015-10-10T10:12:58Z</time>
      </trkpt>
      <trkpt lat="44.75043" lon="5.44557">
        <ele>1049.42</ele>
        <time>2015-10-10T10:13:03Z</time>
      </trkpt>
      <trkpt lat="44.75028" lon="5.44568">
        <ele>1050.38</ele>
        <time>2015-10-10T10:13:16Z</time>
      </trkpt>
      <trkpt lat="44.75022" lon="5.44572">
        <ele>1051.34</ele>
        <time>2015-10-10T10:13:21Z</time>
      </trkpt>
      <trkpt lat="44.75015" lon="5.44576">
        <ele>1052.3</ele>
        <time>2015-10-10T10:13:29Z</time>
      </trkpt>
      <trkpt lat="44.7501" lon="5.4458">
        <ele>1052.3</ele>
        <time>2015-10-10T10:13:33Z</time>
      </trkpt>
      <trkpt lat="44.75007" lon="5.44581">
        <ele>1053.74</ele>
        <time>2015-10-10T10:13:37Z</time>
      </trkpt>
      <trkpt lat="44.75005" lon="5.44583">
        <ele>1054.22</ele>
        <time>2015-10-10T10:13:39Z</time>
      </trkpt>
      <trkpt lat="44.75005" lon="5.44585">
        <ele>1053.74</ele>
        <time>2015-10-10T10:13:40Z</time>
      </trkpt>
      <trkpt lat="44.75004" lon="5.44585">
        <ele>1054.22</ele>
        <time>2015-10-10T10:13:41Z</time>
      </trkpt>
      <trkpt lat="44.75" lon="5.44596">
        <ele>1054.22</ele>
        <time>2015-10-10T10:13:45Z</time>
      </trkpt>
      <trkpt lat="44.74998" lon="5.44606">
        <ele>1055.18</ele>
        <time>2015-10-10T10:13:49Z</time>
      </trkpt>
      <trkpt lat="44.74997" lon="5.44612">
        <ele>1055.67</ele>
        <time>2015-10-10T10:13:52Z</time>
      </trkpt>
      <trkpt lat="44.74994" lon="5.44623">
        <ele>1056.63</ele>
        <time>2015-10-10T10:13:57Z</time>
      </trkpt>
      <trkpt lat="44.74994" lon="5.44629">
        <ele>1056.63</ele>
        <time>2015-10-10T10:14:00Z</time>
      </trkpt>
      <trkpt lat="44.74993" lon="5.44663">
        <ele>1057.59</ele>
        <time>2015-10-10T10:14:13Z</time>
      </trkpt>
      <trkpt lat="44.74989" lon="5.4468">
        <ele>1058.55</ele>
        <time>2015-10-10T10:14:23Z</time>
      </trkpt>
      <trkpt lat="44.74984" lon="5.44698">
        <ele>1059.51</ele>
        <time>2015-10-10T10:14:35Z</time>
      </trkpt>
      <trkpt lat="44.7498" lon="5.44714">
        <ele>1060.47</ele>
        <time>2015-10-10T10:14:45Z</time>
      </trkpt>
      <trkpt lat="44.74971" lon="5.44735">
        <ele>1061.43</ele>
        <time>2015-10-10T10:14:59Z</time>
      </trkpt>
      <trkpt lat="44.74966" lon="5.44749">
        <ele>1062.87</ele>
        <time>2015-10-10T10:15:07Z</time>
      </trkpt>
      <trkpt lat="44.74965" lon="5.44751">
        <ele>1062.87</ele>
        <time>2015-10-10T10:15:09Z</time>
      </trkpt>
      <trkpt lat="44.7496" lon="5.44757">
        <ele>1063.36</ele>
        <time>2015-10-10T10:15:15Z</time>
      </trkpt>
      <trkpt lat="44.74955" lon="5.44776">
        <ele>1066.24</ele>
        <time>2015-10-10T10:15:28Z</time>
      </trkpt>
      <trkpt lat="44.7495" lon="5.44792">
        <ele>1068.16</ele>
        <time>2015-10-10T10:15:40Z</time>
      </trkpt>
      <trkpt lat="44.74943" lon="5.44807">
        <ele>1069.6</ele>
        <time>2015-10-10T10:15:53Z</time>
      </trkpt>
      <trkpt lat="44.74938" lon="5.44821">
        <ele>1071.53</ele>
        <time>2015-10-10T10:16:05Z</time>
      </trkpt>
      <trkpt lat="44.7493" lon="5.44835">
        <ele>1072.49</ele>
        <time>2015-10-10T10:16:16Z</time>
      </trkpt>
      <trkpt lat="44.74924" lon="5.44848">
        <ele>1075.85</ele>
        <time>2015-10-10T10:16:27Z</time>
      </trkpt>
      <trkpt lat="44.74923" lon="5.44849">
        <ele>1075.85</ele>
        <time>2015-10-10T10:16:28Z</time>
      </trkpt>
      <trkpt lat="44.7492" lon="5.4486">
        <ele>1078.74</ele>
        <time>2015-10-10T10:16:40Z</time>
      </trkpt>
      <trkpt lat="44.74916" lon="5.4486">
        <ele>1079.22</ele>
        <time>2015-10-10T10:16:44Z</time>
      </trkpt>
      <trkpt lat="44.74915" lon="5.44861">
        <ele>1080.18</ele>
        <time>2015-10-10T10:16:47Z</time>
      </trkpt>
      <trkpt lat="44.74906" lon="5.4486">
        <ele>1083.06</ele>
        <time>2015-10-10T10:16:58Z</time>
      </trkpt>
      <trkpt lat="44.74905" lon="5.44861">
        <ele>1083.54</ele>
        <time>2015-10-10T10:17:00Z</time>
      </trkpt>
      <trkpt lat="44.74901" lon="5.4486">
        <ele>1084.5</ele>
        <time>2015-10-10T10:17:07Z</time>
      </trkpt>
      <trkpt lat="44.74898" lon="5.44858">
        <ele>1085.95</ele>
        <time>2015-10-10T10:17:10Z</time>
      </trkpt>
      <trkpt lat="44.74898" lon="5.4486">
        <ele>1086.91</ele>
        <time>2015-10-10T10:17:14Z</time>
      </trkpt>
      <trkpt lat="44.74897" lon="5.44862">
        <ele>1088.35</ele>
        <time>2015-10-10T10:17:18Z</time>
      </trkpt>
      <trkpt lat="44.74903" lon="5.44884">
        <ele>1091.23</ele>
        <time>2015-10-10T10:17:29Z</time>
      </trkpt>
      <trkpt lat="44.74898" lon="5.4488">
        <ele>1094.6</ele>
        <time>2015-10-10T10:17:41Z</time>
      </trkpt>
      <trkpt lat="44.74897" lon="5.4488">
        <ele>1095.08</ele>
        <time>2015-10-10T10:17:43Z</time>
      </trkpt>
      <trkpt lat="44.74892" lon="5.44882">
        <ele>1097.48</ele>
        <time>2015-10-10T10:17:55Z</time>
      </trkpt>
      <trkpt lat="44.74884" lon="5.44878">
        <ele>1100.37</ele>
        <time>2015-10-10T10:18:07Z</time>
      </trkpt>
      <trkpt lat="44.74879" lon="5.44878">
        <ele>1103.25</ele>
        <time>2015-10-10T10:18:16Z</time>
      </trkpt>
      <trkpt lat="44.74876" lon="5.44878">
        <ele>1106.61</ele>
        <time>2015-10-10T10:18:30Z</time>
      </trkpt>
      <trkpt lat="44.74876" lon="5.44877">
        <ele>1106.13</ele>
        <time>2015-10-10T10:18:31Z</time>
      </trkpt>
      <trkpt lat="44.74873" lon="5.44864">
        <ele>1109.98</ele>
        <time>2015-10-10T10:18:44Z</time>
      </trkpt>
      <trkpt lat="44.74865" lon="5.44853">
        <ele>1111.42</ele>
        <time>2015-10-10T10:18:55Z</time>
      </trkpt>
      <trkpt lat="44.74862" lon="5.44849">
        <ele>1112.86</ele>
        <time>2015-10-10T10:18:58Z</time>
      </trkpt>
      <trkpt lat="44.74856" lon="5.4484">
        <ele>1115.27</ele>
        <time>2015-10-10T10:19:09Z</time>
      </trkpt>
      <trkpt lat="44.74852" lon="5.44837">
        <ele>1115.75</ele>
        <time>2015-10-10T10:19:13Z</time>
      </trkpt>
      <trkpt lat="44.74846" lon="5.44831">
        <ele>1117.19</ele>
        <time>2015-10-10T10:19:22Z</time>
      </trkpt>
      <trkpt lat="44.74838" lon="5.44826">
        <ele>1119.59</ele>
        <time>2015-10-10T10:19:33Z</time>
      </trkpt>
      <trkpt lat="44.74831" lon="5.44821">
        <ele>1122</ele>
        <time>2015-10-10T10:19:44Z</time>
      </trkpt>
      <trkpt lat="44.74824" lon="5.44814">
        <ele>1124.4</ele>
        <time>2015-10-10T10:19:53Z</time>
      </trkpt>
      <trkpt lat="44.74818" lon="5.44807">
        <ele>1126.8</ele>
        <time>2015-10-10T10:20:05Z</time>
      </trkpt>
      <trkpt lat="44.74817" lon="5.44806">
        <ele>1126.8</ele>
        <time>2015-10-10T10:20:06Z</time>
      </trkpt>
      <trkpt lat="44.74807" lon="5.44797">
        <ele>1129.69</ele>
        <time>2015-10-10T10:20:19Z</time>
      </trkpt>
      <trkpt lat="44.748" lon="5.44792">
        <ele>1131.61</ele>
        <time>2015-10-10T10:20:26Z</time>
      </trkpt>
      <trkpt lat="44.74793" lon="5.44784">
        <ele>1134.01</ele>
        <time>2015-10-10T10:20:39Z</time>
      </trkpt>
      <trkpt lat="44.74786" lon="5.44775">
        <ele>1136.42</ele>
        <time>2015-10-10T10:20:51Z</time>
      </trkpt>
      <trkpt lat="44.74778" lon="5.44773">
        <ele>1138.82</ele>
        <time>2015-10-10T10:21:02Z</time>
      </trkpt>
      <trkpt lat="44.74773" lon="5.44768">
        <ele>1140.74</ele>
        <time>2015-10-10T10:21:12Z</time>
      </trkpt>
      <trkpt lat="44.74769" lon="5.44769">
        <ele>1143.14</ele>
        <time>2015-10-10T10:21:23Z</time>
      </trkpt>
      <trkpt lat="44.74763" lon="5.44764">
        <ele>1146.03</ele>
        <time>2015-10-10T10:21:34Z</time>
      </trkpt>
      <trkpt lat="44.74756" lon="5.44762">
        <ele>1148.43</ele>
        <time>2015-10-10T10:21:49Z</time>
      </trkpt>
      <trkpt lat="44.74749" lon="5.44766">
        <ele>1150.84</ele>
        <time>2015-10-10T10:22:00Z</time>
      </trkpt>
      <trkpt lat="44.74744" lon="5.44769">
        <ele>1153.24</ele>
        <time>2015-10-10T10:22:07Z</time>
      </trkpt>
      <trkpt lat="44.74736" lon="5.4477">
        <ele>1154.2</ele>
        <time>2015-10-10T10:22:20Z</time>
      </trkpt>
      <trkpt lat="44.74731" lon="5.44766">
        <ele>1155.16</ele>
        <time>2015-10-10T10:22:27Z</time>
      </trkpt>
      <trkpt lat="44.74717" lon="5.44767">
        <ele>1157.08</ele>
        <time>2015-10-10T10:22:38Z</time>
      </trkpt>
      <trkpt lat="44.74712" lon="5.44768">
        <ele>1158.05</ele>
        <time>2015-10-10T10:22:42Z</time>
      </trkpt>
      <trkpt lat="44.74708" lon="5.44771">
        <ele>1159.01</ele>
        <time>2015-10-10T10:22:47Z</time>
      </trkpt>
      <trkpt lat="44.74696" lon="5.44774">
        <ele>1161.89</ele>
        <time>2015-10-10T10:23:00Z</time>
      </trkpt>
      <trkpt lat="44.74686" lon="5.44775">
        <ele>1163.33</ele>
        <time>2015-10-10T10:23:12Z</time>
      </trkpt>
      <trkpt lat="44.74682" lon="5.44773">
        <ele>1164.77</ele>
        <time>2015-10-10T10:23:17Z</time>
      </trkpt>
      <trkpt lat="44.74672" lon="5.44767">
        <ele>1165.26</ele>
        <time>2015-10-10T10:23:24Z</time>
      </trkpt>
      <trkpt lat="44.74666" lon="5.44765">
        <ele>1165.26</ele>
        <time>2015-10-10T10:23:28Z</time>
      </trkpt>
      <trkpt lat="44.7465" lon="5.44766">
        <ele>1164.77</ele>
        <time>2015-10-10T10:23:40Z</time>
      </trkpt>
      <trkpt lat="44.74649" lon="5.44767">
        <ele>1164.77</ele>
        <time>2015-10-10T10:23:41Z</time>
      </trkpt>
      <trkpt lat="44.74643" lon="5.44773">
        <ele>1165.74</ele>
        <time>2015-10-10T10:23:46Z</time>
      </trkpt>
      <trkpt lat="44.74637" lon="5.4478">
        <ele>1167.66</ele>
        <time>2015-10-10T10:23:56Z</time>
      </trkpt>
      <trkpt lat="44.74633" lon="5.4479">
        <ele>1169.58</ele>
        <time>2015-10-10T10:24:07Z</time>
      </trkpt>
      <trkpt lat="44.74627" lon="5.44805">
        <ele>1171.5</ele>
        <time>2015-10-10T10:24:19Z</time>
      </trkpt>
      <trkpt lat="44.74623" lon="5.44813">
        <ele>1173.43</ele>
        <time>2015-10-10T10:24:25Z</time>
      </trkpt>
      <trkpt lat="44.74615" lon="5.44824">
        <ele>1176.31</ele>
        <time>2015-10-10T10:24:39Z</time>
      </trkpt>
      <trkpt lat="44.74608" lon="5.44838">
        <ele>1179.19</ele>
        <time>2015-10-10T10:24:52Z</time>
      </trkpt>
      <trkpt lat="44.74603" lon="5.44845">
        <ele>1182.56</ele>
        <time>2015-10-10T10:25:03Z</time>
      </trkpt>
      <trkpt lat="44.74595" lon="5.44848">
        <ele>1185.44</ele>
        <time>2015-10-10T10:25:13Z</time>
      </trkpt>
      <trkpt lat="44.74585" lon="5.44845">
        <ele>1187.37</ele>
        <time>2015-10-10T10:25:25Z</time>
      </trkpt>
      <trkpt lat="44.74574" lon="5.44841">
        <ele>1189.29</ele>
        <time>2015-10-10T10:25:36Z</time>
      </trkpt>
      <trkpt lat="44.74569" lon="5.44837">
        <ele>1192.17</ele>
        <time>2015-10-10T10:25:50Z</time>
      </trkpt>
      <trkpt lat="44.74564" lon="5.44831">
        <ele>1195.54</ele>
        <time>2015-10-10T10:26:03Z</time>
      </trkpt>
      <trkpt lat="44.74557" lon="5.44819">
        <ele>1197.94</ele>
        <time>2015-10-10T10:26:15Z</time>
      </trkpt>
      <trkpt lat="44.74546" lon="5.4481">
        <ele>1199.86</ele>
        <time>2015-10-10T10:26:25Z</time>
      </trkpt>
      <trkpt lat="44.7454" lon="5.44802">
        <ele>1202.27</ele>
        <time>2015-10-10T10:26:38Z</time>
      </trkpt>
      <trkpt lat="44.74532" lon="5.44803">
        <ele>1205.63</ele>
        <time>2015-10-10T10:26:49Z</time>
      </trkpt>
      <trkpt lat="44.74526" lon="5.44805">
        <ele>1207.07</ele>
        <time>2015-10-10T10:26:56Z</time>
      </trkpt>
      <trkpt lat="44.74516" lon="5.44801">
        <ele>1209.96</ele>
        <time>2015-10-10T10:27:09Z</time>
      </trkpt>
      <trkpt lat="44.74505" lon="5.448">
        <ele>1212.84</ele>
        <time>2015-10-10T10:27:22Z</time>
      </trkpt>
      <trkpt lat="44.74501" lon="5.44798">
        <ele>1215.72</ele>
        <time>2015-10-10T10:27:34Z</time>
      </trkpt>
      <trkpt lat="44.74492" lon="5.44796">
        <ele>1218.61</ele>
        <time>2015-10-10T10:27:46Z</time>
      </trkpt>
      <trkpt lat="44.74485" lon="5.44799">
        <ele>1220.53</ele>
        <time>2015-10-10T10:27:57Z</time>
      </trkpt>
      <trkpt lat="44.74479" lon="5.44803">
        <ele>1223.42</ele>
        <time>2015-10-10T10:28:09Z</time>
      </trkpt>
      <trkpt lat="44.74476" lon="5.44804">
        <ele>1224.38</ele>
        <time>2015-10-10T10:28:15Z</time>
      </trkpt>
      <trkpt lat="44.74467" lon="5.44812">
        <ele>1226.78</ele>
        <time>2015-10-10T10:28:29Z</time>
      </trkpt>
      <trkpt lat="44.74464" lon="5.44812">
        <ele>1229.18</ele>
        <time>2015-10-10T10:28:41Z</time>
      </trkpt>
      <trkpt lat="44.74464" lon="5.44807">
        <ele>1231.59</ele>
        <time>2015-10-10T10:28:54Z</time>
      </trkpt>
      <trkpt lat="44.74457" lon="5.448">
        <ele>1234.47</ele>
        <time>2015-10-10T10:29:07Z</time>
      </trkpt>
      <trkpt lat="44.74453" lon="5.44798">
        <ele>1236.39</ele>
        <time>2015-10-10T10:29:12Z</time>
      </trkpt>
      <trkpt lat="44.74444" lon="5.44793">
        <ele>1238.8</ele>
        <time>2015-10-10T10:29:20Z</time>
      </trkpt>
      <trkpt lat="44.74435" lon="5.44792">
        <ele>1241.2</ele>
        <time>2015-10-10T10:29:32Z</time>
      </trkpt>
      <trkpt lat="44.74423" lon="5.4479">
        <ele>1243.6</ele>
        <time>2015-10-10T10:29:41Z</time>
      </trkpt>
      <trkpt lat="44.74416" lon="5.44796">
        <ele>1246.01</ele>
        <time>2015-10-10T10:29:52Z</time>
      </trkpt>
      <trkpt lat="44.74411" lon="5.44802">
        <ele>1247.93</ele>
        <time>2015-10-10T10:30:02Z</time>
      </trkpt>
      <trkpt lat="44.74401" lon="5.44808">
        <ele>1251.29</ele>
        <time>2015-10-10T10:30:14Z</time>
      </trkpt>
      <trkpt lat="44.74396" lon="5.44809">
        <ele>1250.33</ele>
        <time>2015-10-10T10:30:19Z</time>
      </trkpt>
      <trkpt lat="44.74387" lon="5.44814">
        <ele>1249.85</ele>
        <time>2015-10-10T10:30:26Z</time>
      </trkpt>
      <trkpt lat="44.74377" lon="5.44819">
        <ele>1250.81</ele>
        <time>2015-10-10T10:30:33Z</time>
      </trkpt>
      <trkpt lat="44.74374" lon="5.4482">
        <ele>1250.33</ele>
        <time>2015-10-10T10:30:35Z</time>
      </trkpt>
      <trkpt lat="44.74368" lon="5.44825">
        <ele>1251.29</ele>
        <time>2015-10-10T10:30:41Z</time>
      </trkpt>
      <trkpt lat="44.74365" lon="5.44827">
        <ele>1250.81</ele>
        <time>2015-10-10T10:30:44Z</time>
      </trkpt>
      <trkpt lat="44.74356" lon="5.4483">
        <ele>1250.33</ele>
        <time>2015-10-10T10:30:50Z</time>
      </trkpt>
      <trkpt lat="44.74354" lon="5.44832">
        <ele>1250.81</ele>
        <time>2015-10-10T10:30:53Z</time>
      </trkpt>
      <trkpt lat="44.7435" lon="5.44835">
        <ele>1251.77</ele>
        <time>2015-10-10T10:30:57Z</time>
      </trkpt>
      <trkpt lat="44.74344" lon="5.4484">
        <ele>1252.25</ele>
        <time>2015-10-10T10:31:06Z</time>
      </trkpt>
      <trkpt lat="44.74334" lon="5.44843">
        <ele>1255.62</ele>
        <time>2015-10-10T10:31:19Z</time>
      </trkpt>
      <trkpt lat="44.7432" lon="5.44843">
        <ele>1258.02</ele>
        <time>2015-10-10T10:31:32Z</time>
      </trkpt>
      <trkpt lat="44.74319" lon="5.44843">
        <ele>1258.02</ele>
        <time>2015-10-10T10:31:33Z</time>
      </trkpt>
      <trkpt lat="44.74316" lon="5.44842">
        <ele>1258.98</ele>
        <time>2015-10-10T10:31:35Z</time>
      </trkpt>
      <trkpt lat="44.74309" lon="5.44839">
        <ele>1257.54</ele>
        <time>2015-10-10T10:31:42Z</time>
      </trkpt>
      <trkpt lat="44.74306" lon="5.44837">
        <ele>1257.54</ele>
        <time>2015-10-10T10:31:45Z</time>
      </trkpt>
      <trkpt lat="44.74304" lon="5.44837">
        <ele>1257.06</ele>
        <time>2015-10-10T10:31:49Z</time>
      </trkpt>
      <trkpt lat="44.74294" lon="5.44833">
        <ele>1258.02</ele>
        <time>2015-10-10T10:31:55Z</time>
      </trkpt>
      <trkpt lat="44.74289" lon="5.44836">
        <ele>1258.5</ele>
        <time>2015-10-10T10:31:59Z</time>
      </trkpt>
      <trkpt lat="44.74276" lon="5.44837">
        <ele>1261.39</ele>
        <time>2015-10-10T10:32:10Z</time>
      </trkpt>
      <trkpt lat="44.74273" lon="5.44839">
        <ele>1261.39</ele>
        <time>2015-10-10T10:32:13Z</time>
      </trkpt>
      <trkpt lat="44.74266" lon="5.44851">
        <ele>1263.79</ele>
        <time>2015-10-10T10:32:20Z</time>
      </trkpt>
      <trkpt lat="44.74261" lon="5.44856">
        <ele>1266.67</ele>
        <time>2015-10-10T10:32:31Z</time>
      </trkpt>
      <trkpt lat="44.74257" lon="5.44859">
        <ele>1268.6</ele>
        <time>2015-10-10T10:32:39Z</time>
      </trkpt>
      <trkpt lat="44.74246" lon="5.44868">
        <ele>1269.08</ele>
        <time>2015-10-10T10:32:52Z</time>
      </trkpt>
      <trkpt lat="44.74235" lon="5.44869">
        <ele>1269.08</ele>
        <time>2015-10-10T10:33:03Z</time>
      </trkpt>
      <trkpt lat="44.74222" lon="5.44868">
        <ele>1271.48</ele>
        <time>2015-10-10T10:33:16Z</time>
      </trkpt>
      <trkpt lat="44.74213" lon="5.44866">
        <ele>1273.88</ele>
        <time>2015-10-10T10:33:27Z</time>
      </trkpt>
      <trkpt lat="44.74203" lon="5.4487">
        <ele>1277.25</ele>
        <time>2015-10-10T10:33:39Z</time>
      </trkpt>
      <trkpt lat="44.74192" lon="5.44875">
        <ele>1279.17</ele>
        <time>2015-10-10T10:33:50Z</time>
      </trkpt>
      <trkpt lat="44.74189" lon="5.44884">
        <ele>1281.57</ele>
        <time>2015-10-10T10:34:00Z</time>
      </trkpt>
      <trkpt lat="44.74192" lon="5.4489">
        <ele>1283.98</ele>
        <time>2015-10-10T10:34:10Z</time>
      </trkpt>
      <trkpt lat="44.74195" lon="5.44895">
        <ele>1286.38</ele>
        <time>2015-10-10T10:34:21Z</time>
      </trkpt>
      <trkpt lat="44.74201" lon="5.44907">
        <ele>1289.27</ele>
        <time>2015-10-10T10:34:34Z</time>
      </trkpt>
      <trkpt lat="44.74207" lon="5.44912">
        <ele>1291.19</ele>
        <time>2015-10-10T10:34:47Z</time>
      </trkpt>
      <trkpt lat="44.74206" lon="5.44919">
        <ele>1293.59</ele>
        <time>2015-10-10T10:34:58Z</time>
      </trkpt>
      <trkpt lat="44.74206" lon="5.44922">
        <ele>1295.03</ele>
        <time>2015-10-10T10:35:01Z</time>
      </trkpt>
      <trkpt lat="44.74209" lon="5.44932">
        <ele>1298.4</ele>
        <time>2015-10-10T10:35:12Z</time>
      </trkpt>
      <trkpt lat="44.74217" lon="5.44934">
        <ele>1300.32</ele>
        <time>2015-10-10T10:35:25Z</time>
      </trkpt>
      <trkpt lat="44.74222" lon="5.44939">
        <ele>1303.69</ele>
        <time>2015-10-10T10:35:37Z</time>
      </trkpt>
      <trkpt lat="44.74229" lon="5.44947">
        <ele>1307.05</ele>
        <time>2015-10-10T10:35:50Z</time>
      </trkpt>
      <trkpt lat="44.74224" lon="5.44952">
        <ele>1308.97</ele>
        <time>2015-10-10T10:36:05Z</time>
      </trkpt>
      <trkpt lat="44.74224" lon="5.44957">
        <ele>1311.38</ele>
        <time>2015-10-10T10:36:13Z</time>
      </trkpt>
      <trkpt lat="44.74228" lon="5.44962">
        <ele>1314.26</ele>
        <time>2015-10-10T10:36:24Z</time>
      </trkpt>
      <trkpt lat="44.74231" lon="5.44965">
        <ele>1316.66</ele>
        <time>2015-10-10T10:36:35Z</time>
      </trkpt>
      <trkpt lat="44.74233" lon="5.44969">
        <ele>1319.07</ele>
        <time>2015-10-10T10:36:46Z</time>
      </trkpt>
      <trkpt lat="44.74237" lon="5.44973">
        <ele>1321.47</ele>
        <time>2015-10-10T10:36:58Z</time>
      </trkpt>
      <trkpt lat="44.7424" lon="5.44975">
        <ele>1323.39</ele>
        <time>2015-10-10T10:37:12Z</time>
      </trkpt>
      <trkpt lat="44.74242" lon="5.44975">
        <ele>1325.8</ele>
        <time>2015-10-10T10:37:28Z</time>
      </trkpt>
      <trkpt lat="44.7425" lon="5.44987">
        <ele>1328.2</ele>
        <time>2015-10-10T10:37:40Z</time>
      </trkpt>
      <trkpt lat="44.7426" lon="5.44991">
        <ele>1331.56</ele>
        <time>2015-10-10T10:37:54Z</time>
      </trkpt>
      <trkpt lat="44.74264" lon="5.44998">
        <ele>1334.45</ele>
        <time>2015-10-10T10:38:05Z</time>
      </trkpt>
      <trkpt lat="44.74268" lon="5.45002">
        <ele>1337.33</ele>
        <time>2015-10-10T10:38:17Z</time>
      </trkpt>
      <trkpt lat="44.74266" lon="5.45009">
        <ele>1340.22</ele>
        <time>2015-10-10T10:38:29Z</time>
      </trkpt>
      <trkpt lat="44.74269" lon="5.45014">
        <ele>1342.62</ele>
        <time>2015-10-10T10:38:41Z</time>
      </trkpt>
      <trkpt lat="44.74268" lon="5.45018">
        <ele>1345.02</ele>
        <time>2015-10-10T10:38:53Z</time>
      </trkpt>
      <trkpt lat="44.74265" lon="5.45021">
        <ele>1347.43</ele>
        <time>2015-10-10T10:39:06Z</time>
      </trkpt>
      <trkpt lat="44.7426" lon="5.45019">
        <ele>1350.31</ele>
        <time>2015-10-10T10:39:17Z</time>
      </trkpt>
      <trkpt lat="44.74252" lon="5.4502">
        <ele>1351.75</ele>
        <time>2015-10-10T10:39:28Z</time>
      </trkpt>
      <trkpt lat="44.74244" lon="5.45022">
        <ele>1354.63</ele>
        <time>2015-10-10T10:39:40Z</time>
      </trkpt>
      <trkpt lat="44.74238" lon="5.45025">
        <ele>1356.56</ele>
        <time>2015-10-10T10:39:49Z</time>
      </trkpt>
      <trkpt lat="44.7423" lon="5.45029">
        <ele>1359.44</ele>
        <time>2015-10-10T10:40:00Z</time>
      </trkpt>
      <trkpt lat="44.74229" lon="5.4503">
        <ele>1359.92</ele>
        <time>2015-10-10T10:40:02Z</time>
      </trkpt>
      <trkpt lat="44.74232" lon="5.45034">
        <ele>1361.84</ele>
        <time>2015-10-10T10:40:11Z</time>
      </trkpt>
      <trkpt lat="44.74227" lon="5.45038">
        <ele>1363.29</ele>
        <time>2015-10-10T10:40:22Z</time>
      </trkpt>
      <trkpt lat="44.74225" lon="5.4504">
        <ele>1364.25</ele>
        <time>2015-10-10T10:40:33Z</time>
      </trkpt>
      <trkpt lat="44.74225" lon="5.4504">
        <ele>1363.77</ele>
        <time>2015-10-10T10:40:50Z</time>
      </trkpt>
      <trkpt lat="44.74225" lon="5.45041">
        <ele>1363.77</ele>
        <time>2015-10-10T10:41:14Z</time>
      </trkpt>
      <trkpt lat="44.74224" lon="5.45041">
        <ele>1362.81</ele>
        <time>2015-10-10T10:41:39Z</time>
      </trkpt>
      <trkpt lat="44.74225" lon="5.4504">
        <ele>1363.29</ele>
        <time>2015-10-10T10:41:53Z</time>
      </trkpt>
      <trkpt lat="44.74225" lon="5.4504">
        <ele>1363.29</ele>
        <time>2015-10-10T10:42:00Z</time>
      </trkpt>
      <trkpt lat="44.74227" lon="5.4504">
        <ele>1363.29</ele>
        <time>2015-10-10T10:42:03Z</time>
      </trkpt>
      <trkpt lat="44.74236" lon="5.45047">
        <ele>1366.17</ele>
        <time>2015-10-10T10:42:16Z</time>
      </trkpt>
      <trkpt lat="44.74245" lon="5.45052">
        <ele>1369.05</ele>
        <time>2015-10-10T10:42:29Z</time>
      </trkpt>
      <trkpt lat="44.74252" lon="5.45057">
        <ele>1370.98</ele>
        <time>2015-10-10T10:42:39Z</time>
      </trkpt>
      <trkpt lat="44.74257" lon="5.45058">
        <ele>1370.98</ele>
        <time>2015-10-10T10:42:43Z</time>
      </trkpt>
      <trkpt lat="44.74265" lon="5.45065">
        <ele>1372.42</ele>
        <time>2015-10-10T10:42:53Z</time>
      </trkpt>
      <trkpt lat="44.7428" lon="5.45072">
        <ele>1373.86</ele>
        <time>2015-10-10T10:43:07Z</time>
      </trkpt>
      <trkpt lat="44.74284" lon="5.45076">
        <ele>1375.3</ele>
        <time>2015-10-10T10:43:13Z</time>
      </trkpt>
      <trkpt lat="44.7429" lon="5.45078">
        <ele>1375.78</ele>
        <time>2015-10-10T10:43:19Z</time>
      </trkpt>
      <trkpt lat="44.74296" lon="5.45084">
        <ele>1378.67</ele>
        <time>2015-10-10T10:43:31Z</time>
      </trkpt>
      <trkpt lat="44.743" lon="5.45092">
        <ele>1381.55</ele>
        <time>2015-10-10T10:43:44Z</time>
      </trkpt>
      <trkpt lat="44.74306" lon="5.45097">
        <ele>1383.47</ele>
        <time>2015-10-10T10:43:54Z</time>
      </trkpt>
      <trkpt lat="44.74307" lon="5.45097">
        <ele>1383.47</ele>
        <time>2015-10-10T10:43:55Z</time>
      </trkpt>
      <trkpt lat="44.7431" lon="5.45096">
        <ele>1383.47</ele>
        <time>2015-10-10T10:43:58Z</time>
      </trkpt>
      <trkpt lat="44.74321" lon="5.45096">
        <ele>1382.03</ele>
        <time>2015-10-10T10:44:07Z</time>
      </trkpt>
      <trkpt lat="44.74325" lon="5.45097">
        <ele>1382.51</ele>
        <time>2015-10-10T10:44:11Z</time>
      </trkpt>
      <trkpt lat="44.74328" lon="5.45098">
        <ele>1382.99</ele>
        <time>2015-10-10T10:44:14Z</time>
      </trkpt>
      <trkpt lat="44.74332" lon="5.45101">
        <ele>1383.96</ele>
        <time>2015-10-10T10:44:19Z</time>
      </trkpt>
      <trkpt lat="44.74336" lon="5.45103">
        <ele>1384.92</ele>
        <time>2015-10-10T10:44:24Z</time>
      </trkpt>
      <trkpt lat="44.74338" lon="5.45105">
        <ele>1384.44</ele>
        <time>2015-10-10T10:44:26Z</time>
      </trkpt>
      <trkpt lat="44.74347" lon="5.45116">
        <ele>1386.84</ele>
        <time>2015-10-10T10:44:39Z</time>
      </trkpt>
      <trkpt lat="44.74351" lon="5.45124">
        <ele>1390.2</ele>
        <time>2015-10-10T10:44:49Z</time>
      </trkpt>
      <trkpt lat="44.74352" lon="5.45131">
        <ele>1392.61</ele>
        <time>2015-10-10T10:44:58Z</time>
      </trkpt>
      <trkpt lat="44.74351" lon="5.45138">
        <ele>1395.01</ele>
        <time>2015-10-10T10:45:08Z</time>
      </trkpt>
      <trkpt lat="44.74348" lon="5.45144">
        <ele>1398.37</ele>
        <time>2015-10-10T10:45:21Z</time>
      </trkpt>
      <trkpt lat="44.74347" lon="5.45152">
        <ele>1399.82</ele>
        <time>2015-10-10T10:45:30Z</time>
      </trkpt>
      <trkpt lat="44.74349" lon="5.45154">
        <ele>1401.26</ele>
        <time>2015-10-10T10:45:34Z</time>
      </trkpt>
      <trkpt lat="44.74349" lon="5.4516">
        <ele>1403.18</ele>
        <time>2015-10-10T10:45:45Z</time>
      </trkpt>
      <trkpt lat="44.74345" lon="5.45164">
        <ele>1405.58</ele>
        <time>2015-10-10T10:45:56Z</time>
      </trkpt>
      <trkpt lat="44.74345" lon="5.45165">
        <ele>1406.55</ele>
        <time>2015-10-10T10:45:57Z</time>
      </trkpt>
      <trkpt lat="44.74342" lon="5.45166">
        <ele>1407.03</ele>
        <time>2015-10-10T10:46:00Z</time>
      </trkpt>
      <trkpt lat="44.74333" lon="5.45166">
        <ele>1409.43</ele>
        <time>2015-10-10T10:46:13Z</time>
      </trkpt>
      <trkpt lat="44.74324" lon="5.45171">
        <ele>1411.83</ele>
        <time>2015-10-10T10:46:25Z</time>
      </trkpt>
      <trkpt lat="44.74316" lon="5.45179">
        <ele>1414.72</ele>
        <time>2015-10-10T10:46:39Z</time>
      </trkpt>
      <trkpt lat="44.74315" lon="5.45187">
        <ele>1417.6</ele>
        <time>2015-10-10T10:46:51Z</time>
      </trkpt>
      <trkpt lat="44.74313" lon="5.45191">
        <ele>1420</ele>
        <time>2015-10-10T10:47:02Z</time>
      </trkpt>
      <trkpt lat="44.74318" lon="5.45199">
        <ele>1421.93</ele>
        <time>2015-10-10T10:47:12Z</time>
      </trkpt>
      <trkpt lat="44.74325" lon="5.45207">
        <ele>1424.33</ele>
        <time>2015-10-10T10:47:24Z</time>
      </trkpt>
      <trkpt lat="44.74333" lon="5.45217">
        <ele>1426.73</ele>
        <time>2015-10-10T10:47:35Z</time>
      </trkpt>
      <trkpt lat="44.74334" lon="5.4522">
        <ele>1427.7</ele>
        <time>2015-10-10T10:47:38Z</time>
      </trkpt>
      <trkpt lat="44.7434" lon="5.45228">
        <ele>1429.62</ele>
        <time>2015-10-10T10:47:50Z</time>
      </trkpt>
      <trkpt lat="44.74345" lon="5.45233">
        <ele>1431.54</ele>
        <time>2015-10-10T10:48:01Z</time>
      </trkpt>
      <trkpt lat="44.74354" lon="5.45242">
        <ele>1434.91</ele>
        <time>2015-10-10T10:48:14Z</time>
      </trkpt>
      <trkpt lat="44.74361" lon="5.45246">
        <ele>1436.83</ele>
        <time>2015-10-10T10:48:26Z</time>
      </trkpt>
      <trkpt lat="44.7437" lon="5.45249">
        <ele>1439.23</ele>
        <time>2015-10-10T10:48:38Z</time>
      </trkpt>
      <trkpt lat="44.74375" lon="5.45252">
        <ele>1440.19</ele>
        <time>2015-10-10T10:48:43Z</time>
      </trkpt>
      <trkpt lat="44.74385" lon="5.45256">
        <ele>1442.11</ele>
        <time>2015-10-10T10:48:53Z</time>
      </trkpt>
      <trkpt lat="44.74385" lon="5.45265">
        <ele>1445</ele>
        <time>2015-10-10T10:49:07Z</time>
      </trkpt>
      <trkpt lat="44.74384" lon="5.45271">
        <ele>1447.88</ele>
        <time>2015-10-10T10:49:19Z</time>
      </trkpt>
      <trkpt lat="44.74384" lon="5.45279">
        <ele>1450.29</ele>
        <time>2015-10-10T10:49:30Z</time>
      </trkpt>
      <trkpt lat="44.74382" lon="5.45286">
        <ele>1452.21</ele>
        <time>2015-10-10T10:49:40Z</time>
      </trkpt>
      <trkpt lat="44.74382" lon="5.45287">
        <ele>1452.69</ele>
        <time>2015-10-10T10:49:41Z</time>
      </trkpt>
      <trkpt lat="44.74377" lon="5.45296">
        <ele>1455.09</ele>
        <time>2015-10-10T10:49:54Z</time>
      </trkpt>
      <trkpt lat="44.74373" lon="5.45305">
        <ele>1457.5</ele>
        <time>2015-10-10T10:50:03Z</time>
      </trkpt>
      <trkpt lat="44.74369" lon="5.4531">
        <ele>1459.42</ele>
        <time>2015-10-10T10:50:15Z</time>
      </trkpt>
      <trkpt lat="44.74362" lon="5.45315">
        <ele>1461.82</ele>
        <time>2015-10-10T10:50:25Z</time>
      </trkpt>
      <trkpt lat="44.74354" lon="5.45319">
        <ele>1462.78</ele>
        <time>2015-10-10T10:50:33Z</time>
      </trkpt>
      <trkpt lat="44.74351" lon="5.45318">
        <ele>1463.74</ele>
        <time>2015-10-10T10:50:36Z</time>
      </trkpt>
      <trkpt lat="44.74341" lon="5.45323">
        <ele>1466.15</ele>
        <time>2015-10-10T10:50:48Z</time>
      </trkpt>
      <trkpt lat="44.74336" lon="5.45329">
        <ele>1469.51</ele>
        <time>2015-10-10T10:50:59Z</time>
      </trkpt>
      <trkpt lat="44.74329" lon="5.45333">
        <ele>1470.95</ele>
        <time>2015-10-10T10:51:10Z</time>
      </trkpt>
      <trkpt lat="44.74323" lon="5.45337">
        <ele>1473.84</ele>
        <time>2015-10-10T10:51:22Z</time>
      </trkpt>
      <trkpt lat="44.74318" lon="5.45341">
        <ele>1475.28</ele>
        <time>2015-10-10T10:51:32Z</time>
      </trkpt>
      <trkpt lat="44.74319" lon="5.45347">
        <ele>1476.72</ele>
        <time>2015-10-10T10:51:44Z</time>
      </trkpt>
      <trkpt lat="44.74324" lon="5.45356">
        <ele>1480.09</ele>
        <time>2015-10-10T10:51:56Z</time>
      </trkpt>
      <trkpt lat="44.74331" lon="5.45365">
        <ele>1482.49</ele>
        <time>2015-10-10T10:52:09Z</time>
      </trkpt>
      <trkpt lat="44.7434" lon="5.45373">
        <ele>1485.37</ele>
        <time>2015-10-10T10:52:22Z</time>
      </trkpt>
      <trkpt lat="44.74344" lon="5.45378">
        <ele>1487.78</ele>
        <time>2015-10-10T10:52:35Z</time>
      </trkpt>
      <trkpt lat="44.7435" lon="5.45387">
        <ele>1490.18</ele>
        <time>2015-10-10T10:52:46Z</time>
      </trkpt>
      <trkpt lat="44.74351" lon="5.45394">
        <ele>1493.06</ele>
        <time>2015-10-10T10:52:58Z</time>
      </trkpt>
      <trkpt lat="44.74351" lon="5.45405">
        <ele>1495.47</ele>
        <time>2015-10-10T10:53:10Z</time>
      </trkpt>
      <trkpt lat="44.74345" lon="5.45418">
        <ele>1497.39</ele>
        <time>2015-10-10T10:53:25Z</time>
      </trkpt>
      <trkpt lat="44.74344" lon="5.45418">
        <ele>1496.91</ele>
        <time>2015-10-10T10:53:29Z</time>
      </trkpt>
      <trkpt lat="44.74337" lon="5.45422">
        <ele>1495.47</ele>
        <time>2015-10-10T10:53:40Z</time>
      </trkpt>
      <trkpt lat="44.74337" lon="5.45422">
        <ele>1495.47</ele>
        <time>2015-10-10T10:53:54Z</time>
      </trkpt>
      <trkpt lat="44.74336" lon="5.45423">
        <ele>1494.99</ele>
        <time>2015-10-10T10:54:21Z</time>
      </trkpt>
      <trkpt lat="44.74336" lon="5.45422">
        <ele>1495.47</ele>
        <time>2015-10-10T10:54:54Z</time>
      </trkpt>
      <trkpt lat="44.74337" lon="5.45422">
        <ele>1495.47</ele>
        <time>2015-10-10T10:55:17Z</time>
      </trkpt>
      <trkpt lat="44.74337" lon="5.45422">
        <ele>1495.47</ele>
        <time>2015-10-10T10:55:42Z</time>
      </trkpt>
      <trkpt lat="44.74337" lon="5.45422">
        <ele>1494.99</ele>
        <time>2015-10-10T10:55:49Z</time>
      </trkpt>
      <trkpt lat="44.74344" lon="5.45419">
        <ele>1497.87</ele>
        <time>2015-10-10T10:56:00Z</time>
      </trkpt>
      <trkpt lat="44.74345" lon="5.45418">
        <ele>1497.39</ele>
        <time>2015-10-10T10:56:02Z</time>
      </trkpt>
      <trkpt lat="44.74351" lon="5.45418">
        <ele>1498.83</ele>
        <time>2015-10-10T10:56:13Z</time>
      </trkpt>
      <trkpt lat="44.74354" lon="5.45421">
        <ele>1502.2</ele>
        <time>2015-10-10T10:56:24Z</time>
      </trkpt>
      <trkpt lat="44.74355" lon="5.45426">
        <ele>1504.6</ele>
        <time>2015-10-10T10:56:35Z</time>
      </trkpt>
      <trkpt lat="44.74356" lon="5.45433">
        <ele>1506.04</ele>
        <time>2015-10-10T10:56:48Z</time>
      </trkpt>
      <trkpt lat="44.74359" lon="5.45438">
        <ele>1507</ele>
        <time>2015-10-10T10:57:09Z</time>
      </trkpt>
      <trkpt lat="44.74365" lon="5.4544">
        <ele>1509.89</ele>
        <time>2015-10-10T10:57:22Z</time>
      </trkpt>
      <trkpt lat="44.7437" lon="5.45447">
        <ele>1512.77</ele>
        <time>2015-10-10T10:57:33Z</time>
      </trkpt>
      <trkpt lat="44.7437" lon="5.45452">
        <ele>1515.18</ele>
        <time>2015-10-10T10:57:45Z</time>
      </trkpt>
      <trkpt lat="44.74369" lon="5.45458">
        <ele>1518.54</ele>
        <time>2015-10-10T10:57:58Z</time>
      </trkpt>
      <trkpt lat="44.74369" lon="5.45464">
        <ele>1520.94</ele>
        <time>2015-10-10T10:58:12Z</time>
      </trkpt>
      <trkpt lat="44.7437" lon="5.45468">
        <ele>1522.39</ele>
        <time>2015-10-10T10:58:25Z</time>
      </trkpt>
      <trkpt lat="44.74372" lon="5.45476">
        <ele>1525.27</ele>
        <time>2015-10-10T10:58:34Z</time>
      </trkpt>
      <trkpt lat="44.74372" lon="5.45481">
        <ele>1526.71</ele>
        <time>2015-10-10T10:58:39Z</time>
      </trkpt>
      <trkpt lat="44.74371" lon="5.45484">
        <ele>1526.71</ele>
        <time>2015-10-10T10:58:41Z</time>
      </trkpt>
      <trkpt lat="44.74372" lon="5.45487">
        <ele>1528.15</ele>
        <time>2015-10-10T10:58:44Z</time>
      </trkpt>
      <trkpt lat="44.74372" lon="5.45489">
        <ele>1528.63</ele>
        <time>2015-10-10T10:58:53Z</time>
      </trkpt>
      <trkpt lat="44.74373" lon="5.4549">
        <ele>1528.15</ele>
        <time>2015-10-10T10:59:02Z</time>
      </trkpt>
      <trkpt lat="44.74373" lon="5.45492">
        <ele>1528.15</ele>
        <time>2015-10-10T10:59:14Z</time>
      </trkpt>
      <trkpt lat="44.74373" lon="5.45492">
        <ele>1527.19</ele>
        <time>2015-10-10T10:59:16Z</time>
      </trkpt>
      <trkpt lat="44.74371" lon="5.45498">
        <ele>1527.67</ele>
        <time>2015-10-10T10:59:27Z</time>
      </trkpt>
      <trkpt lat="44.74369" lon="5.45502">
        <ele>1528.15</ele>
        <time>2015-10-10T10:59:46Z</time>
      </trkpt>
      <trkpt lat="44.74369" lon="5.45504">
        <ele>1527.67</ele>
        <time>2015-10-10T11:00:07Z</time>
      </trkpt>
      <trkpt lat="44.74369" lon="5.45504">
        <ele>1527.67</ele>
        <time>2015-10-10T11:00:21Z</time>
      </trkpt>
      <trkpt lat="44.74369" lon="5.45504">
        <ele>1527.67</ele>
        <time>2015-10-10T11:00:40Z</time>
      </trkpt>
      <trkpt lat="44.7437" lon="5.45505">
        <ele>1527.67</ele>
        <time>2015-10-10T11:00:52Z</time>
      </trkpt>
      <trkpt lat="44.74368" lon="5.45496">
        <ele>1527.19</ele>
        <time>2015-10-10T11:01:01Z</time>
      </trkpt>
      <trkpt lat="44.74365" lon="5.45495">
        <ele>1526.71</ele>
        <time>2015-10-10T11:01:13Z</time>
      </trkpt>
      <trkpt lat="44.74364" lon="5.45496">
        <ele>1526.71</ele>
        <time>2015-10-10T11:01:34Z</time>
      </trkpt>
      <trkpt lat="44.74365" lon="5.45495">
        <ele>1526.71</ele>
        <time>2015-10-10T11:01:58Z</time>
      </trkpt>
      <trkpt lat="44.74365" lon="5.45496">
        <ele>1527.19</ele>
        <time>2015-10-10T11:02:18Z</time>
      </trkpt>
      <trkpt lat="44.74365" lon="5.45494">
        <ele>1527.19</ele>
        <time>2015-10-10T11:02:35Z</time>
      </trkpt>
      <trkpt lat="44.74364" lon="5.45493">
        <ele>1525.75</ele>
        <time>2015-10-10T11:02:41Z</time>
      </trkpt>
      <trkpt lat="44.74363" lon="5.45492">
        <ele>1524.79</ele>
        <time>2015-10-10T11:02:43Z</time>
      </trkpt>
      <trkpt lat="44.74363" lon="5.45494">
        <ele>1524.31</ele>
        <time>2015-10-10T11:02:45Z</time>
      </trkpt>
      <trkpt lat="44.7436" lon="5.45495">
        <ele>1524.79</ele>
        <time>2015-10-10T11:02:55Z</time>
      </trkpt>
      <trkpt lat="44.74361" lon="5.45496">
        <ele>1525.27</ele>
        <time>2015-10-10T11:03:13Z</time>
      </trkpt>
      <trkpt lat="44.74361" lon="5.45495">
        <ele>1524.79</ele>
        <time>2015-10-10T11:03:28Z</time>
      </trkpt>
      <trkpt lat="44.7436" lon="5.45496">
        <ele>1524.31</ele>
        <time>2015-10-10T11:03:46Z</time>
      </trkpt>
      <trkpt lat="44.74361" lon="5.45495">
        <ele>1524.79</ele>
        <time>2015-10-10T11:03:53Z</time>
      </trkpt>
      <trkpt lat="44.74365" lon="5.45495">
        <ele>1526.23</ele>
        <time>2015-10-10T11:04:05Z</time>
      </trkpt>
      <trkpt lat="44.74369" lon="5.45497">
        <ele>1527.19</ele>
        <time>2015-10-10T11:04:10Z</time>
      </trkpt>
      <trkpt lat="44.74372" lon="5.45498">
        <ele>1527.67</ele>
        <time>2015-10-10T11:04:12Z</time>
      </trkpt>
      <trkpt lat="44.74373" lon="5.45497">
        <ele>1528.15</ele>
        <time>2015-10-10T11:04:14Z</time>
      </trkpt>
      <trkpt lat="44.74376" lon="5.45493">
        <ele>1527.67</ele>
        <time>2015-10-10T11:04:18Z</time>
      </trkpt>
      <trkpt lat="44.74378" lon="5.45492">
        <ele>1528.15</ele>
        <time>2015-10-10T11:04:27Z</time>
      </trkpt>
      <trkpt lat="44.74378" lon="5.45492">
        <ele>1528.15</ele>
        <time>2015-10-10T11:04:31Z</time>
      </trkpt>
      <trkpt lat="44.74375" lon="5.45504">
        <ele>1524.79</ele>
        <time>2015-10-10T11:04:44Z</time>
      </trkpt>
      <trkpt lat="44.74373" lon="5.45506">
        <ele>1523.83</ele>
        <time>2015-10-10T11:04:57Z</time>
      </trkpt>
      <trkpt lat="44.74373" lon="5.45508">
        <ele>1522.87</ele>
        <time>2015-10-10T11:04:59Z</time>
      </trkpt>
      <trkpt lat="44.74373" lon="5.45517">
        <ele>1520.46</ele>
        <time>2015-10-10T11:05:06Z</time>
      </trkpt>
      <trkpt lat="44.74376" lon="5.45533">
        <ele>1517.58</ele>
        <time>2015-10-10T11:05:16Z</time>
      </trkpt>
      <trkpt lat="44.74374" lon="5.45546">
        <ele>1515.66</ele>
        <time>2015-10-10T11:05:23Z</time>
      </trkpt>
      <trkpt lat="44.74373" lon="5.4555">
        <ele>1515.66</ele>
        <time>2015-10-10T11:05:25Z</time>
      </trkpt>
      <trkpt lat="44.74366" lon="5.45568">
        <ele>1515.66</ele>
        <time>2015-10-10T11:05:37Z</time>
      </trkpt>
      <trkpt lat="44.74365" lon="5.45572">
        <ele>1515.66</ele>
        <time>2015-10-10T11:05:48Z</time>
      </trkpt>
      <trkpt lat="44.74365" lon="5.45573">
        <ele>1515.18</ele>
        <time>2015-10-10T11:06:01Z</time>
      </trkpt>
      <trkpt lat="44.74365" lon="5.45574">
        <ele>1515.66</ele>
        <time>2015-10-10T11:06:27Z</time>
      </trkpt>
      <trkpt lat="44.74363" lon="5.45581">
        <ele>1516.62</ele>
        <time>2015-10-10T11:06:39Z</time>
      </trkpt>
      <trkpt lat="44.74362" lon="5.45582">
        <ele>1516.62</ele>
        <time>2015-10-10T11:06:43Z</time>
      </trkpt>
      <trkpt lat="44.74361" lon="5.45585">
        <ele>1516.62</ele>
        <time>2015-10-10T11:06:46Z</time>
      </trkpt>
      <trkpt lat="44.74353" lon="5.45592">
        <ele>1515.66</ele>
        <time>2015-10-10T11:06:59Z</time>
      </trkpt>
      <trkpt lat="44.74353" lon="5.45592">
        <ele>1515.66</ele>
        <time>2015-10-10T11:07:04Z</time>
      </trkpt>
      <trkpt lat="44.74348" lon="5.45603">
        <ele>1515.18</ele>
        <time>2015-10-10T11:07:13Z</time>
      </trkpt>
      <trkpt lat="44.74346" lon="5.45604">
        <ele>1515.18</ele>
        <time>2015-10-10T11:07:16Z</time>
      </trkpt>
      <trkpt lat="44.74344" lon="5.45607">
        <ele>1515.18</ele>
        <time>2015-10-10T11:07:18Z</time>
      </trkpt>
      <trkpt lat="44.74339" lon="5.4561">
        <ele>1514.21</ele>
        <time>2015-10-10T11:07:23Z</time>
      </trkpt>
      <trkpt lat="44.74337" lon="5.4561">
        <ele>1513.73</ele>
        <time>2015-10-10T11:07:25Z</time>
      </trkpt>
      <trkpt lat="44.74334" lon="5.45611">
        <ele>1512.77</ele>
        <time>2015-10-10T11:07:28Z</time>
      </trkpt>
      <trkpt lat="44.74329" lon="5.45615">
        <ele>1511.33</ele>
        <time>2015-10-10T11:07:33Z</time>
      </trkpt>
      <trkpt lat="44.74318" lon="5.45624">
        <ele>1509.41</ele>
        <time>2015-10-10T11:07:44Z</time>
      </trkpt>
      <trkpt lat="44.74316" lon="5.45626">
        <ele>1509.41</ele>
        <time>2015-10-10T11:07:46Z</time>
      </trkpt>
      <trkpt lat="44.74311" lon="5.4563">
        <ele>1508.93</ele>
        <time>2015-10-10T11:07:50Z</time>
      </trkpt>
      <trkpt lat="44.74309" lon="5.45634">
        <ele>1508.45</ele>
        <time>2015-10-10T11:07:52Z</time>
      </trkpt>
      <trkpt lat="44.74307" lon="5.45637">
        <ele>1508.93</ele>
        <time>2015-10-10T11:07:54Z</time>
      </trkpt>
      <trkpt lat="44.74298" lon="5.45653">
        <ele>1506.04</ele>
        <time>2015-10-10T11:08:05Z</time>
      </trkpt>
      <trkpt lat="44.74294" lon="5.45657">
        <ele>1504.6</ele>
        <time>2015-10-10T11:08:10Z</time>
      </trkpt>
      <trkpt lat="44.74291" lon="5.45662">
        <ele>1503.64</ele>
        <time>2015-10-10T11:08:16Z</time>
      </trkpt>
      <trkpt lat="44.7429" lon="5.45665">
        <ele>1504.12</ele>
        <time>2015-10-10T11:08:19Z</time>
      </trkpt>
      <trkpt lat="44.74282" lon="5.45677">
        <ele>1502.68</ele>
        <time>2015-10-10T11:08:33Z</time>
      </trkpt>
      <trkpt lat="44.74279" lon="5.45677">
        <ele>1502.2</ele>
        <time>2015-10-10T11:08:48Z</time>
      </trkpt>
      <trkpt lat="44.74278" lon="5.45676">
        <ele>1502.2</ele>
        <time>2015-10-10T11:09:06Z</time>
      </trkpt>
      <trkpt lat="44.74278" lon="5.45677">
        <ele>1502.68</ele>
        <time>2015-10-10T11:09:34Z</time>
      </trkpt>
      <trkpt lat="44.74279" lon="5.45678">
        <ele>1502.2</ele>
        <time>2015-10-10T11:10:04Z</time>
      </trkpt>
      <trkpt lat="44.74278" lon="5.45677">
        <ele>1502.68</ele>
        <time>2015-10-10T11:10:34Z</time>
      </trkpt>
      <trkpt lat="44.74278" lon="5.45678">
        <ele>1503.16</ele>
        <time>2015-10-10T11:10:38Z</time>
      </trkpt>
      <trkpt lat="44.74274" lon="5.45682">
        <ele>1501.72</ele>
        <time>2015-10-10T11:10:48Z</time>
      </trkpt>
      <trkpt lat="44.74271" lon="5.45683">
        <ele>1500.76</ele>
        <time>2015-10-10T11:10:52Z</time>
      </trkpt>
      <trkpt lat="44.74263" lon="5.45683">
        <ele>1499.31</ele>
        <time>2015-10-10T11:11:01Z</time>
      </trkpt>
      <trkpt lat="44.74254" lon="5.45674">
        <ele>1496.91</ele>
        <time>2015-10-10T11:11:10Z</time>
      </trkpt>
      <trkpt lat="44.74251" lon="5.45677">
        <ele>1496.43</ele>
        <time>2015-10-10T11:11:12Z</time>
      </trkpt>
      <trkpt lat="44.74249" lon="5.45678">
        <ele>1495.95</ele>
        <time>2015-10-10T11:11:14Z</time>
      </trkpt>
      <trkpt lat="44.74241" lon="5.45688">
        <ele>1494.99</ele>
        <time>2015-10-10T11:11:21Z</time>
      </trkpt>
      <trkpt lat="44.7423" lon="5.45702">
        <ele>1493.55</ele>
        <time>2015-10-10T11:11:30Z</time>
      </trkpt>
      <trkpt lat="44.74227" lon="5.45706">
        <ele>1493.06</ele>
        <time>2015-10-10T11:11:33Z</time>
      </trkpt>
      <trkpt lat="44.74214" lon="5.45718">
        <ele>1492.1</ele>
        <time>2015-10-10T11:11:45Z</time>
      </trkpt>
      <trkpt lat="44.74205" lon="5.45725">
        <ele>1490.66</ele>
        <time>2015-10-10T11:11:54Z</time>
      </trkpt>
      <trkpt lat="44.74201" lon="5.4573">
        <ele>1489.7</ele>
        <time>2015-10-10T11:11:58Z</time>
      </trkpt>
      <trkpt lat="44.74196" lon="5.45738">
        <ele>1489.22</ele>
        <time>2015-10-10T11:12:02Z</time>
      </trkpt>
      <trkpt lat="44.74189" lon="5.4574">
        <ele>1487.78</ele>
        <time>2015-10-10T11:12:08Z</time>
      </trkpt>
      <trkpt lat="44.74184" lon="5.45743">
        <ele>1486.82</ele>
        <time>2015-10-10T11:12:12Z</time>
      </trkpt>
      <trkpt lat="44.74179" lon="5.45744">
        <ele>1486.82</ele>
        <time>2015-10-10T11:12:16Z</time>
      </trkpt>
      <trkpt lat="44.74173" lon="5.45739">
        <ele>1486.34</ele>
        <time>2015-10-10T11:12:23Z</time>
      </trkpt>
      <trkpt lat="44.74168" lon="5.45739">
        <ele>1485.85</ele>
        <time>2015-10-10T11:12:28Z</time>
      </trkpt>
      <trkpt lat="44.74153" lon="5.45736">
        <ele>1483.93</ele>
        <time>2015-10-10T11:12:39Z</time>
      </trkpt>
      <trkpt lat="44.74148" lon="5.45736">
        <ele>1483.93</ele>
        <time>2015-10-10T11:12:43Z</time>
      </trkpt>
      <trkpt lat="44.74137" lon="5.45737">
        <ele>1482.49</ele>
        <time>2015-10-10T11:12:50Z</time>
      </trkpt>
      <trkpt lat="44.74134" lon="5.45737">
        <ele>1482.01</ele>
        <time>2015-10-10T11:12:52Z</time>
      </trkpt>
      <trkpt lat="44.7413" lon="5.45737">
        <ele>1480.57</ele>
        <time>2015-10-10T11:12:55Z</time>
      </trkpt>
      <trkpt lat="44.74126" lon="5.45737">
        <ele>1479.13</ele>
        <time>2015-10-10T11:13:04Z</time>
      </trkpt>
      <trkpt lat="44.74124" lon="5.45732">
        <ele>1479.13</ele>
        <time>2015-10-10T11:13:07Z</time>
      </trkpt>
      <trkpt lat="44.74109" lon="5.45743">
        <ele>1479.13</ele>
        <time>2015-10-10T11:13:20Z</time>
      </trkpt>
      <trkpt lat="44.74108" lon="5.45738">
        <ele>1479.13</ele>
        <time>2015-10-10T11:13:33Z</time>
      </trkpt>
      <trkpt lat="44.74107" lon="5.45736">
        <ele>1478.65</ele>
        <time>2015-10-10T11:13:57Z</time>
      </trkpt>
      <trkpt lat="44.74107" lon="5.45736">
        <ele>1478.65</ele>
        <time>2015-10-10T11:14:18Z</time>
      </trkpt>
      <trkpt lat="44.74106" lon="5.45736">
        <ele>1478.65</ele>
        <time>2015-10-10T11:14:36Z</time>
      </trkpt>
      <trkpt lat="44.74107" lon="5.45735">
        <ele>1478.16</ele>
        <time>2015-10-10T11:14:56Z</time>
      </trkpt>
      <trkpt lat="44.74107" lon="5.45735">
        <ele>1478.65</ele>
        <time>2015-10-10T11:15:17Z</time>
      </trkpt>
      <trkpt lat="44.74107" lon="5.45735">
        <ele>1477.2</ele>
        <time>2015-10-10T11:15:20Z</time>
      </trkpt>
      <trkpt lat="44.74106" lon="5.45733">
        <ele>1475.28</ele>
        <time>2015-10-10T11:15:34Z</time>
      </trkpt>
      <trkpt lat="44.74106" lon="5.45734">
        <ele>1476.72</ele>
        <time>2015-10-10T11:15:56Z</time>
      </trkpt>
      <trkpt lat="44.74105" lon="5.45736">
        <ele>1477.68</ele>
        <time>2015-10-10T11:15:58Z</time>
      </trkpt>
      <trkpt lat="44.74105" lon="5.45737">
        <ele>1478.16</ele>
        <time>2015-10-10T11:15:59Z</time>
      </trkpt>
      <trkpt lat="44.74101" lon="5.45736">
        <ele>1477.2</ele>
        <time>2015-10-10T11:16:03Z</time>
      </trkpt>
      <trkpt lat="44.74087" lon="5.45746">
        <ele>1475.76</ele>
        <time>2015-10-10T11:16:15Z</time>
      </trkpt>
      <trkpt lat="44.74081" lon="5.45749">
        <ele>1476.72</ele>
        <time>2015-10-10T11:16:22Z</time>
      </trkpt>
      <trkpt lat="44.74075" lon="5.45752">
        <ele>1476.24</ele>
        <time>2015-10-10T11:16:34Z</time>
      </trkpt>
      <trkpt lat="44.74073" lon="5.45751">
        <ele>1475.28</ele>
        <time>2015-10-10T11:16:37Z</time>
      </trkpt>
      <trkpt lat="44.74069" lon="5.45752">
        <ele>1474.8</ele>
        <time>2015-10-10T11:16:40Z</time>
      </trkpt>
      <trkpt lat="44.74053" lon="5.45745">
        <ele>1474.32</ele>
        <time>2015-10-10T11:16:52Z</time>
      </trkpt>
      <trkpt lat="44.74049" lon="5.45746">
        <ele>1473.36</ele>
        <time>2015-10-10T11:16:55Z</time>
      </trkpt>
      <trkpt lat="44.74047" lon="5.45744">
        <ele>1472.88</ele>
        <time>2015-10-10T11:16:57Z</time>
      </trkpt>
      <trkpt lat="44.74031" lon="5.45741">
        <ele>1470.47</ele>
        <time>2015-10-10T11:17:09Z</time>
      </trkpt>
      <trkpt lat="44.74028" lon="5.45741">
        <ele>1470.95</ele>
        <time>2015-10-10T11:17:12Z</time>
      </trkpt>
      <trkpt lat="44.74026" lon="5.4574">
        <ele>1471.44</ele>
        <time>2015-10-10T11:17:14Z</time>
      </trkpt>
      <trkpt lat="44.74018" lon="5.45742">
        <ele>1470.47</ele>
        <time>2015-10-10T11:17:24Z</time>
      </trkpt>
      <trkpt lat="44.74018" lon="5.45742">
        <ele>1469.99</ele>
        <time>2015-10-10T11:17:25Z</time>
      </trkpt>
      <trkpt lat="44.74016" lon="5.4574">
        <ele>1469.99</ele>
        <time>2015-10-10T11:17:28Z</time>
      </trkpt>
      <trkpt lat="44.7401" lon="5.45734">
        <ele>1470.47</ele>
        <time>2015-10-10T11:17:36Z</time>
      </trkpt>
      <trkpt lat="44.73993" lon="5.45743">
        <ele>1469.99</ele>
        <time>2015-10-10T11:17:47Z</time>
      </trkpt>
      <trkpt lat="44.73985" lon="5.45752">
        <ele>1469.99</ele>
        <time>2015-10-10T11:17:53Z</time>
      </trkpt>
      <trkpt lat="44.73981" lon="5.45758">
        <ele>1468.55</ele>
        <time>2015-10-10T11:18:08Z</time>
      </trkpt>
      <trkpt lat="44.7398" lon="5.45758">
        <ele>1468.07</ele>
        <time>2015-10-10T11:18:21Z</time>
      </trkpt>
      <trkpt lat="44.73978" lon="5.4576">
        <ele>1467.11</ele>
        <time>2015-10-10T11:18:25Z</time>
      </trkpt>
      <trkpt lat="44.73973" lon="5.4577">
        <ele>1465.19</ele>
        <time>2015-10-10T11:18:32Z</time>
      </trkpt>
      <trkpt lat="44.7397" lon="5.45771">
        <ele>1463.26</ele>
        <time>2015-10-10T11:18:39Z</time>
      </trkpt>
      <trkpt lat="44.73968" lon="5.45777">
        <ele>1461.82</ele>
        <time>2015-10-10T11:18:44Z</time>
      </trkpt>
      <trkpt lat="44.73967" lon="5.45778">
        <ele>1459.9</ele>
        <time>2015-10-10T11:18:48Z</time>
      </trkpt>
      <trkpt lat="44.73963" lon="5.45781">
        <ele>1457.98</ele>
        <time>2015-10-10T11:18:53Z</time>
      </trkpt>
      <trkpt lat="44.73961" lon="5.45784">
        <ele>1458.46</ele>
        <time>2015-10-10T11:18:55Z</time>
      </trkpt>
      <trkpt lat="44.73956" lon="5.4579">
        <ele>1456.53</ele>
        <time>2015-10-10T11:19:03Z</time>
      </trkpt>
      <trkpt lat="44.73954" lon="5.45792">
        <ele>1455.57</ele>
        <time>2015-10-10T11:19:05Z</time>
      </trkpt>
      <trkpt lat="44.7395" lon="5.45795">
        <ele>1455.09</ele>
        <time>2015-10-10T11:19:08Z</time>
      </trkpt>
      <trkpt lat="44.73939" lon="5.45805">
        <ele>1454.61</ele>
        <time>2015-10-10T11:19:17Z</time>
      </trkpt>
      <trkpt lat="44.73934" lon="5.45812">
        <ele>1453.65</ele>
        <time>2015-10-10T11:19:23Z</time>
      </trkpt>
      <trkpt lat="44.73932" lon="5.45814">
        <ele>1453.17</ele>
        <time>2015-10-10T11:19:25Z</time>
      </trkpt>
      <trkpt lat="44.73927" lon="5.45824">
        <ele>1452.69</ele>
        <time>2015-10-10T11:19:31Z</time>
      </trkpt>
      <trkpt lat="44.73922" lon="5.45833">
        <ele>1453.65</ele>
        <time>2015-10-10T11:19:39Z</time>
      </trkpt>
      <trkpt lat="44.73919" lon="5.45837">
        <ele>1454.61</ele>
        <time>2015-10-10T11:19:44Z</time>
      </trkpt>
      <trkpt lat="44.73914" lon="5.45848">
        <ele>1456.53</ele>
        <time>2015-10-10T11:19:54Z</time>
      </trkpt>
      <trkpt lat="44.73912" lon="5.4585">
        <ele>1456.53</ele>
        <time>2015-10-10T11:19:56Z</time>
      </trkpt>
      <trkpt lat="44.73904" lon="5.45855">
        <ele>1455.09</ele>
        <time>2015-10-10T11:20:07Z</time>
      </trkpt>
      <trkpt lat="44.73903" lon="5.45855">
        <ele>1455.09</ele>
        <time>2015-10-10T11:20:08Z</time>
      </trkpt>
      <trkpt lat="44.73899" lon="5.45859">
        <ele>1455.09</ele>
        <time>2015-10-10T11:20:12Z</time>
      </trkpt>
      <trkpt lat="44.73895" lon="5.45862">
        <ele>1455.09</ele>
        <time>2015-10-10T11:20:15Z</time>
      </trkpt>
      <trkpt lat="44.73893" lon="5.45861">
        <ele>1454.13</ele>
        <time>2015-10-10T11:20:17Z</time>
      </trkpt>
      <trkpt lat="44.73889" lon="5.45856">
        <ele>1453.65</ele>
        <time>2015-10-10T11:20:23Z</time>
      </trkpt>
      <trkpt lat="44.73887" lon="5.45854">
        <ele>1453.17</ele>
        <time>2015-10-10T11:20:25Z</time>
      </trkpt>
      <trkpt lat="44.73879" lon="5.45851">
        <ele>1450.77</ele>
        <time>2015-10-10T11:20:35Z</time>
      </trkpt>
      <trkpt lat="44.73875" lon="5.45849">
        <ele>1450.29</ele>
        <time>2015-10-10T11:20:38Z</time>
      </trkpt>
      <trkpt lat="44.73859" lon="5.45843">
        <ele>1449.81</ele>
        <time>2015-10-10T11:20:48Z</time>
      </trkpt>
      <trkpt lat="44.73846" lon="5.45845">
        <ele>1448.84</ele>
        <time>2015-10-10T11:20:58Z</time>
      </trkpt>
      <trkpt lat="44.73841" lon="5.45846">
        <ele>1447.88</ele>
        <time>2015-10-10T11:21:02Z</time>
      </trkpt>
      <trkpt lat="44.73836" lon="5.45846">
        <ele>1446.44</ele>
        <time>2015-10-10T11:21:06Z</time>
      </trkpt>
      <trkpt lat="44.73834" lon="5.45847">
        <ele>1445.48</ele>
        <time>2015-10-10T11:21:08Z</time>
      </trkpt>
      <trkpt lat="44.73831" lon="5.45847">
        <ele>1444.52</ele>
        <time>2015-10-10T11:21:11Z</time>
      </trkpt>
      <trkpt lat="44.73822" lon="5.4585">
        <ele>1442.6</ele>
        <time>2015-10-10T11:21:18Z</time>
      </trkpt>
      <trkpt lat="44.73816" lon="5.45845">
        <ele>1439.23</ele>
        <time>2015-10-10T11:21:27Z</time>
      </trkpt>
      <trkpt lat="44.73816" lon="5.45843">
        <ele>1438.27</ele>
        <time>2015-10-10T11:21:30Z</time>
      </trkpt>
      <trkpt lat="44.73813" lon="5.45843">
        <ele>1436.83</ele>
        <time>2015-10-10T11:21:35Z</time>
      </trkpt>
      <trkpt lat="44.73803" lon="5.4584">
        <ele>1437.31</ele>
        <time>2015-10-10T11:21:43Z</time>
      </trkpt>
      <trkpt lat="44.73797" lon="5.4584">
        <ele>1436.35</ele>
        <time>2015-10-10T11:21:48Z</time>
      </trkpt>
      <trkpt lat="44.73792" lon="5.45842">
        <ele>1435.87</ele>
        <time>2015-10-10T11:21:51Z</time>
      </trkpt>
      <trkpt lat="44.73788" lon="5.45846">
        <ele>1434.91</ele>
        <time>2015-10-10T11:21:54Z</time>
      </trkpt>
      <trkpt lat="44.73786" lon="5.4585">
        <ele>1434.42</ele>
        <time>2015-10-10T11:21:56Z</time>
      </trkpt>
      <trkpt lat="44.7378" lon="5.4586">
        <ele>1433.94</ele>
        <time>2015-10-10T11:22:02Z</time>
      </trkpt>
      <trkpt lat="44.73775" lon="5.45866">
        <ele>1433.94</ele>
        <time>2015-10-10T11:22:11Z</time>
      </trkpt>
      <trkpt lat="44.7377" lon="5.45868">
        <ele>1434.42</ele>
        <time>2015-10-10T11:22:15Z</time>
      </trkpt>
      <trkpt lat="44.73758" lon="5.45873">
        <ele>1436.35</ele>
        <time>2015-10-10T11:22:24Z</time>
      </trkpt>
      <trkpt lat="44.73755" lon="5.45875">
        <ele>1436.83</ele>
        <time>2015-10-10T11:22:27Z</time>
      </trkpt>
      <trkpt lat="44.73747" lon="5.45877">
        <ele>1435.87</ele>
        <time>2015-10-10T11:22:34Z</time>
      </trkpt>
      <trkpt lat="44.73738" lon="5.45882">
        <ele>1435.39</ele>
        <time>2015-10-10T11:22:42Z</time>
      </trkpt>
      <trkpt lat="44.73736" lon="5.45883">
        <ele>1435.39</ele>
        <time>2015-10-10T11:22:44Z</time>
      </trkpt>
      <trkpt lat="44.73734" lon="5.45884">
        <ele>1435.39</ele>
        <time>2015-10-10T11:22:46Z</time>
      </trkpt>
      <trkpt lat="44.73731" lon="5.45882">
        <ele>1434.42</ele>
        <time>2015-10-10T11:22:49Z</time>
      </trkpt>
      <trkpt lat="44.73729" lon="5.45882">
        <ele>1433.94</ele>
        <time>2015-10-10T11:22:51Z</time>
      </trkpt>
      <trkpt lat="44.73725" lon="5.45882">
        <ele>1432.98</ele>
        <time>2015-10-10T11:22:54Z</time>
      </trkpt>
      <trkpt lat="44.73721" lon="5.45883">
        <ele>1431.06</ele>
        <time>2015-10-10T11:22:59Z</time>
      </trkpt>
      <trkpt lat="44.73721" lon="5.45883">
        <ele>1430.58</ele>
        <time>2015-10-10T11:23:00Z</time>
      </trkpt>
      <trkpt lat="44.7371" lon="5.45883">
        <ele>1428.18</ele>
        <time>2015-10-10T11:23:09Z</time>
      </trkpt>
      <trkpt lat="44.73706" lon="5.45881">
        <ele>1427.21</ele>
        <time>2015-10-10T11:23:12Z</time>
      </trkpt>
      <trkpt lat="44.73695" lon="5.45882">
        <ele>1425.77</ele>
        <time>2015-10-10T11:23:21Z</time>
      </trkpt>
      <trkpt lat="44.73693" lon="5.4588">
        <ele>1424.81</ele>
        <time>2015-10-10T11:23:24Z</time>
      </trkpt>
      <trkpt lat="44.73682" lon="5.45881">
        <ele>1422.89</ele>
        <time>2015-10-10T11:23:35Z</time>
      </trkpt>
      <trkpt lat="44.73679" lon="5.45878">
        <ele>1421.45</ele>
        <time>2015-10-10T11:23:40Z</time>
      </trkpt>
      <trkpt lat="44.7368" lon="5.45876">
        <ele>1420.49</ele>
        <time>2015-10-10T11:23:43Z</time>
      </trkpt>
      <trkpt lat="44.73678" lon="5.45874">
        <ele>1419.04</ele>
        <time>2015-10-10T11:23:46Z</time>
      </trkpt>
      <trkpt lat="44.73673" lon="5.45871">
        <ele>1415.68</ele>
        <time>2015-10-10T11:23:56Z</time>
      </trkpt>
      <trkpt lat="44.73674" lon="5.45871">
        <ele>1415.2</ele>
        <time>2015-10-10T11:23:58Z</time>
      </trkpt>
      <trkpt lat="44.73667" lon="5.45865">
        <ele>1412.31</ele>
        <time>2015-10-10T11:24:06Z</time>
      </trkpt>
      <trkpt lat="44.73663" lon="5.45861">
        <ele>1411.35</ele>
        <time>2015-10-10T11:24:12Z</time>
      </trkpt>
      <trkpt lat="44.73659" lon="5.45857">
        <ele>1409.91</ele>
        <time>2015-10-10T11:24:15Z</time>
      </trkpt>
      <trkpt lat="44.73653" lon="5.45848">
        <ele>1408.47</ele>
        <time>2015-10-10T11:24:25Z</time>
      </trkpt>
      <trkpt lat="44.73644" lon="5.4584">
        <ele>1408.47</ele>
        <time>2015-10-10T11:24:32Z</time>
      </trkpt>
      <trkpt lat="44.73641" lon="5.45838">
        <ele>1408.47</ele>
        <time>2015-10-10T11:24:34Z</time>
      </trkpt>
      <trkpt lat="44.73637" lon="5.45837">
        <ele>1408.95</ele>
        <time>2015-10-10T11:24:37Z</time>
      </trkpt>
      <trkpt lat="44.73622" lon="5.45835">
        <ele>1408.95</ele>
        <time>2015-10-10T11:24:46Z</time>
      </trkpt>
      <trkpt lat="44.73619" lon="5.4583">
        <ele>1407.51</ele>
        <time>2015-10-10T11:24:53Z</time>
      </trkpt>
      <trkpt lat="44.73607" lon="5.45819">
        <ele>1405.58</ele>
        <time>2015-10-10T11:25:03Z</time>
      </trkpt>
      <trkpt lat="44.73602" lon="5.45816">
        <ele>1405.58</ele>
        <time>2015-10-10T11:25:06Z</time>
      </trkpt>
      <trkpt lat="44.7359" lon="5.45814">
        <ele>1403.66</ele>
        <time>2015-10-10T11:25:15Z</time>
      </trkpt>
      <trkpt lat="44.73583" lon="5.45807">
        <ele>1404.62</ele>
        <time>2015-10-10T11:25:27Z</time>
      </trkpt>
      <trkpt lat="44.73575" lon="5.45793">
        <ele>1404.14</ele>
        <time>2015-10-10T11:25:37Z</time>
      </trkpt>
      <trkpt lat="44.73569" lon="5.45787">
        <ele>1403.18</ele>
        <time>2015-10-10T11:25:42Z</time>
      </trkpt>
      <trkpt lat="44.73561" lon="5.45774">
        <ele>1399.82</ele>
        <time>2015-10-10T11:25:52Z</time>
      </trkpt>
      <trkpt lat="44.73558" lon="5.45766">
        <ele>1398.37</ele>
        <time>2015-10-10T11:25:59Z</time>
      </trkpt>
      <trkpt lat="44.7355" lon="5.45754">
        <ele>1396.93</ele>
        <time>2015-10-10T11:26:08Z</time>
      </trkpt>
      <trkpt lat="44.7354" lon="5.45732">
        <ele>1394.05</ele>
        <time>2015-10-10T11:26:19Z</time>
      </trkpt>
      <trkpt lat="44.73539" lon="5.4573">
        <ele>1393.57</ele>
        <time>2015-10-10T11:26:20Z</time>
      </trkpt>
      <trkpt lat="44.73537" lon="5.45722">
        <ele>1393.09</ele>
        <time>2015-10-10T11:26:24Z</time>
      </trkpt>
      <trkpt lat="44.73535" lon="5.45717">
        <ele>1391.65</ele>
        <time>2015-10-10T11:26:27Z</time>
      </trkpt>
      <trkpt lat="44.73531" lon="5.45709">
        <ele>1390.68</ele>
        <time>2015-10-10T11:26:30Z</time>
      </trkpt>
      <trkpt lat="44.73521" lon="5.45687">
        <ele>1387.32</ele>
        <time>2015-10-10T11:26:40Z</time>
      </trkpt>
      <trkpt lat="44.7352" lon="5.45685">
        <ele>1387.32</ele>
        <time>2015-10-10T11:26:41Z</time>
      </trkpt>
      <trkpt lat="44.73507" lon="5.45666">
        <ele>1384.44</ele>
        <time>2015-10-10T11:26:50Z</time>
      </trkpt>
      <trkpt lat="44.73489" lon="5.4565">
        <ele>1381.55</ele>
        <time>2015-10-10T11:27:02Z</time>
      </trkpt>
      <trkpt lat="44.73479" lon="5.4565">
        <ele>1379.63</ele>
        <time>2015-10-10T11:27:09Z</time>
      </trkpt>
      <trkpt lat="44.73475" lon="5.45652">
        <ele>1379.15</ele>
        <time>2015-10-10T11:27:12Z</time>
      </trkpt>
      <trkpt lat="44.73471" lon="5.45652">
        <ele>1378.19</ele>
        <time>2015-10-10T11:27:14Z</time>
      </trkpt>
      <trkpt lat="44.73463" lon="5.45656">
        <ele>1377.71</ele>
        <time>2015-10-10T11:27:23Z</time>
      </trkpt>
      <trkpt lat="44.73461" lon="5.45658">
        <ele>1377.23</ele>
        <time>2015-10-10T11:27:25Z</time>
      </trkpt>
      <trkpt lat="44.73457" lon="5.4566">
        <ele>1374.82</ele>
        <time>2015-10-10T11:27:31Z</time>
      </trkpt>
      <trkpt lat="44.73456" lon="5.45651">
        <ele>1372.9</ele>
        <time>2015-10-10T11:27:41Z</time>
      </trkpt>
      <trkpt lat="44.73455" lon="5.45648">
        <ele>1372.42</ele>
        <time>2015-10-10T11:27:43Z</time>
      </trkpt>
      <trkpt lat="44.73455" lon="5.45648">
        <ele>1371.94</ele>
        <time>2015-10-10T11:27:44Z</time>
      </trkpt>
      <trkpt lat="44.73455" lon="5.45641">
        <ele>1369.54</ele>
        <time>2015-10-10T11:27:50Z</time>
      </trkpt>
      <trkpt lat="44.73454" lon="5.45637">
        <ele>1368.57</ele>
        <time>2015-10-10T11:27:53Z</time>
      </trkpt>
      <trkpt lat="44.73454" lon="5.45632">
        <ele>1367.61</ele>
        <time>2015-10-10T11:27:56Z</time>
      </trkpt>
      <trkpt lat="44.73455" lon="5.45628">
        <ele>1366.17</ele>
        <time>2015-10-10T11:28:00Z</time>
      </trkpt>
      <trkpt lat="44.73454" lon="5.45628">
        <ele>1365.21</ele>
        <time>2015-10-10T11:28:03Z</time>
      </trkpt>
      <trkpt lat="44.73453" lon="5.45626">
        <ele>1363.77</ele>
        <time>2015-10-10T11:28:06Z</time>
      </trkpt>
      <trkpt lat="44.7345" lon="5.45625">
        <ele>1362.81</ele>
        <time>2015-10-10T11:28:09Z</time>
      </trkpt>
      <trkpt lat="44.73447" lon="5.45623">
        <ele>1362.33</ele>
        <time>2015-10-10T11:28:13Z</time>
      </trkpt>
      <trkpt lat="44.73444" lon="5.45617">
        <ele>1358.48</ele>
        <time>2015-10-10T11:28:21Z</time>
      </trkpt>
      <trkpt lat="44.73438" lon="5.45621">
        <ele>1355.6</ele>
        <time>2015-10-10T11:28:28Z</time>
      </trkpt>
      <trkpt lat="44.73436" lon="5.45621">
        <ele>1355.6</ele>
        <time>2015-10-10T11:28:30Z</time>
      </trkpt>
      <trkpt lat="44.73431" lon="5.45613">
        <ele>1352.71</ele>
        <time>2015-10-10T11:28:38Z</time>
      </trkpt>
      <trkpt lat="44.7343" lon="5.45609">
        <ele>1351.75</ele>
        <time>2015-10-10T11:28:41Z</time>
      </trkpt>
      <trkpt lat="44.7343" lon="5.45604">
        <ele>1350.79</ele>
        <time>2015-10-10T11:28:44Z</time>
      </trkpt>
      <trkpt lat="44.73428" lon="5.45595">
        <ele>1348.39</ele>
        <time>2015-10-10T11:28:49Z</time>
      </trkpt>
      <trkpt lat="44.73427" lon="5.45592">
        <ele>1347.91</ele>
        <time>2015-10-10T11:28:53Z</time>
      </trkpt>
      <trkpt lat="44.73425" lon="5.4559">
        <ele>1346.46</ele>
        <time>2015-10-10T11:28:55Z</time>
      </trkpt>
      <trkpt lat="44.73422" lon="5.45585">
        <ele>1345.5</ele>
        <time>2015-10-10T11:28:59Z</time>
      </trkpt>
      <trkpt lat="44.73423" lon="5.4558">
        <ele>1343.58</ele>
        <time>2015-10-10T11:29:04Z</time>
      </trkpt>
      <trkpt lat="44.7342" lon="5.45575">
        <ele>1342.14</ele>
        <time>2015-10-10T11:29:08Z</time>
      </trkpt>
      <trkpt lat="44.73419" lon="5.45575">
        <ele>1342.14</ele>
        <time>2015-10-10T11:29:09Z</time>
      </trkpt>
      <trkpt lat="44.73417" lon="5.45571">
        <ele>1339.73</ele>
        <time>2015-10-10T11:29:13Z</time>
      </trkpt>
      <trkpt lat="44.73411" lon="5.45572">
        <ele>1337.33</ele>
        <time>2015-10-10T11:29:19Z</time>
      </trkpt>
      <trkpt lat="44.73406" lon="5.4557">
        <ele>1335.41</ele>
        <time>2015-10-10T11:29:24Z</time>
      </trkpt>
      <trkpt lat="44.73401" lon="5.45564">
        <ele>1332.52</ele>
        <time>2015-10-10T11:29:34Z</time>
      </trkpt>
      <trkpt lat="44.73401" lon="5.45563">
        <ele>1331.56</ele>
        <time>2015-10-10T11:29:37Z</time>
      </trkpt>
      <trkpt lat="44.73399" lon="5.4556">
        <ele>1330.6</ele>
        <time>2015-10-10T11:29:39Z</time>
      </trkpt>
      <trkpt lat="44.73399" lon="5.45551">
        <ele>1328.2</ele>
        <time>2015-10-10T11:29:46Z</time>
      </trkpt>
      <trkpt lat="44.73401" lon="5.45542">
        <ele>1325.8</ele>
        <time>2015-10-10T11:29:55Z</time>
      </trkpt>
      <trkpt lat="44.734" lon="5.45533">
        <ele>1322.91</ele>
        <time>2015-10-10T11:30:02Z</time>
      </trkpt>
      <trkpt lat="44.73405" lon="5.45525">
        <ele>1320.51</ele>
        <time>2015-10-10T11:30:10Z</time>
      </trkpt>
      <trkpt lat="44.73405" lon="5.45524">
        <ele>1319.07</ele>
        <time>2015-10-10T11:30:13Z</time>
      </trkpt>
      <trkpt lat="44.73403" lon="5.45515">
        <ele>1315.7</ele>
        <time>2015-10-10T11:30:24Z</time>
      </trkpt>
      <trkpt lat="44.73403" lon="5.45515">
        <ele>1315.7</ele>
        <time>2015-10-10T11:30:25Z</time>
      </trkpt>
      <trkpt lat="44.73399" lon="5.45508">
        <ele>1313.3</ele>
        <time>2015-10-10T11:30:32Z</time>
      </trkpt>
      <trkpt lat="44.73396" lon="5.45507">
        <ele>1311.38</ele>
        <time>2015-10-10T11:30:37Z</time>
      </trkpt>
      <trkpt lat="44.7339" lon="5.45506">
        <ele>1309.45</ele>
        <time>2015-10-10T11:30:44Z</time>
      </trkpt>
      <trkpt lat="44.73386" lon="5.45504">
        <ele>1308.49</ele>
        <time>2015-10-10T11:30:47Z</time>
      </trkpt>
      <trkpt lat="44.73382" lon="5.45499">
        <ele>1307.05</ele>
        <time>2015-10-10T11:30:52Z</time>
      </trkpt>
      <trkpt lat="44.73379" lon="5.4549">
        <ele>1303.69</ele>
        <time>2015-10-10T11:31:02Z</time>
      </trkpt>
      <trkpt lat="44.73381" lon="5.45481">
        <ele>1301.76</ele>
        <time>2015-10-10T11:31:09Z</time>
      </trkpt>
      <trkpt lat="44.73379" lon="5.45475">
        <ele>1300.32</ele>
        <time>2015-10-10T11:31:20Z</time>
      </trkpt>
      <trkpt lat="44.73379" lon="5.45472">
        <ele>1299.36</ele>
        <time>2015-10-10T11:31:22Z</time>
      </trkpt>
      <trkpt lat="44.73376" lon="5.45463">
        <ele>1296.48</ele>
        <time>2015-10-10T11:31:32Z</time>
      </trkpt>
      <trkpt lat="44.73376" lon="5.4545">
        <ele>1294.55</ele>
        <time>2015-10-10T11:31:43Z</time>
      </trkpt>
      <trkpt lat="44.73375" lon="5.45446">
        <ele>1293.11</ele>
        <time>2015-10-10T11:31:49Z</time>
      </trkpt>
      <trkpt lat="44.73372" lon="5.45434">
        <ele>1289.75</ele>
        <time>2015-10-10T11:31:58Z</time>
      </trkpt>
      <trkpt lat="44.73371" lon="5.45431">
        <ele>1289.75</ele>
        <time>2015-10-10T11:31:59Z</time>
      </trkpt>
      <trkpt lat="44.7337" lon="5.45424">
        <ele>1289.27</ele>
        <time>2015-10-10T11:32:02Z</time>
      </trkpt>
      <trkpt lat="44.73368" lon="5.45421">
        <ele>1287.82</ele>
        <time>2015-10-10T11:32:04Z</time>
      </trkpt>
      <trkpt lat="44.73368" lon="5.45419">
        <ele>1287.82</ele>
        <time>2015-10-10T11:32:05Z</time>
      </trkpt>
      <trkpt lat="44.73361" lon="5.45405">
        <ele>1285.42</ele>
        <time>2015-10-10T11:32:13Z</time>
      </trkpt>
      <trkpt lat="44.73361" lon="5.45393">
        <ele>1283.5</ele>
        <time>2015-10-10T11:32:20Z</time>
      </trkpt>
      <trkpt lat="44.73361" lon="5.45384">
        <ele>1281.09</ele>
        <time>2015-10-10T11:32:31Z</time>
      </trkpt>
      <trkpt lat="44.73357" lon="5.45381">
        <ele>1280.13</ele>
        <time>2015-10-10T11:32:34Z</time>
      </trkpt>
      <trkpt lat="44.73354" lon="5.45375">
        <ele>1278.69</ele>
        <time>2015-10-10T11:32:38Z</time>
      </trkpt>
      <trkpt lat="44.73356" lon="5.45365">
        <ele>1275.81</ele>
        <time>2015-10-10T11:32:47Z</time>
      </trkpt>
      <trkpt lat="44.73357" lon="5.45362">
        <ele>1274.85</ele>
        <time>2015-10-10T11:32:50Z</time>
      </trkpt>
      <trkpt lat="44.73358" lon="5.4536">
        <ele>1274.85</ele>
        <time>2015-10-10T11:32:51Z</time>
      </trkpt>
      <trkpt lat="44.73358" lon="5.45353">
        <ele>1272.92</ele>
        <time>2015-10-10T11:32:56Z</time>
      </trkpt>
      <trkpt lat="44.73356" lon="5.45349">
        <ele>1271</ele>
        <time>2015-10-10T11:33:01Z</time>
      </trkpt>
      <trkpt lat="44.73355" lon="5.45344">
        <ele>1270.04</ele>
        <time>2015-10-10T11:33:04Z</time>
      </trkpt>
      <trkpt lat="44.73355" lon="5.45336">
        <ele>1267.16</ele>
        <time>2015-10-10T11:33:12Z</time>
      </trkpt>
      <trkpt lat="44.73352" lon="5.45323">
        <ele>1264.27</ele>
        <time>2015-10-10T11:33:21Z</time>
      </trkpt>
      <trkpt lat="44.73359" lon="5.45312">
        <ele>1260.43</ele>
        <time>2015-10-10T11:33:32Z</time>
      </trkpt>
      <trkpt lat="44.73361" lon="5.45307">
        <ele>1258.02</ele>
        <time>2015-10-10T11:33:38Z</time>
      </trkpt>
      <trkpt lat="44.73362" lon="5.45303">
        <ele>1257.06</ele>
        <time>2015-10-10T11:33:42Z</time>
      </trkpt>
      <trkpt lat="44.73361" lon="5.45299">
        <ele>1255.62</ele>
        <time>2015-10-10T11:33:45Z</time>
      </trkpt>
      <trkpt lat="44.7336" lon="5.45296">
        <ele>1254.18</ele>
        <time>2015-10-10T11:33:47Z</time>
      </trkpt>
      <trkpt lat="44.73358" lon="5.45293">
        <ele>1253.22</ele>
        <time>2015-10-10T11:33:51Z</time>
      </trkpt>
      <trkpt lat="44.73357" lon="5.45291">
        <ele>1252.74</ele>
        <time>2015-10-10T11:33:53Z</time>
      </trkpt>
      <trkpt lat="44.73355" lon="5.45277">
        <ele>1251.29</ele>
        <time>2015-10-10T11:34:06Z</time>
      </trkpt>
      <trkpt lat="44.73356" lon="5.45275">
        <ele>1251.29</ele>
        <time>2015-10-10T11:34:10Z</time>
      </trkpt>
      <trkpt lat="44.73355" lon="5.45272">
        <ele>1250.33</ele>
        <time>2015-10-10T11:34:13Z</time>
      </trkpt>
      <trkpt lat="44.73353" lon="5.45264">
        <ele>1248.89</ele>
        <time>2015-10-10T11:34:25Z</time>
      </trkpt>
      <trkpt lat="44.73353" lon="5.45265">
        <ele>1248.89</ele>
        <time>2015-10-10T11:34:42Z</time>
      </trkpt>
      <trkpt lat="44.73354" lon="5.45266">
        <ele>1249.37</ele>
        <time>2015-10-10T11:34:57Z</time>
      </trkpt>
      <trkpt lat="44.73355" lon="5.45267">
        <ele>1248.89</ele>
        <time>2015-10-10T11:35:15Z</time>
      </trkpt>
      <trkpt lat="44.73348" lon="5.45266">
        <ele>1248.41</ele>
        <time>2015-10-10T11:35:28Z</time>
      </trkpt>
      <trkpt lat="44.73345" lon="5.45256">
        <ele>1246.97</ele>
        <time>2015-10-10T11:35:34Z</time>
      </trkpt>
      <trkpt lat="44.73341" lon="5.4524">
        <ele>1244.56</ele>
        <time>2015-10-10T11:35:45Z</time>
      </trkpt>
      <trkpt lat="44.73348" lon="5.45233">
        <ele>1241.2</ele>
        <time>2015-10-10T11:35:55Z</time>
      </trkpt>
      <trkpt lat="44.73351" lon="5.45233">
        <ele>1240.72</ele>
        <time>2015-10-10T11:36:06Z</time>
      </trkpt>
      <trkpt lat="44.73359" lon="5.45239">
        <ele>1238.32</ele>
        <time>2015-10-10T11:36:13Z</time>
      </trkpt>
      <trkpt lat="44.73365" lon="5.45242">
        <ele>1236.87</ele>
        <time>2015-10-10T11:36:20Z</time>
      </trkpt>
      <trkpt lat="44.7337" lon="5.45238">
        <ele>1234.47</ele>
        <time>2015-10-10T11:36:30Z</time>
      </trkpt>
      <trkpt lat="44.73372" lon="5.45236">
        <ele>1233.03</ele>
        <time>2015-10-10T11:36:36Z</time>
      </trkpt>
      <trkpt lat="44.73373" lon="5.45226">
        <ele>1229.66</ele>
        <time>2015-10-10T11:36:45Z</time>
      </trkpt>
      <trkpt lat="44.73372" lon="5.45222">
        <ele>1228.7</ele>
        <time>2015-10-10T11:36:48Z</time>
      </trkpt>
      <trkpt lat="44.73371" lon="5.45213">
        <ele>1227.26</ele>
        <time>2015-10-10T11:36:54Z</time>
      </trkpt>
      <trkpt lat="44.73372" lon="5.45205">
        <ele>1224.86</ele>
        <time>2015-10-10T11:36:59Z</time>
      </trkpt>
      <trkpt lat="44.73374" lon="5.452">
        <ele>1222.93</ele>
        <time>2015-10-10T11:37:04Z</time>
      </trkpt>
      <trkpt lat="44.73372" lon="5.45196">
        <ele>1221.97</ele>
        <time>2015-10-10T11:37:06Z</time>
      </trkpt>
      <trkpt lat="44.7337" lon="5.45192">
        <ele>1221.01</ele>
        <time>2015-10-10T11:37:09Z</time>
      </trkpt>
      <trkpt lat="44.73368" lon="5.4519">
        <ele>1220.53</ele>
        <time>2015-10-10T11:37:11Z</time>
      </trkpt>
      <trkpt lat="44.73366" lon="5.45183">
        <ele>1219.57</ele>
        <time>2015-10-10T11:37:14Z</time>
      </trkpt>
      <trkpt lat="44.73361" lon="5.45168">
        <ele>1216.69</ele>
        <time>2015-10-10T11:37:22Z</time>
      </trkpt>
      <trkpt lat="44.73361" lon="5.45167">
        <ele>1216.69</ele>
        <time>2015-10-10T11:37:23Z</time>
      </trkpt>
      <trkpt lat="44.73357" lon="5.45153">
        <ele>1213.8</ele>
        <time>2015-10-10T11:37:34Z</time>
      </trkpt>
      <trkpt lat="44.73351" lon="5.45145">
        <ele>1212.36</ele>
        <time>2015-10-10T11:37:42Z</time>
      </trkpt>
      <trkpt lat="44.73344" lon="5.45145">
        <ele>1213.8</ele>
        <time>2015-10-10T11:37:54Z</time>
      </trkpt>
      <trkpt lat="44.73331" lon="5.45144">
        <ele>1206.59</ele>
        <time>2015-10-10T11:38:04Z</time>
      </trkpt>
      <trkpt lat="44.73331" lon="5.45144">
        <ele>1216.21</ele>
        <time>2015-10-10T11:38:05Z</time>
      </trkpt>
      <trkpt lat="44.73331" lon="5.45144">
        <ele>1215.24</ele>
        <time>2015-10-10T11:38:06Z</time>
      </trkpt>
      <trkpt lat="44.7333" lon="5.45144">
        <ele>1206.59</ele>
        <time>2015-10-10T11:38:09Z</time>
      </trkpt>
      <trkpt lat="44.7333" lon="5.45144">
        <ele>1214.28</ele>
        <time>2015-10-10T11:38:10Z</time>
      </trkpt>
      <trkpt lat="44.73329" lon="5.45144">
        <ele>1213.32</ele>
        <time>2015-10-10T11:38:15Z</time>
      </trkpt>
      <trkpt lat="44.73374" lon="5.45105">
        <ele>1213.32</ele>
        <time>2015-10-10T11:47:32Z</time>
      </trkpt>
      <trkpt lat="44.73368" lon="5.45105">
        <ele>1213.32</ele>
        <time>2015-10-10T11:47:33Z</time>
      </trkpt>
      <trkpt lat="44.7334" lon="5.45151">
        <ele>1216.69</ele>
        <time>2015-10-10T11:47:44Z</time>
      </trkpt>
      <trkpt lat="44.73339" lon="5.45151">
        <ele>1212.84</ele>
        <time>2015-10-10T11:47:46Z</time>
      </trkpt>
      <trkpt lat="44.73338" lon="5.4515">
        <ele>1213.8</ele>
        <time>2015-10-10T11:47:47Z</time>
      </trkpt>
      <trkpt lat="44.73338" lon="5.45151">
        <ele>1214.28</ele>
        <time>2015-10-10T11:47:51Z</time>
      </trkpt>
      <trkpt lat="44.73337" lon="5.45151">
        <ele>1209</ele>
        <time>2015-10-10T11:47:54Z</time>
      </trkpt>
      <trkpt lat="44.73337" lon="5.45151">
        <ele>1213.32</ele>
        <time>2015-10-10T11:47:55Z</time>
      </trkpt>
      <trkpt lat="44.73338" lon="5.45153">
        <ele>1209</ele>
        <time>2015-10-10T11:47:57Z</time>
      </trkpt>
      <trkpt lat="44.73337" lon="5.45154">
        <ele>1209</ele>
        <time>2015-10-10T11:47:58Z</time>
      </trkpt>
      <trkpt lat="44.73337" lon="5.45156">
        <ele>1205.63</ele>
        <time>2015-10-10T11:48:05Z</time>
      </trkpt>
      <trkpt lat="44.73335" lon="5.45149">
        <ele>1204.67</ele>
        <time>2015-10-10T11:48:16Z</time>
      </trkpt>
      <trkpt lat="44.73334" lon="5.45147">
        <ele>1203.71</ele>
        <time>2015-10-10T11:48:20Z</time>
      </trkpt>
      <trkpt lat="44.73335" lon="5.45132">
        <ele>1201.3</ele>
        <time>2015-10-10T11:48:32Z</time>
      </trkpt>
      <trkpt lat="44.73335" lon="5.4513">
        <ele>1201.3</ele>
        <time>2015-10-10T11:48:33Z</time>
      </trkpt>
      <trkpt lat="44.73343" lon="5.45123">
        <ele>1198.42</ele>
        <time>2015-10-10T11:48:43Z</time>
      </trkpt>
      <trkpt lat="44.7335" lon="5.45126">
        <ele>1196.98</ele>
        <time>2015-10-10T11:48:48Z</time>
      </trkpt>
      <trkpt lat="44.73353" lon="5.45127">
        <ele>1196.98</ele>
        <time>2015-10-10T11:48:51Z</time>
      </trkpt>
      <trkpt lat="44.73357" lon="5.45127">
        <ele>1194.58</ele>
        <time>2015-10-10T11:48:59Z</time>
      </trkpt>
      <trkpt lat="44.73355" lon="5.45118">
        <ele>1192.17</ele>
        <time>2015-10-10T11:49:04Z</time>
      </trkpt>
      <trkpt lat="44.73356" lon="5.45109">
        <ele>1188.81</ele>
        <time>2015-10-10T11:49:09Z</time>
      </trkpt>
      <trkpt lat="44.73357" lon="5.45108">
        <ele>1188.33</ele>
        <time>2015-10-10T11:49:10Z</time>
      </trkpt>
      <trkpt lat="44.73359" lon="5.45106">
        <ele>1187.85</ele>
        <time>2015-10-10T11:49:12Z</time>
      </trkpt>
      <trkpt lat="44.73358" lon="5.45096">
        <ele>1185.44</ele>
        <time>2015-10-10T11:49:17Z</time>
      </trkpt>
      <trkpt lat="44.73359" lon="5.45092">
        <ele>1184.48</ele>
        <time>2015-10-10T11:49:19Z</time>
      </trkpt>
      <trkpt lat="44.7336" lon="5.45088">
        <ele>1183.04</ele>
        <time>2015-10-10T11:49:22Z</time>
      </trkpt>
      <trkpt lat="44.7336" lon="5.45077">
        <ele>1179.67</ele>
        <time>2015-10-10T11:49:30Z</time>
      </trkpt>
      <trkpt lat="44.7336" lon="5.45075">
        <ele>1179.19</ele>
        <time>2015-10-10T11:49:32Z</time>
      </trkpt>
      <trkpt lat="44.73355" lon="5.45061">
        <ele>1177.27</ele>
        <time>2015-10-10T11:49:40Z</time>
      </trkpt>
      <trkpt lat="44.73353" lon="5.45053">
        <ele>1175.83</ele>
        <time>2015-10-10T11:49:46Z</time>
      </trkpt>
      <trkpt lat="44.73353" lon="5.45049">
        <ele>1175.83</ele>
        <time>2015-10-10T11:49:48Z</time>
      </trkpt>
      <trkpt lat="44.73354" lon="5.45041">
        <ele>1173.91</ele>
        <time>2015-10-10T11:49:57Z</time>
      </trkpt>
      <trkpt lat="44.73348" lon="5.45029">
        <ele>1172.95</ele>
        <time>2015-10-10T11:50:06Z</time>
      </trkpt>
      <trkpt lat="44.73346" lon="5.45026">
        <ele>1172.95</ele>
        <time>2015-10-10T11:50:08Z</time>
      </trkpt>
      <trkpt lat="44.73342" lon="5.45016">
        <ele>1171.98</ele>
        <time>2015-10-10T11:50:12Z</time>
      </trkpt>
      <trkpt lat="44.73338" lon="5.4501">
        <ele>1171.5</ele>
        <time>2015-10-10T11:50:19Z</time>
      </trkpt>
      <trkpt lat="44.73334" lon="5.45004">
        <ele>1170.06</ele>
        <time>2015-10-10T11:50:22Z</time>
      </trkpt>
      <trkpt lat="44.7333" lon="5.45">
        <ele>1169.1</ele>
        <time>2015-10-10T11:50:25Z</time>
      </trkpt>
      <trkpt lat="44.73325" lon="5.44993">
        <ele>1167.18</ele>
        <time>2015-10-10T11:50:30Z</time>
      </trkpt>
      <trkpt lat="44.73319" lon="5.44985">
        <ele>1165.74</ele>
        <time>2015-10-10T11:50:41Z</time>
      </trkpt>
      <trkpt lat="44.73321" lon="5.44984">
        <ele>1164.77</ele>
        <time>2015-10-10T11:50:44Z</time>
      </trkpt>
      <trkpt lat="44.73324" lon="5.44984">
        <ele>1163.81</ele>
        <time>2015-10-10T11:50:54Z</time>
      </trkpt>
      <trkpt lat="44.73324" lon="5.44984">
        <ele>1163.81</ele>
        <time>2015-10-10T11:50:56Z</time>
      </trkpt>
      <trkpt lat="44.73321" lon="5.4498">
        <ele>1162.37</ele>
        <time>2015-10-10T11:51:00Z</time>
      </trkpt>
      <trkpt lat="44.73317" lon="5.44977">
        <ele>1161.89</ele>
        <time>2015-10-10T11:51:03Z</time>
      </trkpt>
      <trkpt lat="44.73314" lon="5.44971">
        <ele>1160.45</ele>
        <time>2015-10-10T11:51:07Z</time>
      </trkpt>
      <trkpt lat="44.73308" lon="5.44967">
        <ele>1159.01</ele>
        <time>2015-10-10T11:51:12Z</time>
      </trkpt>
      <trkpt lat="44.73292" lon="5.44973">
        <ele>1156.12</ele>
        <time>2015-10-10T11:51:22Z</time>
      </trkpt>
      <trkpt lat="44.73288" lon="5.44974">
        <ele>1156.6</ele>
        <time>2015-10-10T11:51:25Z</time>
      </trkpt>
      <trkpt lat="44.73287" lon="5.44973">
        <ele>1155.16</ele>
        <time>2015-10-10T11:51:27Z</time>
      </trkpt>
      <trkpt lat="44.73287" lon="5.44972">
        <ele>1153.72</ele>
        <time>2015-10-10T11:51:32Z</time>
      </trkpt>
      <trkpt lat="44.73286" lon="5.44969">
        <ele>1151.8</ele>
        <time>2015-10-10T11:51:35Z</time>
      </trkpt>
      <trkpt lat="44.73284" lon="5.4497">
        <ele>1150.84</ele>
        <time>2015-10-10T11:51:37Z</time>
      </trkpt>
      <trkpt lat="44.73283" lon="5.44969">
        <ele>1150.35</ele>
        <time>2015-10-10T11:51:38Z</time>
      </trkpt>
      <trkpt lat="44.73279" lon="5.44968">
        <ele>1146.99</ele>
        <time>2015-10-10T11:51:42Z</time>
      </trkpt>
      <trkpt lat="44.73278" lon="5.44966">
        <ele>1146.51</ele>
        <time>2015-10-10T11:51:44Z</time>
      </trkpt>
      <trkpt lat="44.7328" lon="5.44954">
        <ele>1144.11</ele>
        <time>2015-10-10T11:51:53Z</time>
      </trkpt>
      <trkpt lat="44.73283" lon="5.44946">
        <ele>1142.18</ele>
        <time>2015-10-10T11:52:00Z</time>
      </trkpt>
      <trkpt lat="44.73282" lon="5.44945">
        <ele>1141.7</ele>
        <time>2015-10-10T11:52:02Z</time>
      </trkpt>
      <trkpt lat="44.73277" lon="5.44945">
        <ele>1139.3</ele>
        <time>2015-10-10T11:52:08Z</time>
      </trkpt>
      <trkpt lat="44.73274" lon="5.44943">
        <ele>1135.94</ele>
        <time>2015-10-10T11:52:20Z</time>
      </trkpt>
      <trkpt lat="44.73273" lon="5.44942">
        <ele>1135.45</ele>
        <time>2015-10-10T11:52:21Z</time>
      </trkpt>
      <trkpt lat="44.73274" lon="5.44939">
        <ele>1134.49</ele>
        <time>2015-10-10T11:52:23Z</time>
      </trkpt>
      <trkpt lat="44.73275" lon="5.44933">
        <ele>1132.57</ele>
        <time>2015-10-10T11:52:29Z</time>
      </trkpt>
      <trkpt lat="44.7328" lon="5.44926">
        <ele>1129.69</ele>
        <time>2015-10-10T11:52:35Z</time>
      </trkpt>
      <trkpt lat="44.7328" lon="5.44921">
        <ele>1127.28</ele>
        <time>2015-10-10T11:52:39Z</time>
      </trkpt>
      <trkpt lat="44.73278" lon="5.4492">
        <ele>1126.8</ele>
        <time>2015-10-10T11:52:42Z</time>
      </trkpt>
      <trkpt lat="44.73277" lon="5.44917">
        <ele>1125.36</ele>
        <time>2015-10-10T11:52:45Z</time>
      </trkpt>
      <trkpt lat="44.73275" lon="5.44912">
        <ele>1123.92</ele>
        <time>2015-10-10T11:52:50Z</time>
      </trkpt>
      <trkpt lat="44.73276" lon="5.4491">
        <ele>1122.96</ele>
        <time>2015-10-10T11:52:54Z</time>
      </trkpt>
      <trkpt lat="44.73276" lon="5.44909">
        <ele>1121.52</ele>
        <time>2015-10-10T11:52:57Z</time>
      </trkpt>
      <trkpt lat="44.73279" lon="5.44896">
        <ele>1118.63</ele>
        <time>2015-10-10T11:53:06Z</time>
      </trkpt>
      <trkpt lat="44.73285" lon="5.44885">
        <ele>1116.23</ele>
        <time>2015-10-10T11:53:12Z</time>
      </trkpt>
      <trkpt lat="44.73292" lon="5.44875">
        <ele>1113.82</ele>
        <time>2015-10-10T11:53:20Z</time>
      </trkpt>
      <trkpt lat="44.7329" lon="5.4487">
        <ele>1112.38</ele>
        <time>2015-10-10T11:53:25Z</time>
      </trkpt>
      <trkpt lat="44.73288" lon="5.44868">
        <ele>1110.46</ele>
        <time>2015-10-10T11:53:32Z</time>
      </trkpt>
      <trkpt lat="44.73286" lon="5.44868">
        <ele>1109.02</ele>
        <time>2015-10-10T11:53:34Z</time>
      </trkpt>
      <trkpt lat="44.73285" lon="5.44868">
        <ele>1108.54</ele>
        <time>2015-10-10T11:53:35Z</time>
      </trkpt>
      <trkpt lat="44.73281" lon="5.44867">
        <ele>1106.13</ele>
        <time>2015-10-10T11:53:40Z</time>
      </trkpt>
      <trkpt lat="44.7328" lon="5.44868">
        <ele>1105.17</ele>
        <time>2015-10-10T11:53:42Z</time>
      </trkpt>
      <trkpt lat="44.73275" lon="5.44873">
        <ele>1103.25</ele>
        <time>2015-10-10T11:53:47Z</time>
      </trkpt>
      <trkpt lat="44.73274" lon="5.44873">
        <ele>1103.25</ele>
        <time>2015-10-10T11:53:48Z</time>
      </trkpt>
      <trkpt lat="44.73269" lon="5.44881">
        <ele>1101.33</ele>
        <time>2015-10-10T11:53:55Z</time>
      </trkpt>
      <trkpt lat="44.73264" lon="5.44883">
        <ele>1100.37</ele>
        <time>2015-10-10T11:54:00Z</time>
      </trkpt>
      <trkpt lat="44.73261" lon="5.44883">
        <ele>1098.92</ele>
        <time>2015-10-10T11:54:02Z</time>
      </trkpt>
      <trkpt lat="44.73251" lon="5.44883">
        <ele>1096.52</ele>
        <time>2015-10-10T11:54:10Z</time>
      </trkpt>
      <trkpt lat="44.73252" lon="5.44879">
        <ele>1095.08</ele>
        <time>2015-10-10T11:54:14Z</time>
      </trkpt>
      <trkpt lat="44.73254" lon="5.44872">
        <ele>1093.16</ele>
        <time>2015-10-10T11:54:19Z</time>
      </trkpt>
      <trkpt lat="44.73256" lon="5.44865">
        <ele>1091.23</ele>
        <time>2015-10-10T11:54:26Z</time>
      </trkpt>
      <trkpt lat="44.73257" lon="5.4486">
        <ele>1089.31</ele>
        <time>2015-10-10T11:54:29Z</time>
      </trkpt>
      <trkpt lat="44.73255" lon="5.4486">
        <ele>1087.39</ele>
        <time>2015-10-10T11:54:33Z</time>
      </trkpt>
      <trkpt lat="44.7325" lon="5.44862">
        <ele>1084.02</ele>
        <time>2015-10-10T11:54:39Z</time>
      </trkpt>
      <trkpt lat="44.73248" lon="5.44861">
        <ele>1082.58</ele>
        <time>2015-10-10T11:54:42Z</time>
      </trkpt>
      <trkpt lat="44.73248" lon="5.44851">
        <ele>1079.22</ele>
        <time>2015-10-10T11:54:50Z</time>
      </trkpt>
      <trkpt lat="44.73247" lon="5.44844">
        <ele>1077.29</ele>
        <time>2015-10-10T11:54:55Z</time>
      </trkpt>
      <trkpt lat="44.73247" lon="5.4484">
        <ele>1076.33</ele>
        <time>2015-10-10T11:54:57Z</time>
      </trkpt>
      <trkpt lat="44.7325" lon="5.44833">
        <ele>1073.45</ele>
        <time>2015-10-10T11:55:01Z</time>
      </trkpt>
      <trkpt lat="44.73251" lon="5.44828">
        <ele>1072.49</ele>
        <time>2015-10-10T11:55:06Z</time>
      </trkpt>
      <trkpt lat="44.73255" lon="5.44821">
        <ele>1070.57</ele>
        <time>2015-10-10T11:55:17Z</time>
      </trkpt>
      <trkpt lat="44.73257" lon="5.44818">
        <ele>1069.12</ele>
        <time>2015-10-10T11:55:22Z</time>
      </trkpt>
      <trkpt lat="44.73255" lon="5.44817">
        <ele>1067.68</ele>
        <time>2015-10-10T11:55:26Z</time>
      </trkpt>
      <trkpt lat="44.73255" lon="5.44817">
        <ele>1066.72</ele>
        <time>2015-10-10T11:55:27Z</time>
      </trkpt>
      <trkpt lat="44.73251" lon="5.44819">
        <ele>1064.8</ele>
        <time>2015-10-10T11:55:31Z</time>
      </trkpt>
      <trkpt lat="44.73249" lon="5.4482">
        <ele>1064.32</ele>
        <time>2015-10-10T11:55:32Z</time>
      </trkpt>
      <trkpt lat="44.73245" lon="5.44819">
        <ele>1062.39</ele>
        <time>2015-10-10T11:55:35Z</time>
      </trkpt>
      <trkpt lat="44.73245" lon="5.44814">
        <ele>1060.47</ele>
        <time>2015-10-10T11:55:46Z</time>
      </trkpt>
      <trkpt lat="44.73245" lon="5.44814">
        <ele>1060.47</ele>
        <time>2015-10-10T11:55:47Z</time>
      </trkpt>
      <trkpt lat="44.73244" lon="5.44808">
        <ele>1058.55</ele>
        <time>2015-10-10T11:55:51Z</time>
      </trkpt>
      <trkpt lat="44.73246" lon="5.44801">
        <ele>1056.63</ele>
        <time>2015-10-10T11:55:58Z</time>
      </trkpt>
      <trkpt lat="44.73249" lon="5.44796">
        <ele>1055.67</ele>
        <time>2015-10-10T11:56:01Z</time>
      </trkpt>
      <trkpt lat="44.73258" lon="5.44776">
        <ele>1052.3</ele>
        <time>2015-10-10T11:56:12Z</time>
      </trkpt>
      <trkpt lat="44.7326" lon="5.44772">
        <ele>1050.86</ele>
        <time>2015-10-10T11:56:14Z</time>
      </trkpt>
      <trkpt lat="44.73261" lon="5.44769">
        <ele>1049.42</ele>
        <time>2015-10-10T11:56:16Z</time>
      </trkpt>
      <trkpt lat="44.73264" lon="5.44764">
        <ele>1047.49</ele>
        <time>2015-10-10T11:56:20Z</time>
      </trkpt>
      <trkpt lat="44.73268" lon="5.4476">
        <ele>1046.05</ele>
        <time>2015-10-10T11:56:24Z</time>
      </trkpt>
      <trkpt lat="44.73269" lon="5.44757">
        <ele>1045.57</ele>
        <time>2015-10-10T11:56:26Z</time>
      </trkpt>
      <trkpt lat="44.73272" lon="5.44752">
        <ele>1044.13</ele>
        <time>2015-10-10T11:56:29Z</time>
      </trkpt>
      <trkpt lat="44.73281" lon="5.44743">
        <ele>1040.28</ele>
        <time>2015-10-10T11:56:37Z</time>
      </trkpt>
      <trkpt lat="44.73283" lon="5.4474">
        <ele>1039.8</ele>
        <time>2015-10-10T11:56:39Z</time>
      </trkpt>
      <trkpt lat="44.73284" lon="5.44734">
        <ele>1037.4</ele>
        <time>2015-10-10T11:56:46Z</time>
      </trkpt>
      <trkpt lat="44.73288" lon="5.44729">
        <ele>1035.48</ele>
        <time>2015-10-10T11:56:51Z</time>
      </trkpt>
      <trkpt lat="44.73287" lon="5.44727">
        <ele>1035</ele>
        <time>2015-10-10T11:56:53Z</time>
      </trkpt>
      <trkpt lat="44.73286" lon="5.44726">
        <ele>1033.07</ele>
        <time>2015-10-10T11:56:58Z</time>
      </trkpt>
      <trkpt lat="44.73284" lon="5.44724">
        <ele>1031.63</ele>
        <time>2015-10-10T11:57:01Z</time>
      </trkpt>
      <trkpt lat="44.73281" lon="5.44723">
        <ele>1030.19</ele>
        <time>2015-10-10T11:57:04Z</time>
      </trkpt>
      <trkpt lat="44.7328" lon="5.44723">
        <ele>1029.23</ele>
        <time>2015-10-10T11:57:05Z</time>
      </trkpt>
      <trkpt lat="44.73276" lon="5.44721">
        <ele>1028.75</ele>
        <time>2015-10-10T11:57:09Z</time>
      </trkpt>
      <trkpt lat="44.73271" lon="5.44719">
        <ele>1026.83</ele>
        <time>2015-10-10T11:57:13Z</time>
      </trkpt>
      <trkpt lat="44.73267" lon="5.4472">
        <ele>1025.38</ele>
        <time>2015-10-10T11:57:16Z</time>
      </trkpt>
      <trkpt lat="44.73258" lon="5.4472">
        <ele>1021.54</ele>
        <time>2015-10-10T11:57:24Z</time>
      </trkpt>
      <trkpt lat="44.73257" lon="5.4472">
        <ele>1020.58</ele>
        <time>2015-10-10T11:57:26Z</time>
      </trkpt>
      <trkpt lat="44.73253" lon="5.44721">
        <ele>1018.65</ele>
        <time>2015-10-10T11:57:31Z</time>
      </trkpt>
      <trkpt lat="44.7325" lon="5.44722">
        <ele>1018.65</ele>
        <time>2015-10-10T11:57:33Z</time>
      </trkpt>
      <trkpt lat="44.73248" lon="5.44724">
        <ele>1018.17</ele>
        <time>2015-10-10T11:57:36Z</time>
      </trkpt>
      <trkpt lat="44.73239" lon="5.44729">
        <ele>1017.21</ele>
        <time>2015-10-10T11:57:45Z</time>
      </trkpt>
      <trkpt lat="44.73227" lon="5.44732">
        <ele>1014.33</ele>
        <time>2015-10-10T11:57:54Z</time>
      </trkpt>
      <trkpt lat="44.73225" lon="5.44732">
        <ele>1013.85</ele>
        <time>2015-10-10T11:57:55Z</time>
      </trkpt>
      <trkpt lat="44.73214" lon="5.44733">
        <ele>1010.48</ele>
        <time>2015-10-10T11:58:05Z</time>
      </trkpt>
      <trkpt lat="44.7321" lon="5.44733">
        <ele>1009.52</ele>
        <time>2015-10-10T11:58:08Z</time>
      </trkpt>
      <trkpt lat="44.73207" lon="5.44734">
        <ele>1009.52</ele>
        <time>2015-10-10T11:58:11Z</time>
      </trkpt>
      <trkpt lat="44.73198" lon="5.44733">
        <ele>1005.2</ele>
        <time>2015-10-10T11:58:20Z</time>
      </trkpt>
      <trkpt lat="44.73195" lon="5.44737">
        <ele>1004.23</ele>
        <time>2015-10-10T11:58:25Z</time>
      </trkpt>
      <trkpt lat="44.73189" lon="5.44736">
        <ele>1001.35</ele>
        <time>2015-10-10T11:58:32Z</time>
      </trkpt>
      <trkpt lat="44.73189" lon="5.44733">
        <ele>1000.87</ele>
        <time>2015-10-10T11:58:35Z</time>
      </trkpt>
      <trkpt lat="44.73191" lon="5.44727">
        <ele>997.99</ele>
        <time>2015-10-10T11:58:42Z</time>
      </trkpt>
      <trkpt lat="44.73193" lon="5.44723">
        <ele>996.54</ele>
        <time>2015-10-10T11:58:45Z</time>
      </trkpt>
      <trkpt lat="44.73197" lon="5.44718">
        <ele>995.1</ele>
        <time>2015-10-10T11:58:50Z</time>
      </trkpt>
      <trkpt lat="44.73198" lon="5.44716">
        <ele>994.14</ele>
        <time>2015-10-10T11:58:52Z</time>
      </trkpt>
      <trkpt lat="44.732" lon="5.44714">
        <ele>993.66</ele>
        <time>2015-10-10T11:58:54Z</time>
      </trkpt>
      <trkpt lat="44.73202" lon="5.44708">
        <ele>991.26</ele>
        <time>2015-10-10T11:59:00Z</time>
      </trkpt>
      <trkpt lat="44.73209" lon="5.44695">
        <ele>987.41</ele>
        <time>2015-10-10T11:59:11Z</time>
      </trkpt>
      <trkpt lat="44.73208" lon="5.44695">
        <ele>987.89</ele>
        <time>2015-10-10T11:59:12Z</time>
      </trkpt>
      <trkpt lat="44.73205" lon="5.44693">
        <ele>986.93</ele>
        <time>2015-10-10T11:59:15Z</time>
      </trkpt>
      <trkpt lat="44.73204" lon="5.44693">
        <ele>985.01</ele>
        <time>2015-10-10T11:59:19Z</time>
      </trkpt>
      <trkpt lat="44.73197" lon="5.44692">
        <ele>983.57</ele>
        <time>2015-10-10T11:59:24Z</time>
      </trkpt>
      <trkpt lat="44.73192" lon="5.4469">
        <ele>981.64</ele>
        <time>2015-10-10T11:59:27Z</time>
      </trkpt>
      <trkpt lat="44.73178" lon="5.44687">
        <ele>977.32</ele>
        <time>2015-10-10T11:59:39Z</time>
      </trkpt>
      <trkpt lat="44.73177" lon="5.44684">
        <ele>977.32</ele>
        <time>2015-10-10T11:59:41Z</time>
      </trkpt>
      <trkpt lat="44.73176" lon="5.44678">
        <ele>976.36</ele>
        <time>2015-10-10T11:59:45Z</time>
      </trkpt>
      <trkpt lat="44.7318" lon="5.44673">
        <ele>974.43</ele>
        <time>2015-10-10T11:59:50Z</time>
      </trkpt>
      <trkpt lat="44.73184" lon="5.44662">
        <ele>971.55</ele>
        <time>2015-10-10T11:59:58Z</time>
      </trkpt>
      <trkpt lat="44.73189" lon="5.44648">
        <ele>969.15</ele>
        <time>2015-10-10T12:00:07Z</time>
      </trkpt>
      <trkpt lat="44.73195" lon="5.44639">
        <ele>965.78</ele>
        <time>2015-10-10T12:00:15Z</time>
      </trkpt>
      <trkpt lat="44.73196" lon="5.44637">
        <ele>963.86</ele>
        <time>2015-10-10T12:00:18Z</time>
      </trkpt>
      <trkpt lat="44.73199" lon="5.44632">
        <ele>962.42</ele>
        <time>2015-10-10T12:00:22Z</time>
      </trkpt>
      <trkpt lat="44.73206" lon="5.44623">
        <ele>959.05</ele>
        <time>2015-10-10T12:00:28Z</time>
      </trkpt>
      <trkpt lat="44.73207" lon="5.44619">
        <ele>958.09</ele>
        <time>2015-10-10T12:00:30Z</time>
      </trkpt>
      <trkpt lat="44.7321" lon="5.44611">
        <ele>955.21</ele>
        <time>2015-10-10T12:00:34Z</time>
      </trkpt>
      <trkpt lat="44.73212" lon="5.44605">
        <ele>953.77</ele>
        <time>2015-10-10T12:00:37Z</time>
      </trkpt>
      <trkpt lat="44.73213" lon="5.44602">
        <ele>953.28</ele>
        <time>2015-10-10T12:00:38Z</time>
      </trkpt>
      <trkpt lat="44.73218" lon="5.44586">
        <ele>949.44</ele>
        <time>2015-10-10T12:00:45Z</time>
      </trkpt>
      <trkpt lat="44.7322" lon="5.44581">
        <ele>947.52</ele>
        <time>2015-10-10T12:00:47Z</time>
      </trkpt>
      <trkpt lat="44.73227" lon="5.44571">
        <ele>946.07</ele>
        <time>2015-10-10T12:00:52Z</time>
      </trkpt>
      <trkpt lat="44.73234" lon="5.44557">
        <ele>943.67</ele>
        <time>2015-10-10T12:01:02Z</time>
      </trkpt>
      <trkpt lat="44.73237" lon="5.44552">
        <ele>940.79</ele>
        <time>2015-10-10T12:01:12Z</time>
      </trkpt>
      <trkpt lat="44.7324" lon="5.44544">
        <ele>937.42</ele>
        <time>2015-10-10T12:01:21Z</time>
      </trkpt>
      <trkpt lat="44.73243" lon="5.44537">
        <ele>936.46</ele>
        <time>2015-10-10T12:01:32Z</time>
      </trkpt>
      <trkpt lat="44.73251" lon="5.44525">
        <ele>936.46</ele>
        <time>2015-10-10T12:01:43Z</time>
      </trkpt>
      <trkpt lat="44.73252" lon="5.44516">
        <ele>935.5</ele>
        <time>2015-10-10T12:01:49Z</time>
      </trkpt>
      <trkpt lat="44.73254" lon="5.44504">
        <ele>934.54</ele>
        <time>2015-10-10T12:01:54Z</time>
      </trkpt>
      <trkpt lat="44.73257" lon="5.44486">
        <ele>933.58</ele>
        <time>2015-10-10T12:02:05Z</time>
      </trkpt>
      <trkpt lat="44.73259" lon="5.44482">
        <ele>933.58</ele>
        <time>2015-10-10T12:02:07Z</time>
      </trkpt>
      <trkpt lat="44.73266" lon="5.44473">
        <ele>932.14</ele>
        <time>2015-10-10T12:02:13Z</time>
      </trkpt>
      <trkpt lat="44.73268" lon="5.44469">
        <ele>930.69</ele>
        <time>2015-10-10T12:02:15Z</time>
      </trkpt>
      <trkpt lat="44.73271" lon="5.44461">
        <ele>930.69</ele>
        <time>2015-10-10T12:02:19Z</time>
      </trkpt>
      <trkpt lat="44.73274" lon="5.44451">
        <ele>929.73</ele>
        <time>2015-10-10T12:02:33Z</time>
      </trkpt>
      <trkpt lat="44.73275" lon="5.44451">
        <ele>927.81</ele>
        <time>2015-10-10T12:02:36Z</time>
      </trkpt>
      <trkpt lat="44.73276" lon="5.44451">
        <ele>929.25</ele>
        <time>2015-10-10T12:02:39Z</time>
      </trkpt>
      <trkpt lat="44.73276" lon="5.44451">
        <ele>932.62</ele>
        <time>2015-10-10T12:02:43Z</time>
      </trkpt>
      <trkpt lat="44.73276" lon="5.44451">
        <ele>922.52</ele>
        <time>2015-10-10T12:02:44Z</time>
      </trkpt>
      <trkpt lat="44.73276" lon="5.44451">
        <ele>937.9</ele>
        <time>2015-10-10T12:02:45Z</time>
      </trkpt>
      <trkpt lat="44.73276" lon="5.44451">
        <ele>929.73</ele>
        <time>2015-10-10T12:02:46Z</time>
      </trkpt>
      <trkpt lat="44.73276" lon="5.44451">
        <ele>925.41</ele>
        <time>2015-10-10T12:02:52Z</time>
      </trkpt>
      <trkpt lat="44.73276" lon="5.44451">
        <ele>933.1</ele>
        <time>2015-10-10T12:02:53Z</time>
      </trkpt>
      <trkpt lat="44.73277" lon="5.44451">
        <ele>929.73</ele>
        <time>2015-10-10T12:02:54Z</time>
      </trkpt>
      <trkpt lat="44.73277" lon="5.44451">
        <ele>923.96</ele>
        <time>2015-10-10T12:03:00Z</time>
      </trkpt>
      <trkpt lat="44.73277" lon="5.44451">
        <ele>930.21</ele>
        <time>2015-10-10T12:03:01Z</time>
      </trkpt>
      <trkpt lat="44.73277" lon="5.44452">
        <ele>924.93</ele>
        <time>2015-10-10T12:03:13Z</time>
      </trkpt>
      <trkpt lat="44.73277" lon="5.44452">
        <ele>930.21</ele>
        <time>2015-10-10T12:03:14Z</time>
      </trkpt>
      <trkpt lat="44.73277" lon="5.44452">
        <ele>922.52</ele>
        <time>2015-10-10T12:03:15Z</time>
      </trkpt>
      <trkpt lat="44.73277" lon="5.44452">
        <ele>930.21</ele>
        <time>2015-10-10T12:03:16Z</time>
      </trkpt>
      <trkpt lat="44.73277" lon="5.44451">
        <ele>923.48</ele>
        <time>2015-10-10T12:03:20Z</time>
      </trkpt>
      <trkpt lat="44.73277" lon="5.44451">
        <ele>934.06</ele>
        <time>2015-10-10T12:03:21Z</time>
      </trkpt>
      <trkpt lat="44.73277" lon="5.44451">
        <ele>929.73</ele>
        <time>2015-10-10T12:03:22Z</time>
      </trkpt>
      <trkpt lat="44.73277" lon="5.44451">
        <ele>923.48</ele>
        <time>2015-10-10T12:03:25Z</time>
      </trkpt>
      <trkpt lat="44.73277" lon="5.44451">
        <ele>931.17</ele>
        <time>2015-10-10T12:03:26Z</time>
      </trkpt>
      <trkpt lat="44.73277" lon="5.44451">
        <ele>929.73</ele>
        <time>2015-10-10T12:03:42Z</time>
      </trkpt>
      <trkpt lat="44.73279" lon="5.44452">
        <ele>929.73</ele>
        <time>2015-10-10T12:04:01Z</time>
      </trkpt>
      <trkpt lat="44.73283" lon="5.44473">
        <ele>932.14</ele>
        <time>2015-10-10T12:04:14Z</time>
      </trkpt>
      <trkpt lat="44.73284" lon="5.44476">
        <ele>931.65</ele>
        <time>2015-10-10T12:04:16Z</time>
      </trkpt>
      <trkpt lat="44.73285" lon="5.44478">
        <ele>932.62</ele>
        <time>2015-10-10T12:04:18Z</time>
      </trkpt>
      <trkpt lat="44.73287" lon="5.4449">
        <ele>942.71</ele>
        <time>2015-10-10T12:04:25Z</time>
      </trkpt>
      <trkpt lat="44.73298" lon="5.44512">
        <ele>934.54</ele>
        <time>2015-10-10T12:04:40Z</time>
      </trkpt>
      <trkpt lat="44.7331" lon="5.44529">
        <ele>937.9</ele>
        <time>2015-10-10T12:04:56Z</time>
      </trkpt>
      <trkpt lat="44.73311" lon="5.44532">
        <ele>936.94</ele>
        <time>2015-10-10T12:05:14Z</time>
      </trkpt>
      <trkpt lat="44.73321" lon="5.44547">
        <ele>939.83</ele>
        <time>2015-10-10T12:05:29Z</time>
      </trkpt>
      <trkpt lat="44.73334" lon="5.44562">
        <ele>940.79</ele>
        <time>2015-10-10T12:05:43Z</time>
      </trkpt>
      <trkpt lat="44.73345" lon="5.44574">
        <ele>942.71</ele>
        <time>2015-10-10T12:05:57Z</time>
      </trkpt>
      <trkpt lat="44.73359" lon="5.44589">
        <ele>945.11</ele>
        <time>2015-10-10T12:06:11Z</time>
      </trkpt>
      <trkpt lat="44.73364" lon="5.44594">
        <ele>937.42</ele>
        <time>2015-10-10T12:06:15Z</time>
      </trkpt>
      <trkpt lat="44.73365" lon="5.44596">
        <ele>948.96</ele>
        <time>2015-10-10T12:06:16Z</time>
      </trkpt>
      <trkpt lat="44.73367" lon="5.44599">
        <ele>943.19</ele>
        <time>2015-10-10T12:06:18Z</time>
      </trkpt>
      <trkpt lat="44.73368" lon="5.446">
        <ele>948</ele>
        <time>2015-10-10T12:06:19Z</time>
      </trkpt>
      <trkpt lat="44.73374" lon="5.44606">
        <ele>944.63</ele>
        <time>2015-10-10T12:06:27Z</time>
      </trkpt>
      <trkpt lat="44.73374" lon="5.44606">
        <ele>945.11</ele>
        <time>2015-10-10T12:06:28Z</time>
      </trkpt>
      <trkpt lat="44.73373" lon="5.44607">
        <ele>932.14</ele>
        <time>2015-10-10T12:06:32Z</time>
      </trkpt>
      <trkpt lat="44.73373" lon="5.44607">
        <ele>948.48</ele>
        <time>2015-10-10T12:06:33Z</time>
      </trkpt>
      <trkpt lat="44.73374" lon="5.44607">
        <ele>939.83</ele>
        <time>2015-10-10T12:06:37Z</time>
      </trkpt>
      <trkpt lat="44.73374" lon="5.44607">
        <ele>948.48</ele>
        <time>2015-10-10T12:06:38Z</time>
      </trkpt>
      <trkpt lat="44.73374" lon="5.44608">
        <ele>929.25</ele>
        <time>2015-10-10T12:06:43Z</time>
      </trkpt>
      <trkpt lat="44.73374" lon="5.44608">
        <ele>951.36</ele>
        <time>2015-10-10T12:06:44Z</time>
      </trkpt>
      <trkpt lat="44.73375" lon="5.44608">
        <ele>928.29</ele>
        <time>2015-10-10T12:06:45Z</time>
      </trkpt>
      <trkpt lat="44.73375" lon="5.44608">
        <ele>948.96</ele>
        <time>2015-10-10T12:06:46Z</time>
      </trkpt>
      <trkpt lat="44.73375" lon="5.44608">
        <ele>934.54</ele>
        <time>2015-10-10T12:06:47Z</time>
      </trkpt>
      <trkpt lat="44.73375" lon="5.44608">
        <ele>947.52</ele>
        <time>2015-10-10T12:06:48Z</time>
      </trkpt>
      <trkpt lat="44.73375" lon="5.44608">
        <ele>958.09</ele>
        <time>2015-10-10T12:06:49Z</time>
      </trkpt>
      <trkpt lat="44.73375" lon="5.44608">
        <ele>943.19</ele>
        <time>2015-10-10T12:06:50Z</time>
      </trkpt>
      <trkpt lat="44.73375" lon="5.44608">
        <ele>947.04</ele>
        <time>2015-10-10T12:06:51Z</time>
      </trkpt>
      <trkpt lat="44.73375" lon="5.44608">
        <ele>943.67</ele>
        <time>2015-10-10T12:06:53Z</time>
      </trkpt>
      <trkpt lat="44.73375" lon="5.44608">
        <ele>958.57</ele>
        <time>2015-10-10T12:06:54Z</time>
      </trkpt>
      <trkpt lat="44.73375" lon="5.44608">
        <ele>946.07</ele>
        <time>2015-10-10T12:06:55Z</time>
      </trkpt>
      <trkpt lat="44.73375" lon="5.44608">
        <ele>939.83</ele>
        <time>2015-10-10T12:06:57Z</time>
      </trkpt>
      <trkpt lat="44.73375" lon="5.44608">
        <ele>948.96</ele>
        <time>2015-10-10T12:06:58Z</time>
      </trkpt>
      <trkpt lat="44.73375" lon="5.44608">
        <ele>971.07</ele>
        <time>2015-10-10T12:06:59Z</time>
      </trkpt>
      <trkpt lat="44.73375" lon="5.44608">
        <ele>948</ele>
        <time>2015-10-10T12:07:00Z</time>
      </trkpt>
      <trkpt lat="44.73375" lon="5.44608">
        <ele>953.77</ele>
        <time>2015-10-10T12:07:01Z</time>
      </trkpt>
      <trkpt lat="44.73375" lon="5.44608">
        <ele>970.11</ele>
        <time>2015-10-10T12:07:02Z</time>
      </trkpt>
      <trkpt lat="44.73375" lon="5.44608">
        <ele>948</ele>
        <time>2015-10-10T12:07:03Z</time>
      </trkpt>
      <trkpt lat="44.73375" lon="5.44608">
        <ele>962.42</ele>
        <time>2015-10-10T12:07:04Z</time>
      </trkpt>
      <trkpt lat="44.73375" lon="5.44608">
        <ele>943.19</ele>
        <time>2015-10-10T12:07:05Z</time>
      </trkpt>
      <trkpt lat="44.73375" lon="5.44608">
        <ele>959.53</ele>
        <time>2015-10-10T12:07:06Z</time>
      </trkpt>
      <trkpt lat="44.73375" lon="5.44608">
        <ele>946.56</ele>
        <time>2015-10-10T12:07:07Z</time>
      </trkpt>
      <trkpt lat="44.73375" lon="5.44608">
        <ele>952.8</ele>
        <time>2015-10-10T12:07:08Z</time>
      </trkpt>
      <trkpt lat="44.73375" lon="5.44608">
        <ele>948</ele>
        <time>2015-10-10T12:07:09Z</time>
      </trkpt>
      <trkpt lat="44.73375" lon="5.44608">
        <ele>933.58</ele>
        <time>2015-10-10T12:07:10Z</time>
      </trkpt>
      <trkpt lat="44.73375" lon="5.44608">
        <ele>948.48</ele>
        <time>2015-10-10T12:07:11Z</time>
      </trkpt>
      <trkpt lat="44.73375" lon="5.44608">
        <ele>945.11</ele>
        <time>2015-10-10T12:07:12Z</time>
      </trkpt>
      <trkpt lat="44.73375" lon="5.44609">
        <ele>949.44</ele>
        <time>2015-10-10T12:07:14Z</time>
      </trkpt>
      <trkpt lat="44.73375" lon="5.44609">
        <ele>937.42</ele>
        <time>2015-10-10T12:07:16Z</time>
      </trkpt>
      <trkpt lat="44.73375" lon="5.44609">
        <ele>950.4</ele>
        <time>2015-10-10T12:07:17Z</time>
      </trkpt>
      <trkpt lat="44.73375" lon="5.44609">
        <ele>946.56</ele>
        <time>2015-10-10T12:07:18Z</time>
      </trkpt>
      <trkpt lat="44.73376" lon="5.44609">
        <ele>946.07</ele>
        <time>2015-10-10T12:07:23Z</time>
      </trkpt>
      <trkpt lat="44.73383" lon="5.44618">
        <ele>948.96</ele>
        <time>2015-10-10T12:07:33Z</time>
      </trkpt>
      <trkpt lat="44.73387" lon="5.44623">
        <ele>948.96</ele>
        <time>2015-10-10T12:07:37Z</time>
      </trkpt>
      <trkpt lat="44.734" lon="5.44641">
        <ele>950.4</ele>
        <time>2015-10-10T12:07:50Z</time>
      </trkpt>
      <trkpt lat="44.73401" lon="5.44642">
        <ele>949.44</ele>
        <time>2015-10-10T12:07:51Z</time>
      </trkpt>
      <trkpt lat="44.73415" lon="5.44665">
        <ele>953.28</ele>
        <time>2015-10-10T12:08:06Z</time>
      </trkpt>
      <trkpt lat="44.73429" lon="5.44691">
        <ele>956.17</ele>
        <time>2015-10-10T12:08:25Z</time>
      </trkpt>
      <trkpt lat="44.73437" lon="5.44717">
        <ele>958.09</ele>
        <time>2015-10-10T12:08:41Z</time>
      </trkpt>
      <trkpt lat="44.7344" lon="5.44725">
        <ele>959.05</ele>
        <time>2015-10-10T12:08:46Z</time>
      </trkpt>
      <trkpt lat="44.73454" lon="5.44751">
        <ele>960.98</ele>
        <time>2015-10-10T12:09:04Z</time>
      </trkpt>
      <trkpt lat="44.73461" lon="5.44769">
        <ele>962.42</ele>
        <time>2015-10-10T12:09:17Z</time>
      </trkpt>
      <trkpt lat="44.73466" lon="5.44794">
        <ele>966.26</ele>
        <time>2015-10-10T12:09:32Z</time>
      </trkpt>
      <trkpt lat="44.73469" lon="5.44798">
        <ele>964.34</ele>
        <time>2015-10-10T12:09:35Z</time>
      </trkpt>
      <trkpt lat="44.73475" lon="5.44809">
        <ele>967.7</ele>
        <time>2015-10-10T12:09:43Z</time>
      </trkpt>
      <trkpt lat="44.73484" lon="5.44834">
        <ele>968.18</ele>
        <time>2015-10-10T12:09:59Z</time>
      </trkpt>
      <trkpt lat="44.73493" lon="5.44851">
        <ele>970.59</ele>
        <time>2015-10-10T12:10:10Z</time>
      </trkpt>
      <trkpt lat="44.73496" lon="5.44859">
        <ele>969.63</ele>
        <time>2015-10-10T12:10:14Z</time>
      </trkpt>
      <trkpt lat="44.735" lon="5.44866">
        <ele>971.55</ele>
        <time>2015-10-10T12:10:19Z</time>
      </trkpt>
      <trkpt lat="44.73502" lon="5.44878">
        <ele>972.51</ele>
        <time>2015-10-10T12:10:27Z</time>
      </trkpt>
      <trkpt lat="44.73503" lon="5.44885">
        <ele>972.99</ele>
        <time>2015-10-10T12:10:31Z</time>
      </trkpt>
      <trkpt lat="44.73502" lon="5.44893">
        <ele>973.47</ele>
        <time>2015-10-10T12:10:35Z</time>
      </trkpt>
      <trkpt lat="44.7351" lon="5.44913">
        <ele>973.95</ele>
        <time>2015-10-10T12:10:49Z</time>
      </trkpt>
      <trkpt lat="44.73515" lon="5.44923">
        <ele>976.36</ele>
        <time>2015-10-10T12:10:56Z</time>
      </trkpt>
      <trkpt lat="44.73518" lon="5.44928">
        <ele>976.84</ele>
        <time>2015-10-10T12:11:01Z</time>
      </trkpt>
      <trkpt lat="44.73526" lon="5.44943">
        <ele>978.76</ele>
        <time>2015-10-10T12:11:10Z</time>
      </trkpt>
      <trkpt lat="44.7352" lon="5.44961">
        <ele>980.68</ele>
        <time>2015-10-10T12:11:24Z</time>
      </trkpt>
      <trkpt lat="44.73521" lon="5.44971">
        <ele>982.6</ele>
        <time>2015-10-10T12:11:31Z</time>
      </trkpt>
      <trkpt lat="44.73523" lon="5.44973">
        <ele>982.12</ele>
        <time>2015-10-10T12:11:35Z</time>
      </trkpt>
      <trkpt lat="44.7353" lon="5.44987">
        <ele>982.6</ele>
        <time>2015-10-10T12:11:44Z</time>
      </trkpt>
      <trkpt lat="44.73528" lon="5.44995">
        <ele>983.09</ele>
        <time>2015-10-10T12:11:48Z</time>
      </trkpt>
      <trkpt lat="44.73525" lon="5.45003">
        <ele>982.6</ele>
        <time>2015-10-10T12:11:53Z</time>
      </trkpt>
      <trkpt lat="44.73524" lon="5.45007">
        <ele>984.05</ele>
        <time>2015-10-10T12:11:55Z</time>
      </trkpt>
      <trkpt lat="44.73528" lon="5.45024">
        <ele>985.49</ele>
        <time>2015-10-10T12:12:05Z</time>
      </trkpt>
      <trkpt lat="44.73528" lon="5.45029">
        <ele>985.49</ele>
        <time>2015-10-10T12:12:08Z</time>
      </trkpt>
      <trkpt lat="44.73529" lon="5.45052">
        <ele>987.89</ele>
        <time>2015-10-10T12:12:23Z</time>
      </trkpt>
      <trkpt lat="44.73529" lon="5.45056">
        <ele>988.37</ele>
        <time>2015-10-10T12:12:26Z</time>
      </trkpt>
      <trkpt lat="44.73539" lon="5.45069">
        <ele>987.41</ele>
        <time>2015-10-10T12:12:38Z</time>
      </trkpt>
      <trkpt lat="44.73542" lon="5.45082">
        <ele>987.41</ele>
        <time>2015-10-10T12:12:46Z</time>
      </trkpt>
      <trkpt lat="44.73543" lon="5.4509">
        <ele>988.37</ele>
        <time>2015-10-10T12:12:55Z</time>
      </trkpt>
      <trkpt lat="44.73558" lon="5.45092">
        <ele>987.89</ele>
        <time>2015-10-10T12:13:06Z</time>
      </trkpt>
      <trkpt lat="44.73577" lon="5.45101">
        <ele>988.85</ele>
        <time>2015-10-10T12:13:19Z</time>
      </trkpt>
      <trkpt lat="44.73591" lon="5.45119">
        <ele>991.26</ele>
        <time>2015-10-10T12:13:35Z</time>
      </trkpt>
      <trkpt lat="44.73596" lon="5.45122">
        <ele>991.26</ele>
        <time>2015-10-10T12:13:39Z</time>
      </trkpt>
      <trkpt lat="44.73603" lon="5.45117">
        <ele>992.7</ele>
        <time>2015-10-10T12:13:44Z</time>
      </trkpt>
      <trkpt lat="44.73607" lon="5.45122">
        <ele>991.74</ele>
        <time>2015-10-10T12:13:48Z</time>
      </trkpt>
      <trkpt lat="44.73615" lon="5.45123">
        <ele>992.22</ele>
        <time>2015-10-10T12:14:02Z</time>
      </trkpt>
      <trkpt lat="44.73618" lon="5.45122">
        <ele>993.18</ele>
        <time>2015-10-10T12:14:05Z</time>
      </trkpt>
      <trkpt lat="44.73619" lon="5.45121">
        <ele>993.66</ele>
        <time>2015-10-10T12:14:06Z</time>
      </trkpt>
      <trkpt lat="44.73624" lon="5.45112">
        <ele>993.18</ele>
        <time>2015-10-10T12:14:15Z</time>
      </trkpt>
      <trkpt lat="44.7363" lon="5.45092">
        <ele>992.7</ele>
        <time>2015-10-10T12:14:27Z</time>
      </trkpt>
      <trkpt lat="44.7363" lon="5.4509">
        <ele>993.66</ele>
        <time>2015-10-10T12:14:28Z</time>
      </trkpt>
      <trkpt lat="44.73635" lon="5.45083">
        <ele>994.62</ele>
        <time>2015-10-10T12:14:33Z</time>
      </trkpt>
      <trkpt lat="44.73636" lon="5.45086">
        <ele>996.06</ele>
        <time>2015-10-10T12:14:38Z</time>
      </trkpt>
      <trkpt lat="44.73635" lon="5.45091">
        <ele>997.02</ele>
        <time>2015-10-10T12:14:42Z</time>
      </trkpt>
      <trkpt lat="44.73637" lon="5.45098">
        <ele>997.51</ele>
        <time>2015-10-10T12:14:47Z</time>
      </trkpt>
      <trkpt lat="44.73635" lon="5.45112">
        <ele>999.43</ele>
        <time>2015-10-10T12:14:58Z</time>
      </trkpt>
      <trkpt lat="44.73634" lon="5.45125">
        <ele>1002.79</ele>
        <time>2015-10-10T12:15:08Z</time>
      </trkpt>
      <trkpt lat="44.73641" lon="5.45113">
        <ele>1004.72</ele>
        <time>2015-10-10T12:15:21Z</time>
      </trkpt>
      <trkpt lat="44.73646" lon="5.45107">
        <ele>1006.16</ele>
        <time>2015-10-10T12:15:28Z</time>
      </trkpt>
      <trkpt lat="44.73651" lon="5.45099">
        <ele>1006.64</ele>
        <time>2015-10-10T12:15:34Z</time>
      </trkpt>
      <trkpt lat="44.73662" lon="5.45095">
        <ele>1009.52</ele>
        <time>2015-10-10T12:15:46Z</time>
      </trkpt>
      <trkpt lat="44.73667" lon="5.45097">
        <ele>1010.48</ele>
        <time>2015-10-10T12:15:51Z</time>
      </trkpt>
      <trkpt lat="44.73672" lon="5.45103">
        <ele>1012.89</ele>
        <time>2015-10-10T12:15:56Z</time>
      </trkpt>
      <trkpt lat="44.73684" lon="5.45102">
        <ele>1011.93</ele>
        <time>2015-10-10T12:16:08Z</time>
      </trkpt>
      <trkpt lat="44.73704" lon="5.45097">
        <ele>1013.37</ele>
        <time>2015-10-10T12:16:21Z</time>
      </trkpt>
      <trkpt lat="44.7372" lon="5.451">
        <ele>1010.96</ele>
        <time>2015-10-10T12:16:36Z</time>
      </trkpt>
      <trkpt lat="44.73725" lon="5.45104">
        <ele>1009.52</ele>
        <time>2015-10-10T12:16:42Z</time>
      </trkpt>
      <trkpt lat="44.73728" lon="5.45113">
        <ele>1011.44</ele>
        <time>2015-10-10T12:16:50Z</time>
      </trkpt>
      <trkpt lat="44.73741" lon="5.45123">
        <ele>1011.44</ele>
        <time>2015-10-10T12:17:00Z</time>
      </trkpt>
      <trkpt lat="44.73755" lon="5.45128">
        <ele>1011.93</ele>
        <time>2015-10-10T12:17:09Z</time>
      </trkpt>
      <trkpt lat="44.7376" lon="5.45132">
        <ele>1014.81</ele>
        <time>2015-10-10T12:17:13Z</time>
      </trkpt>
      <trkpt lat="44.73777" lon="5.45136">
        <ele>1016.25</ele>
        <time>2015-10-10T12:17:30Z</time>
      </trkpt>
      <trkpt lat="44.73793" lon="5.45135">
        <ele>1018.65</ele>
        <time>2015-10-10T12:17:44Z</time>
      </trkpt>
      <trkpt lat="44.73802" lon="5.45132">
        <ele>1017.69</ele>
        <time>2015-10-10T12:18:00Z</time>
      </trkpt>
      <trkpt lat="44.73798" lon="5.45128">
        <ele>1019.13</ele>
        <time>2015-10-10T12:18:12Z</time>
      </trkpt>
      <trkpt lat="44.73797" lon="5.45128">
        <ele>1019.62</ele>
        <time>2015-10-10T12:18:14Z</time>
      </trkpt>
      <trkpt lat="44.73791" lon="5.45123">
        <ele>1020.1</ele>
        <time>2015-10-10T12:18:21Z</time>
      </trkpt>
      <trkpt lat="44.73792" lon="5.45109">
        <ele>1021.06</ele>
        <time>2015-10-10T12:18:29Z</time>
      </trkpt>
      <trkpt lat="44.73793" lon="5.45103">
        <ele>1021.54</ele>
        <time>2015-10-10T12:18:33Z</time>
      </trkpt>
      <trkpt lat="44.73793" lon="5.4508">
        <ele>1021.54</ele>
        <time>2015-10-10T12:18:44Z</time>
      </trkpt>
      <trkpt lat="44.73795" lon="5.45065">
        <ele>1021.06</ele>
        <time>2015-10-10T12:18:53Z</time>
      </trkpt>
      <trkpt lat="44.73799" lon="5.45062">
        <ele>1022.02</ele>
        <time>2015-10-10T12:18:56Z</time>
      </trkpt>
      <trkpt lat="44.738" lon="5.4506">
        <ele>1022.02</ele>
        <time>2015-10-10T12:18:57Z</time>
      </trkpt>
      <trkpt lat="44.73793" lon="5.45039">
        <ele>1021.06</ele>
        <time>2015-10-10T12:19:11Z</time>
      </trkpt>
      <trkpt lat="44.73792" lon="5.45025">
        <ele>1018.65</ele>
        <time>2015-10-10T12:19:20Z</time>
      </trkpt>
      <trkpt lat="44.73787" lon="5.4501">
        <ele>1020.58</ele>
        <time>2015-10-10T12:19:27Z</time>
      </trkpt>
      <trkpt lat="44.73784" lon="5.45001">
        <ele>1018.17</ele>
        <time>2015-10-10T12:19:33Z</time>
      </trkpt>
      <trkpt lat="44.73781" lon="5.44992">
        <ele>1018.65</ele>
        <time>2015-10-10T12:19:38Z</time>
      </trkpt>
      <trkpt lat="44.73776" lon="5.44983">
        <ele>1018.65</ele>
        <time>2015-10-10T12:19:45Z</time>
      </trkpt>
      <trkpt lat="44.73782" lon="5.44971">
        <ele>1018.17</ele>
        <time>2015-10-10T12:19:54Z</time>
      </trkpt>
      <trkpt lat="44.73782" lon="5.4497">
        <ele>1018.65</ele>
        <time>2015-10-10T12:19:55Z</time>
      </trkpt>
      <trkpt lat="44.73794" lon="5.4496">
        <ele>1018.17</ele>
        <time>2015-10-10T12:20:07Z</time>
      </trkpt>
      <trkpt lat="44.73798" lon="5.44956">
        <ele>1020.1</ele>
        <time>2015-10-10T12:20:11Z</time>
      </trkpt>
      <trkpt lat="44.73812" lon="5.44948">
        <ele>1021.06</ele>
        <time>2015-10-10T12:20:22Z</time>
      </trkpt>
      <trkpt lat="44.73814" lon="5.44937">
        <ele>1022.02</ele>
        <time>2015-10-10T12:20:33Z</time>
      </trkpt>
      <trkpt lat="44.7381" lon="5.44926">
        <ele>1023.46</ele>
        <time>2015-10-10T12:20:40Z</time>
      </trkpt>
      <trkpt lat="44.73811" lon="5.44922">
        <ele>1022.5</ele>
        <time>2015-10-10T12:20:43Z</time>
      </trkpt>
      <trkpt lat="44.73824" lon="5.44906">
        <ele>1024.42</ele>
        <time>2015-10-10T12:20:57Z</time>
      </trkpt>
      <trkpt lat="44.73827" lon="5.44904">
        <ele>1022.98</ele>
        <time>2015-10-10T12:20:59Z</time>
      </trkpt>
      <trkpt lat="44.73827" lon="5.44903">
        <ele>1023.94</ele>
        <time>2015-10-10T12:21:00Z</time>
      </trkpt>
      <trkpt lat="44.7383" lon="5.44898">
        <ele>1025.38</ele>
        <time>2015-10-10T12:21:03Z</time>
      </trkpt>
      <trkpt lat="44.73837" lon="5.44887">
        <ele>1025.38</ele>
        <time>2015-10-10T12:21:14Z</time>
      </trkpt>
      <trkpt lat="44.73842" lon="5.44883">
        <ele>1028.75</ele>
        <time>2015-10-10T12:21:20Z</time>
      </trkpt>
      <trkpt lat="44.73843" lon="5.44881">
        <ele>1027.31</ele>
        <time>2015-10-10T12:21:21Z</time>
      </trkpt>
      <trkpt lat="44.73847" lon="5.44872">
        <ele>1029.71</ele>
        <time>2015-10-10T12:21:26Z</time>
      </trkpt>
      <trkpt lat="44.73851" lon="5.44858">
        <ele>1029.23</ele>
        <time>2015-10-10T12:21:34Z</time>
      </trkpt>
      <trkpt lat="44.7385" lon="5.44841">
        <ele>1029.71</ele>
        <time>2015-10-10T12:21:43Z</time>
      </trkpt>
      <trkpt lat="44.73853" lon="5.44832">
        <ele>1029.23</ele>
        <time>2015-10-10T12:21:49Z</time>
      </trkpt>
      <trkpt lat="44.73856" lon="5.44828">
        <ele>1029.23</ele>
        <time>2015-10-10T12:21:52Z</time>
      </trkpt>
      <trkpt lat="44.73865" lon="5.44821">
        <ele>1030.19</ele>
        <time>2015-10-10T12:22:00Z</time>
      </trkpt>
      <trkpt lat="44.73868" lon="5.44819">
        <ele>1031.15</ele>
        <time>2015-10-10T12:22:02Z</time>
      </trkpt>
      <trkpt lat="44.73875" lon="5.44815">
        <ele>1032.11</ele>
        <time>2015-10-10T12:22:08Z</time>
      </trkpt>
      <trkpt lat="44.73885" lon="5.44808">
        <ele>1034.04</ele>
        <time>2015-10-10T12:22:17Z</time>
      </trkpt>
      <trkpt lat="44.7389" lon="5.44807">
        <ele>1033.55</ele>
        <time>2015-10-10T12:22:22Z</time>
      </trkpt>
      <trkpt lat="44.73899" lon="5.44808">
        <ele>1035</ele>
        <time>2015-10-10T12:22:29Z</time>
      </trkpt>
      <trkpt lat="44.73909" lon="5.44806">
        <ele>1035.48</ele>
        <time>2015-10-10T12:22:36Z</time>
      </trkpt>
      <trkpt lat="44.73924" lon="5.448">
        <ele>1037.88</ele>
        <time>2015-10-10T12:22:52Z</time>
      </trkpt>
      <trkpt lat="44.73927" lon="5.44787">
        <ele>1038.36</ele>
        <time>2015-10-10T12:22:59Z</time>
      </trkpt>
      <trkpt lat="44.73938" lon="5.44774">
        <ele>1039.8</ele>
        <time>2015-10-10T12:23:13Z</time>
      </trkpt>
      <trkpt lat="44.73938" lon="5.44771">
        <ele>1040.76</ele>
        <time>2015-10-10T12:23:15Z</time>
      </trkpt>
      <trkpt lat="44.73941" lon="5.44748">
        <ele>1043.17</ele>
        <time>2015-10-10T12:23:29Z</time>
      </trkpt>
      <trkpt lat="44.73942" lon="5.44747">
        <ele>1043.17</ele>
        <time>2015-10-10T12:23:30Z</time>
      </trkpt>
      <trkpt lat="44.73942" lon="5.44742">
        <ele>1040.76</ele>
        <time>2015-10-10T12:23:33Z</time>
      </trkpt>
      <trkpt lat="44.73944" lon="5.44721">
        <ele>1041.25</ele>
        <time>2015-10-10T12:23:43Z</time>
      </trkpt>
      <trkpt lat="44.73945" lon="5.44718">
        <ele>1042.69</ele>
        <time>2015-10-10T12:23:45Z</time>
      </trkpt>
      <trkpt lat="44.73947" lon="5.44714">
        <ele>1043.65</ele>
        <time>2015-10-10T12:23:47Z</time>
      </trkpt>
      <trkpt lat="44.73951" lon="5.44694">
        <ele>1043.65</ele>
        <time>2015-10-10T12:23:58Z</time>
      </trkpt>
      <trkpt lat="44.73953" lon="5.44682">
        <ele>1044.61</ele>
        <time>2015-10-10T12:24:06Z</time>
      </trkpt>
      <trkpt lat="44.73956" lon="5.44671">
        <ele>1043.17</ele>
        <time>2015-10-10T12:24:13Z</time>
      </trkpt>
      <trkpt lat="44.73958" lon="5.44665">
        <ele>1046.05</ele>
        <time>2015-10-10T12:24:17Z</time>
      </trkpt>
      <trkpt lat="44.73959" lon="5.44658">
        <ele>1044.13</ele>
        <time>2015-10-10T12:24:21Z</time>
      </trkpt>
      <trkpt lat="44.73961" lon="5.44653">
        <ele>1046.05</ele>
        <time>2015-10-10T12:24:24Z</time>
      </trkpt>
      <trkpt lat="44.73962" lon="5.44651">
        <ele>1047.01</ele>
        <time>2015-10-10T12:24:26Z</time>
      </trkpt>
      <trkpt lat="44.73962" lon="5.44648">
        <ele>1044.61</ele>
        <time>2015-10-10T12:24:28Z</time>
      </trkpt>
      <trkpt lat="44.73963" lon="5.44632">
        <ele>1046.53</ele>
        <time>2015-10-10T12:24:37Z</time>
      </trkpt>
      <trkpt lat="44.73968" lon="5.44627">
        <ele>1047.49</ele>
        <time>2015-10-10T12:24:43Z</time>
      </trkpt>
      <trkpt lat="44.73979" lon="5.44622">
        <ele>1049.42</ele>
        <time>2015-10-10T12:24:56Z</time>
      </trkpt>
      <trkpt lat="44.73992" lon="5.44619">
        <ele>1051.82</ele>
        <time>2015-10-10T12:25:07Z</time>
      </trkpt>
      <trkpt lat="44.74006" lon="5.44599">
        <ele>1052.78</ele>
        <time>2015-10-10T12:25:22Z</time>
      </trkpt>
      <trkpt lat="44.74009" lon="5.44585">
        <ele>1054.7</ele>
        <time>2015-10-10T12:25:34Z</time>
      </trkpt>
      <trkpt lat="44.74008" lon="5.44574">
        <ele>1055.18</ele>
        <time>2015-10-10T12:25:40Z</time>
      </trkpt>
      <trkpt lat="44.74008" lon="5.44564">
        <ele>1055.67</ele>
        <time>2015-10-10T12:25:46Z</time>
      </trkpt>
      <trkpt lat="44.74003" lon="5.4454">
        <ele>1058.07</ele>
        <time>2015-10-10T12:26:01Z</time>
      </trkpt>
      <trkpt lat="44.73996" lon="5.44514">
        <ele>1059.03</ele>
        <time>2015-10-10T12:26:15Z</time>
      </trkpt>
      <trkpt lat="44.73983" lon="5.44498">
        <ele>1059.99</ele>
        <time>2015-10-10T12:26:28Z</time>
      </trkpt>
      <trkpt lat="44.73977" lon="5.44485">
        <ele>1059.51</ele>
        <time>2015-10-10T12:26:35Z</time>
      </trkpt>
      <trkpt lat="44.73975" lon="5.44471">
        <ele>1062.39</ele>
        <time>2015-10-10T12:26:43Z</time>
      </trkpt>
      <trkpt lat="44.73974" lon="5.44467">
        <ele>1059.99</ele>
        <time>2015-10-10T12:26:46Z</time>
      </trkpt>
      <trkpt lat="44.73975" lon="5.44461">
        <ele>1061.91</ele>
        <time>2015-10-10T12:26:58Z</time>
      </trkpt>
      <trkpt lat="44.73974" lon="5.44461">
        <ele>1061.43</ele>
        <time>2015-10-10T12:27:26Z</time>
      </trkpt>
      <trkpt lat="44.73974" lon="5.4446">
        <ele>1061.43</ele>
        <time>2015-10-10T12:27:48Z</time>
      </trkpt>
      <trkpt lat="44.73973" lon="5.44461">
        <ele>1061.91</ele>
        <time>2015-10-10T12:28:17Z</time>
      </trkpt>
      <trkpt lat="44.73973" lon="5.44461">
        <ele>1058.55</ele>
        <time>2015-10-10T12:28:22Z</time>
      </trkpt>
      <trkpt lat="44.73973" lon="5.44461">
        <ele>1065.76</ele>
        <time>2015-10-10T12:28:23Z</time>
      </trkpt>
      <trkpt lat="44.73981" lon="5.44445">
        <ele>1063.84</ele>
        <time>2015-10-10T12:28:34Z</time>
      </trkpt>
      <trkpt lat="44.73984" lon="5.44441">
        <ele>1063.36</ele>
        <time>2015-10-10T12:28:38Z</time>
      </trkpt>
      <trkpt lat="44.73995" lon="5.44436">
        <ele>1064.32</ele>
        <time>2015-10-10T12:28:48Z</time>
      </trkpt>
      <trkpt lat="44.74001" lon="5.44435">
        <ele>1064.32</ele>
        <time>2015-10-10T12:28:54Z</time>
      </trkpt>
      <trkpt lat="44.7401" lon="5.44428">
        <ele>1065.28</ele>
        <time>2015-10-10T12:29:02Z</time>
      </trkpt>
      <trkpt lat="44.74022" lon="5.44416">
        <ele>1068.64</ele>
        <time>2015-10-10T12:29:13Z</time>
      </trkpt>
      <trkpt lat="44.74027" lon="5.44409">
        <ele>1067.68</ele>
        <time>2015-10-10T12:29:20Z</time>
      </trkpt>
      <trkpt lat="44.74034" lon="5.44402">
        <ele>1068.16</ele>
        <time>2015-10-10T12:29:26Z</time>
      </trkpt>
      <trkpt lat="44.74039" lon="5.4439">
        <ele>1067.2</ele>
        <time>2015-10-10T12:29:34Z</time>
      </trkpt>
      <trkpt lat="44.74041" lon="5.44386">
        <ele>1069.6</ele>
        <time>2015-10-10T12:29:37Z</time>
      </trkpt>
      <trkpt lat="44.74048" lon="5.44376">
        <ele>1068.64</ele>
        <time>2015-10-10T12:29:45Z</time>
      </trkpt>
      <trkpt lat="44.74052" lon="5.44374">
        <ele>1070.08</ele>
        <time>2015-10-10T12:29:48Z</time>
      </trkpt>
      <trkpt lat="44.74057" lon="5.44371">
        <ele>1070.08</ele>
        <time>2015-10-10T12:29:53Z</time>
      </trkpt>
      <trkpt lat="44.74059" lon="5.44369">
        <ele>1069.6</ele>
        <time>2015-10-10T12:29:55Z</time>
      </trkpt>
      <trkpt lat="44.74061" lon="5.44366">
        <ele>1070.57</ele>
        <time>2015-10-10T12:29:57Z</time>
      </trkpt>
      <trkpt lat="44.74064" lon="5.44362">
        <ele>1072.01</ele>
        <time>2015-10-10T12:30:00Z</time>
      </trkpt>
      <trkpt lat="44.74075" lon="5.44351">
        <ele>1072.49</ele>
        <time>2015-10-10T12:30:10Z</time>
      </trkpt>
      <trkpt lat="44.74077" lon="5.4435">
        <ele>1071.53</ele>
        <time>2015-10-10T12:30:12Z</time>
      </trkpt>
      <trkpt lat="44.74078" lon="5.4435">
        <ele>1072.01</ele>
        <time>2015-10-10T12:30:13Z</time>
      </trkpt>
      <trkpt lat="44.74085" lon="5.44341">
        <ele>1072.49</ele>
        <time>2015-10-10T12:30:20Z</time>
      </trkpt>
      <trkpt lat="44.74091" lon="5.44324">
        <ele>1071.05</ele>
        <time>2015-10-10T12:30:29Z</time>
      </trkpt>
      <trkpt lat="44.74094" lon="5.44314">
        <ele>1069.12</ele>
        <time>2015-10-10T12:30:37Z</time>
      </trkpt>
      <trkpt lat="44.74099" lon="5.44281">
        <ele>1066.72</ele>
        <time>2015-10-10T12:30:52Z</time>
      </trkpt>
      <trkpt lat="44.741" lon="5.44276">
        <ele>1065.28</ele>
        <time>2015-10-10T12:30:56Z</time>
      </trkpt>
      <trkpt lat="44.741" lon="5.44274">
        <ele>1065.76</ele>
        <time>2015-10-10T12:30:57Z</time>
      </trkpt>
      <trkpt lat="44.74099" lon="5.44269">
        <ele>1064.32</ele>
        <time>2015-10-10T12:31:00Z</time>
      </trkpt>
      <trkpt lat="44.74098" lon="5.44264">
        <ele>1064.32</ele>
        <time>2015-10-10T12:31:02Z</time>
      </trkpt>
      <trkpt lat="44.74099" lon="5.4426">
        <ele>1062.87</ele>
        <time>2015-10-10T12:31:07Z</time>
      </trkpt>
      <trkpt lat="44.74098" lon="5.44248">
        <ele>1062.39</ele>
        <time>2015-10-10T12:31:12Z</time>
      </trkpt>
      <trkpt lat="44.741" lon="5.44223">
        <ele>1059.99</ele>
        <time>2015-10-10T12:31:24Z</time>
      </trkpt>
      <trkpt lat="44.74103" lon="5.44216">
        <ele>1059.51</ele>
        <time>2015-10-10T12:31:27Z</time>
      </trkpt>
      <trkpt lat="44.7411" lon="5.44209">
        <ele>1057.11</ele>
        <time>2015-10-10T12:31:35Z</time>
      </trkpt>
      <trkpt lat="44.74119" lon="5.44206">
        <ele>1055.67</ele>
        <time>2015-10-10T12:31:45Z</time>
      </trkpt>
      <trkpt lat="44.74121" lon="5.44206">
        <ele>1055.67</ele>
        <time>2015-10-10T12:31:46Z</time>
      </trkpt>
      <trkpt lat="44.74135" lon="5.44212">
        <ele>1053.74</ele>
        <time>2015-10-10T12:31:57Z</time>
      </trkpt>
      <trkpt lat="44.74136" lon="5.44215">
        <ele>1052.78</ele>
        <time>2015-10-10T12:31:59Z</time>
      </trkpt>
      <trkpt lat="44.74145" lon="5.44232">
        <ele>1051.34</ele>
        <time>2015-10-10T12:32:11Z</time>
      </trkpt>
      <trkpt lat="44.74148" lon="5.44237">
        <ele>1049.42</ele>
        <time>2015-10-10T12:32:15Z</time>
      </trkpt>
      <trkpt lat="44.74155" lon="5.44248">
        <ele>1048.94</ele>
        <time>2015-10-10T12:32:23Z</time>
      </trkpt>
      <trkpt lat="44.74162" lon="5.44266">
        <ele>1046.53</ele>
        <time>2015-10-10T12:32:34Z</time>
      </trkpt>
      <trkpt lat="44.74176" lon="5.44289">
        <ele>1046.05</ele>
        <time>2015-10-10T12:32:49Z</time>
      </trkpt>
      <trkpt lat="44.74181" lon="5.44295">
        <ele>1042.69</ele>
        <time>2015-10-10T12:32:54Z</time>
      </trkpt>
      <trkpt lat="44.74196" lon="5.44315">
        <ele>1040.28</ele>
        <time>2015-10-10T12:33:09Z</time>
      </trkpt>
      <trkpt lat="44.74202" lon="5.44331">
        <ele>1038.36</ele>
        <time>2015-10-10T12:33:19Z</time>
      </trkpt>
      <trkpt lat="44.74204" lon="5.44336">
        <ele>1037.4</ele>
        <time>2015-10-10T12:33:22Z</time>
      </trkpt>
      <trkpt lat="44.74218" lon="5.44362">
        <ele>1034.52</ele>
        <time>2015-10-10T12:33:38Z</time>
      </trkpt>
      <trkpt lat="44.7423" lon="5.4438">
        <ele>1033.07</ele>
        <time>2015-10-10T12:33:52Z</time>
      </trkpt>
      <trkpt lat="44.74231" lon="5.44383">
        <ele>1031.15</ele>
        <time>2015-10-10T12:33:55Z</time>
      </trkpt>
      <trkpt lat="44.74246" lon="5.44397">
        <ele>1028.27</ele>
        <time>2015-10-10T12:34:09Z</time>
      </trkpt>
      <trkpt lat="44.74262" lon="5.44399">
        <ele>1023.94</ele>
        <time>2015-10-10T12:34:22Z</time>
      </trkpt>
      <trkpt lat="44.74268" lon="5.44397">
        <ele>1023.46</ele>
        <time>2015-10-10T12:34:26Z</time>
      </trkpt>
      <trkpt lat="44.7429" lon="5.44402">
        <ele>1021.54</ele>
        <time>2015-10-10T12:34:43Z</time>
      </trkpt>
      <trkpt lat="44.74295" lon="5.44403">
        <ele>1020.58</ele>
        <time>2015-10-10T12:34:46Z</time>
      </trkpt>
      <trkpt lat="44.74302" lon="5.44402">
        <ele>1020.58</ele>
        <time>2015-10-10T12:34:52Z</time>
      </trkpt>
      <trkpt lat="44.74308" lon="5.444">
        <ele>1019.62</ele>
        <time>2015-10-10T12:34:55Z</time>
      </trkpt>
      <trkpt lat="44.7431" lon="5.44397">
        <ele>1022.98</ele>
        <time>2015-10-10T12:34:57Z</time>
      </trkpt>
      <trkpt lat="44.7431" lon="5.44395">
        <ele>1019.62</ele>
        <time>2015-10-10T12:34:58Z</time>
      </trkpt>
      <trkpt lat="44.74313" lon="5.44386">
        <ele>1012.89</ele>
        <time>2015-10-10T12:35:02Z</time>
      </trkpt>
      <trkpt lat="44.74314" lon="5.44384">
        <ele>1019.13</ele>
        <time>2015-10-10T12:35:03Z</time>
      </trkpt>
      <trkpt lat="44.74315" lon="5.44382">
        <ele>1010.48</ele>
        <time>2015-10-10T12:35:05Z</time>
      </trkpt>
      <trkpt lat="44.74315" lon="5.4438">
        <ele>1022.5</ele>
        <time>2015-10-10T12:35:06Z</time>
      </trkpt>
      <trkpt lat="44.74316" lon="5.4438">
        <ele>1017.69</ele>
        <time>2015-10-10T12:35:07Z</time>
      </trkpt>
      <trkpt lat="44.7432" lon="5.44372">
        <ele>1016.73</ele>
        <time>2015-10-10T12:35:12Z</time>
      </trkpt>
      <trkpt lat="44.74322" lon="5.44369">
        <ele>1015.77</ele>
        <time>2015-10-10T12:35:14Z</time>
      </trkpt>
      <trkpt lat="44.74325" lon="5.44363">
        <ele>1014.81</ele>
        <time>2015-10-10T12:35:18Z</time>
      </trkpt>
      <trkpt lat="44.74329" lon="5.44361">
        <ele>1014.81</ele>
        <time>2015-10-10T12:35:21Z</time>
      </trkpt>
      <trkpt lat="44.74334" lon="5.4436">
        <ele>1012.89</ele>
        <time>2015-10-10T12:35:25Z</time>
      </trkpt>
      <trkpt lat="44.74336" lon="5.44359">
        <ele>1011.93</ele>
        <time>2015-10-10T12:35:27Z</time>
      </trkpt>
      <trkpt lat="44.74343" lon="5.44356">
        <ele>1010.96</ele>
        <time>2015-10-10T12:35:34Z</time>
      </trkpt>
      <trkpt lat="44.74361" lon="5.44353">
        <ele>1008.08</ele>
        <time>2015-10-10T12:35:48Z</time>
      </trkpt>
      <trkpt lat="44.74382" lon="5.44346">
        <ele>1005.68</ele>
        <time>2015-10-10T12:36:03Z</time>
      </trkpt>
      <trkpt lat="44.744" lon="5.44343">
        <ele>1004.23</ele>
        <time>2015-10-10T12:36:15Z</time>
      </trkpt>
      <trkpt lat="44.74414" lon="5.44337">
        <ele>1001.83</ele>
        <time>2015-10-10T12:36:25Z</time>
      </trkpt>
      <trkpt lat="44.74423" lon="5.4433">
        <ele>999.91</ele>
        <time>2015-10-10T12:36:32Z</time>
      </trkpt>
      <trkpt lat="44.74429" lon="5.44327">
        <ele>999.91</ele>
        <time>2015-10-10T12:36:36Z</time>
      </trkpt>
      <trkpt lat="44.74437" lon="5.44314">
        <ele>997.02</ele>
        <time>2015-10-10T12:36:47Z</time>
      </trkpt>
      <trkpt lat="44.74443" lon="5.44305">
        <ele>996.06</ele>
        <time>2015-10-10T12:36:53Z</time>
      </trkpt>
      <trkpt lat="44.74451" lon="5.44302">
        <ele>995.58</ele>
        <time>2015-10-10T12:37:05Z</time>
      </trkpt>
      <trkpt lat="44.74454" lon="5.44304">
        <ele>994.62</ele>
        <time>2015-10-10T12:37:07Z</time>
      </trkpt>
      <trkpt lat="44.74469" lon="5.44322">
        <ele>992.22</ele>
        <time>2015-10-10T12:37:21Z</time>
      </trkpt>
      <trkpt lat="44.74483" lon="5.44344">
        <ele>989.33</ele>
        <time>2015-10-10T12:37:36Z</time>
      </trkpt>
      <trkpt lat="44.74492" lon="5.44357">
        <ele>987.41</ele>
        <time>2015-10-10T12:37:46Z</time>
      </trkpt>
      <trkpt lat="44.74503" lon="5.44378">
        <ele>984.53</ele>
        <time>2015-10-10T12:38:02Z</time>
      </trkpt>
      <trkpt lat="44.74513" lon="5.44401">
        <ele>981.16</ele>
        <time>2015-10-10T12:38:14Z</time>
      </trkpt>
      <trkpt lat="44.74521" lon="5.44422">
        <ele>979.24</ele>
        <time>2015-10-10T12:38:26Z</time>
      </trkpt>
      <trkpt lat="44.74522" lon="5.44433">
        <ele>976.84</ele>
        <time>2015-10-10T12:38:32Z</time>
      </trkpt>
      <trkpt lat="44.74531" lon="5.44449">
        <ele>973.95</ele>
        <time>2015-10-10T12:38:45Z</time>
      </trkpt>
      <trkpt lat="44.74532" lon="5.44448">
        <ele>972.03</ele>
        <time>2015-10-10T12:38:53Z</time>
      </trkpt>
      <trkpt lat="44.74531" lon="5.44445">
        <ele>972.03</ele>
        <time>2015-10-10T12:38:56Z</time>
      </trkpt>
      <trkpt lat="44.7453" lon="5.44432">
        <ele>969.63</ele>
        <time>2015-10-10T12:39:03Z</time>
      </trkpt>
      <trkpt lat="44.7453" lon="5.44427">
        <ele>968.67</ele>
        <time>2015-10-10T12:39:05Z</time>
      </trkpt>
      <trkpt lat="44.74531" lon="5.44423">
        <ele>968.67</ele>
        <time>2015-10-10T12:39:08Z</time>
      </trkpt>
      <trkpt lat="44.74533" lon="5.44413">
        <ele>966.26</ele>
        <time>2015-10-10T12:39:18Z</time>
      </trkpt>
      <trkpt lat="44.74534" lon="5.44396">
        <ele>963.38</ele>
        <time>2015-10-10T12:39:28Z</time>
      </trkpt>
      <trkpt lat="44.74534" lon="5.44393">
        <ele>962.9</ele>
        <time>2015-10-10T12:39:29Z</time>
      </trkpt>
      <trkpt lat="44.74529" lon="5.44367">
        <ele>959.53</ele>
        <time>2015-10-10T12:39:42Z</time>
      </trkpt>
      <trkpt lat="44.74528" lon="5.44354">
        <ele>959.05</ele>
        <time>2015-10-10T12:39:47Z</time>
      </trkpt>
      <trkpt lat="44.74528" lon="5.44339">
        <ele>956.65</ele>
        <time>2015-10-10T12:39:55Z</time>
      </trkpt>
      <trkpt lat="44.7453" lon="5.44332">
        <ele>955.21</ele>
        <time>2015-10-10T12:39:59Z</time>
      </trkpt>
      <trkpt lat="44.74528" lon="5.4432">
        <ele>953.28</ele>
        <time>2015-10-10T12:40:11Z</time>
      </trkpt>
      <trkpt lat="44.74525" lon="5.4431">
        <ele>952.8</ele>
        <time>2015-10-10T12:40:15Z</time>
      </trkpt>
      <trkpt lat="44.74519" lon="5.44298">
        <ele>949.44</ele>
        <time>2015-10-10T12:40:25Z</time>
      </trkpt>
      <trkpt lat="44.74516" lon="5.44279">
        <ele>946.56</ele>
        <time>2015-10-10T12:40:37Z</time>
      </trkpt>
      <trkpt lat="44.74517" lon="5.44279">
        <ele>946.07</ele>
        <time>2015-10-10T12:40:38Z</time>
      </trkpt>
      <trkpt lat="44.74523" lon="5.44299">
        <ele>943.19</ele>
        <time>2015-10-10T12:40:53Z</time>
      </trkpt>
      <trkpt lat="44.74537" lon="5.4431">
        <ele>941.27</ele>
        <time>2015-10-10T12:41:04Z</time>
      </trkpt>
      <trkpt lat="44.74549" lon="5.44329">
        <ele>939.35</ele>
        <time>2015-10-10T12:41:17Z</time>
      </trkpt>
      <trkpt lat="44.74557" lon="5.44355">
        <ele>936.94</ele>
        <time>2015-10-10T12:41:31Z</time>
      </trkpt>
      <trkpt lat="44.74558" lon="5.44357">
        <ele>936.46</ele>
        <time>2015-10-10T12:41:33Z</time>
      </trkpt>
      <trkpt lat="44.74563" lon="5.44369">
        <ele>934.06</ele>
        <time>2015-10-10T12:41:40Z</time>
      </trkpt>
      <trkpt lat="44.74565" lon="5.44389">
        <ele>932.14</ele>
        <time>2015-10-10T12:41:54Z</time>
      </trkpt>
      <trkpt lat="44.74567" lon="5.44388">
        <ele>930.69</ele>
        <time>2015-10-10T12:42:09Z</time>
      </trkpt>
      <trkpt lat="44.74567" lon="5.44387">
        <ele>929.73</ele>
        <time>2015-10-10T12:42:11Z</time>
      </trkpt>
      <trkpt lat="44.74565" lon="5.4437">
        <ele>928.77</ele>
        <time>2015-10-10T12:42:20Z</time>
      </trkpt>
      <trkpt lat="44.74567" lon="5.44358">
        <ele>927.33</ele>
        <time>2015-10-10T12:42:27Z</time>
      </trkpt>
      <trkpt lat="44.74567" lon="5.44341">
        <ele>923.96</ele>
        <time>2015-10-10T12:42:36Z</time>
      </trkpt>
      <trkpt lat="44.74568" lon="5.44327">
        <ele>922.52</ele>
        <time>2015-10-10T12:42:45Z</time>
      </trkpt>
      <trkpt lat="44.74571" lon="5.44307">
        <ele>919.16</ele>
        <time>2015-10-10T12:42:57Z</time>
      </trkpt>
      <trkpt lat="44.74566" lon="5.44286">
        <ele>917.72</ele>
        <time>2015-10-10T12:43:08Z</time>
      </trkpt>
      <trkpt lat="44.74565" lon="5.44285">
        <ele>917.72</ele>
        <time>2015-10-10T12:43:09Z</time>
      </trkpt>
      <trkpt lat="44.74561" lon="5.44274">
        <ele>916.27</ele>
        <time>2015-10-10T12:43:15Z</time>
      </trkpt>
      <trkpt lat="44.74557" lon="5.44261">
        <ele>914.83</ele>
        <time>2015-10-10T12:43:22Z</time>
      </trkpt>
      <trkpt lat="44.74551" lon="5.44252">
        <ele>913.87</ele>
        <time>2015-10-10T12:43:28Z</time>
      </trkpt>
      <trkpt lat="44.74544" lon="5.44239">
        <ele>911.47</ele>
        <time>2015-10-10T12:43:38Z</time>
      </trkpt>
      <trkpt lat="44.74541" lon="5.44232">
        <ele>911.95</ele>
        <time>2015-10-10T12:43:42Z</time>
      </trkpt>
      <trkpt lat="44.74538" lon="5.44229">
        <ele>910.03</ele>
        <time>2015-10-10T12:43:44Z</time>
      </trkpt>
      <trkpt lat="44.74536" lon="5.44224">
        <ele>909.06</ele>
        <time>2015-10-10T12:43:47Z</time>
      </trkpt>
      <trkpt lat="44.74531" lon="5.44212">
        <ele>906.18</ele>
        <time>2015-10-10T12:43:58Z</time>
      </trkpt>
      <trkpt lat="44.74536" lon="5.44211">
        <ele>905.22</ele>
        <time>2015-10-10T12:44:10Z</time>
      </trkpt>
      <trkpt lat="44.74543" lon="5.4422">
        <ele>902.82</ele>
        <time>2015-10-10T12:44:19Z</time>
      </trkpt>
      <trkpt lat="44.74547" lon="5.44224">
        <ele>902.82</ele>
        <time>2015-10-10T12:44:22Z</time>
      </trkpt>
      <trkpt lat="44.74557" lon="5.44231">
        <ele>900.41</ele>
        <time>2015-10-10T12:44:32Z</time>
      </trkpt>
      <trkpt lat="44.74562" lon="5.44232">
        <ele>899.93</ele>
        <time>2015-10-10T12:44:36Z</time>
      </trkpt>
      <trkpt lat="44.74571" lon="5.44236">
        <ele>898.97</ele>
        <time>2015-10-10T12:44:46Z</time>
      </trkpt>
      <trkpt lat="44.74573" lon="5.44236">
        <ele>897.05</ele>
        <time>2015-10-10T12:44:48Z</time>
      </trkpt>
      <trkpt lat="44.74576" lon="5.4424">
        <ele>897.53</ele>
        <time>2015-10-10T12:44:50Z</time>
      </trkpt>
      <trkpt lat="44.74582" lon="5.44259">
        <ele>894.64</ele>
        <time>2015-10-10T12:45:02Z</time>
      </trkpt>
      <trkpt lat="44.74596" lon="5.44281">
        <ele>893.2</ele>
        <time>2015-10-10T12:45:17Z</time>
      </trkpt>
      <trkpt lat="44.74598" lon="5.44285">
        <ele>892.72</ele>
        <time>2015-10-10T12:45:20Z</time>
      </trkpt>
      <trkpt lat="44.746" lon="5.44292">
        <ele>890.8</ele>
        <time>2015-10-10T12:45:25Z</time>
      </trkpt>
      <trkpt lat="44.74602" lon="5.44281">
        <ele>889.36</ele>
        <time>2015-10-10T12:45:35Z</time>
      </trkpt>
      <trkpt lat="44.74599" lon="5.44271">
        <ele>885.99</ele>
        <time>2015-10-10T12:45:43Z</time>
      </trkpt>
      <trkpt lat="44.74599" lon="5.44271">
        <ele>885.99</ele>
        <time>2015-10-10T12:45:44Z</time>
      </trkpt>
      <trkpt lat="44.746" lon="5.44266">
        <ele>885.99</ele>
        <time>2015-10-10T12:45:46Z</time>
      </trkpt>
      <trkpt lat="44.74598" lon="5.44238">
        <ele>882.63</ele>
        <time>2015-10-10T12:45:57Z</time>
      </trkpt>
      <trkpt lat="44.74598" lon="5.44235">
        <ele>882.15</ele>
        <time>2015-10-10T12:45:58Z</time>
      </trkpt>
      <trkpt lat="44.74588" lon="5.44215">
        <ele>879.26</ele>
        <time>2015-10-10T12:46:12Z</time>
      </trkpt>
      <trkpt lat="44.74571" lon="5.44201">
        <ele>877.82</ele>
        <time>2015-10-10T12:46:23Z</time>
      </trkpt>
      <trkpt lat="44.74568" lon="5.442">
        <ele>877.34</ele>
        <time>2015-10-10T12:46:45Z</time>
      </trkpt>
      <trkpt lat="44.7456" lon="5.44192">
        <ele>875.42</ele>
        <time>2015-10-10T12:47:01Z</time>
      </trkpt>
      <trkpt lat="44.74554" lon="5.44172">
        <ele>873.01</ele>
        <time>2015-10-10T12:47:11Z</time>
      </trkpt>
      <trkpt lat="44.74552" lon="5.44164">
        <ele>872.53</ele>
        <time>2015-10-10T12:47:16Z</time>
      </trkpt>
      <trkpt lat="44.74551" lon="5.44161">
        <ele>872.05</ele>
        <time>2015-10-10T12:47:18Z</time>
      </trkpt>
      <trkpt lat="44.74548" lon="5.44152">
        <ele>871.09</ele>
        <time>2015-10-10T12:47:26Z</time>
      </trkpt>
      <trkpt lat="44.74549" lon="5.44155">
        <ele>869.65</ele>
        <time>2015-10-10T12:47:30Z</time>
      </trkpt>
      <trkpt lat="44.7456" lon="5.44175">
        <ele>868.21</ele>
        <time>2015-10-10T12:47:45Z</time>
      </trkpt>
      <trkpt lat="44.74569" lon="5.44176">
        <ele>865.8</ele>
        <time>2015-10-10T12:47:52Z</time>
      </trkpt>
      <trkpt lat="44.74578" lon="5.44179">
        <ele>865.8</ele>
        <time>2015-10-10T12:47:58Z</time>
      </trkpt>
      <trkpt lat="44.74589" lon="5.44184">
        <ele>863.88</ele>
        <time>2015-10-10T12:48:06Z</time>
      </trkpt>
      <trkpt lat="44.74591" lon="5.44184">
        <ele>863.4</ele>
        <time>2015-10-10T12:48:08Z</time>
      </trkpt>
      <trkpt lat="44.746" lon="5.44191">
        <ele>862.44</ele>
        <time>2015-10-10T12:48:13Z</time>
      </trkpt>
      <trkpt lat="44.74605" lon="5.44195">
        <ele>862.92</ele>
        <time>2015-10-10T12:48:17Z</time>
      </trkpt>
      <trkpt lat="44.74618" lon="5.44206">
        <ele>861.48</ele>
        <time>2015-10-10T12:48:29Z</time>
      </trkpt>
      <trkpt lat="44.7463" lon="5.44232">
        <ele>858.59</ele>
        <time>2015-10-10T12:48:44Z</time>
      </trkpt>
      <trkpt lat="44.74629" lon="5.44236">
        <ele>859.08</ele>
        <time>2015-10-10T12:48:46Z</time>
      </trkpt>
      <trkpt lat="44.74627" lon="5.44245">
        <ele>856.67</ele>
        <time>2015-10-10T12:48:51Z</time>
      </trkpt>
      <trkpt lat="44.74625" lon="5.44252">
        <ele>856.19</ele>
        <time>2015-10-10T12:48:56Z</time>
      </trkpt>
      <trkpt lat="44.74625" lon="5.44276">
        <ele>856.19</ele>
        <time>2015-10-10T12:49:11Z</time>
      </trkpt>
      <trkpt lat="44.74641" lon="5.44287">
        <ele>853.79</ele>
        <time>2015-10-10T12:49:23Z</time>
      </trkpt>
      <trkpt lat="44.74652" lon="5.44291">
        <ele>851.87</ele>
        <time>2015-10-10T12:49:29Z</time>
      </trkpt>
      <trkpt lat="44.74674" lon="5.4428">
        <ele>849.46</ele>
        <time>2015-10-10T12:49:44Z</time>
      </trkpt>
      <trkpt lat="44.74675" lon="5.4428">
        <ele>849.46</ele>
        <time>2015-10-10T12:49:45Z</time>
      </trkpt>
      <trkpt lat="44.74678" lon="5.44279">
        <ele>848.5</ele>
        <time>2015-10-10T12:49:48Z</time>
      </trkpt>
      <trkpt lat="44.74683" lon="5.4427">
        <ele>848.02</ele>
        <time>2015-10-10T12:49:53Z</time>
      </trkpt>
      <trkpt lat="44.74689" lon="5.44262">
        <ele>847.06</ele>
        <time>2015-10-10T12:49:58Z</time>
      </trkpt>
      <trkpt lat="44.74707" lon="5.44266">
        <ele>843.69</ele>
        <time>2015-10-10T12:50:13Z</time>
      </trkpt>
      <trkpt lat="44.74716" lon="5.44269">
        <ele>842.25</ele>
        <time>2015-10-10T12:50:19Z</time>
      </trkpt>
      <trkpt lat="44.7473" lon="5.44267">
        <ele>840.81</ele>
        <time>2015-10-10T12:50:29Z</time>
      </trkpt>
      <trkpt lat="44.74745" lon="5.44264">
        <ele>837.93</ele>
        <time>2015-10-10T12:50:40Z</time>
      </trkpt>
      <trkpt lat="44.74752" lon="5.44256">
        <ele>835.52</ele>
        <time>2015-10-10T12:50:47Z</time>
      </trkpt>
      <trkpt lat="44.74749" lon="5.44255">
        <ele>833.12</ele>
        <time>2015-10-10T12:50:54Z</time>
      </trkpt>
      <trkpt lat="44.74741" lon="5.44252">
        <ele>831.68</ele>
        <time>2015-10-10T12:51:02Z</time>
      </trkpt>
      <trkpt lat="44.74736" lon="5.44251">
        <ele>831.68</ele>
        <time>2015-10-10T12:51:05Z</time>
      </trkpt>
      <trkpt lat="44.74724" lon="5.44247">
        <ele>830.24</ele>
        <time>2015-10-10T12:51:11Z</time>
      </trkpt>
      <trkpt lat="44.74714" lon="5.44226">
        <ele>827.35</ele>
        <time>2015-10-10T12:51:24Z</time>
      </trkpt>
      <trkpt lat="44.74711" lon="5.44227">
        <ele>826.39</ele>
        <time>2015-10-10T12:51:27Z</time>
      </trkpt>
      <trkpt lat="44.74694" lon="5.44236">
        <ele>823.51</ele>
        <time>2015-10-10T12:51:41Z</time>
      </trkpt>
      <trkpt lat="44.74687" lon="5.44231">
        <ele>822.06</ele>
        <time>2015-10-10T12:51:47Z</time>
      </trkpt>
      <trkpt lat="44.74675" lon="5.44208">
        <ele>821.58</ele>
        <time>2015-10-10T12:52:00Z</time>
      </trkpt>
      <trkpt lat="44.74675" lon="5.44205">
        <ele>820.14</ele>
        <time>2015-10-10T12:52:02Z</time>
      </trkpt>
      <trkpt lat="44.74674" lon="5.44197">
        <ele>819.18</ele>
        <time>2015-10-10T12:52:06Z</time>
      </trkpt>
      <trkpt lat="44.74673" lon="5.44186">
        <ele>817.74</ele>
        <time>2015-10-10T12:52:12Z</time>
      </trkpt>
      <trkpt lat="44.7467" lon="5.44161">
        <ele>816.3</ele>
        <time>2015-10-10T12:52:23Z</time>
      </trkpt>
      <trkpt lat="44.74669" lon="5.44151">
        <ele>813.41</ele>
        <time>2015-10-10T12:52:29Z</time>
      </trkpt>
      <trkpt lat="44.74655" lon="5.44129">
        <ele>811.97</ele>
        <time>2015-10-10T12:52:42Z</time>
      </trkpt>
      <trkpt lat="44.74646" lon="5.44115">
        <ele>809.57</ele>
        <time>2015-10-10T12:52:52Z</time>
      </trkpt>
      <trkpt lat="44.74632" lon="5.44104">
        <ele>806.2</ele>
        <time>2015-10-10T12:53:05Z</time>
      </trkpt>
      <trkpt lat="44.74614" lon="5.4409">
        <ele>803.8</ele>
        <time>2015-10-10T12:53:15Z</time>
      </trkpt>
      <trkpt lat="44.74611" lon="5.44089">
        <ele>804.28</ele>
        <time>2015-10-10T12:53:18Z</time>
      </trkpt>
      <trkpt lat="44.74603" lon="5.44086">
        <ele>801.88</ele>
        <time>2015-10-10T12:53:24Z</time>
      </trkpt>
      <trkpt lat="44.74601" lon="5.44084">
        <ele>801.4</ele>
        <time>2015-10-10T12:53:28Z</time>
      </trkpt>
      <trkpt lat="44.74594" lon="5.44067">
        <ele>798.51</ele>
        <time>2015-10-10T12:53:38Z</time>
      </trkpt>
      <trkpt lat="44.74593" lon="5.4406">
        <ele>798.03</ele>
        <time>2015-10-10T12:53:42Z</time>
      </trkpt>
      <trkpt lat="44.7459" lon="5.44055">
        <ele>797.07</ele>
        <time>2015-10-10T12:53:48Z</time>
      </trkpt>
      <trkpt lat="44.74586" lon="5.44048">
        <ele>795.15</ele>
        <time>2015-10-10T12:53:54Z</time>
      </trkpt>
      <trkpt lat="44.74585" lon="5.44047">
        <ele>796.11</ele>
        <time>2015-10-10T12:53:55Z</time>
      </trkpt>
      <trkpt lat="44.74582" lon="5.44044">
        <ele>795.15</ele>
        <time>2015-10-10T12:53:57Z</time>
      </trkpt>
      <trkpt lat="44.74568" lon="5.44028">
        <ele>793.22</ele>
        <time>2015-10-10T12:54:08Z</time>
      </trkpt>
      <trkpt lat="44.7456" lon="5.4402">
        <ele>791.3</ele>
        <time>2015-10-10T12:54:19Z</time>
      </trkpt>
      <trkpt lat="44.74558" lon="5.44014">
        <ele>791.78</ele>
        <time>2015-10-10T12:54:22Z</time>
      </trkpt>
      <trkpt lat="44.74541" lon="5.43999">
        <ele>788.9</ele>
        <time>2015-10-10T12:54:33Z</time>
      </trkpt>
      <trkpt lat="44.74528" lon="5.43997">
        <ele>787.94</ele>
        <time>2015-10-10T12:54:43Z</time>
      </trkpt>
      <trkpt lat="44.74521" lon="5.43995">
        <ele>788.42</ele>
        <time>2015-10-10T12:54:46Z</time>
      </trkpt>
      <trkpt lat="44.74515" lon="5.43997">
        <ele>786.98</ele>
        <time>2015-10-10T12:54:49Z</time>
      </trkpt>
      <trkpt lat="44.74509" lon="5.44002">
        <ele>785.05</ele>
        <time>2015-10-10T12:54:55Z</time>
      </trkpt>
      <trkpt lat="44.74501" lon="5.43998">
        <ele>782.65</ele>
        <time>2015-10-10T12:55:00Z</time>
      </trkpt>
      <trkpt lat="44.74497" lon="5.44">
        <ele>785.05</ele>
        <time>2015-10-10T12:55:04Z</time>
      </trkpt>
      <trkpt lat="44.74496" lon="5.44002">
        <ele>785.53</ele>
        <time>2015-10-10T12:55:06Z</time>
      </trkpt>
      <trkpt lat="44.74485" lon="5.43994">
        <ele>783.61</ele>
        <time>2015-10-10T12:55:15Z</time>
      </trkpt>
      <trkpt lat="44.7448" lon="5.43991">
        <ele>782.17</ele>
        <time>2015-10-10T12:55:23Z</time>
      </trkpt>
      <trkpt lat="44.74487" lon="5.43981">
        <ele>779.77</ele>
        <time>2015-10-10T12:55:35Z</time>
      </trkpt>
      <trkpt lat="44.745" lon="5.43975">
        <ele>777.84</ele>
        <time>2015-10-10T12:55:45Z</time>
      </trkpt>
      <trkpt lat="44.74503" lon="5.43975">
        <ele>777.84</ele>
        <time>2015-10-10T12:55:47Z</time>
      </trkpt>
      <trkpt lat="44.74508" lon="5.43976">
        <ele>776.88</ele>
        <time>2015-10-10T12:55:51Z</time>
      </trkpt>
      <trkpt lat="44.74515" lon="5.4397">
        <ele>775.44</ele>
        <time>2015-10-10T12:55:57Z</time>
      </trkpt>
      <trkpt lat="44.74527" lon="5.43964">
        <ele>774</ele>
        <time>2015-10-10T12:56:07Z</time>
      </trkpt>
      <trkpt lat="44.74536" lon="5.43959">
        <ele>773.52</ele>
        <time>2015-10-10T12:56:14Z</time>
      </trkpt>
      <trkpt lat="44.74545" lon="5.43959">
        <ele>771.11</ele>
        <time>2015-10-10T12:56:21Z</time>
      </trkpt>
      <trkpt lat="44.7456" lon="5.43959">
        <ele>769.19</ele>
        <time>2015-10-10T12:56:30Z</time>
      </trkpt>
      <trkpt lat="44.74561" lon="5.43959">
        <ele>769.19</ele>
        <time>2015-10-10T12:56:31Z</time>
      </trkpt>
      <trkpt lat="44.74574" lon="5.43966">
        <ele>766.31</ele>
        <time>2015-10-10T12:56:44Z</time>
      </trkpt>
      <trkpt lat="44.74575" lon="5.43966">
        <ele>766.31</ele>
        <time>2015-10-10T12:56:45Z</time>
      </trkpt>
      <trkpt lat="44.7458" lon="5.43968">
        <ele>764.87</ele>
        <time>2015-10-10T12:56:49Z</time>
      </trkpt>
      <trkpt lat="44.74589" lon="5.43975">
        <ele>762.94</ele>
        <time>2015-10-10T12:56:55Z</time>
      </trkpt>
      <trkpt lat="44.74604" lon="5.43986">
        <ele>761.02</ele>
        <time>2015-10-10T12:57:07Z</time>
      </trkpt>
      <trkpt lat="44.74609" lon="5.43987">
        <ele>758.62</ele>
        <time>2015-10-10T12:57:19Z</time>
      </trkpt>
      <trkpt lat="44.74631" lon="5.43977">
        <ele>756.69</ele>
        <time>2015-10-10T12:57:29Z</time>
      </trkpt>
      <trkpt lat="44.74635" lon="5.43976">
        <ele>756.21</ele>
        <time>2015-10-10T12:57:31Z</time>
      </trkpt>
      <trkpt lat="44.74644" lon="5.43969">
        <ele>754.77</ele>
        <time>2015-10-10T12:57:38Z</time>
      </trkpt>
      <trkpt lat="44.74644" lon="5.43968">
        <ele>754.77</ele>
        <time>2015-10-10T12:57:40Z</time>
      </trkpt>
      <trkpt lat="44.74649" lon="5.43969">
        <ele>753.81</ele>
        <time>2015-10-10T12:57:44Z</time>
      </trkpt>
      <trkpt lat="44.74661" lon="5.43985">
        <ele>752.85</ele>
        <time>2015-10-10T12:57:56Z</time>
      </trkpt>
      <trkpt lat="44.74668" lon="5.43984">
        <ele>750.45</ele>
        <time>2015-10-10T12:58:06Z</time>
      </trkpt>
      <trkpt lat="44.74678" lon="5.43971">
        <ele>749</ele>
        <time>2015-10-10T12:58:14Z</time>
      </trkpt>
      <trkpt lat="44.74681" lon="5.43969">
        <ele>748.52</ele>
        <time>2015-10-10T12:58:16Z</time>
      </trkpt>
      <trkpt lat="44.74686" lon="5.43964">
        <ele>747.56</ele>
        <time>2015-10-10T12:58:19Z</time>
      </trkpt>
      <trkpt lat="44.74702" lon="5.43954">
        <ele>745.64</ele>
        <time>2015-10-10T12:58:32Z</time>
      </trkpt>
      <trkpt lat="44.74703" lon="5.43952">
        <ele>745.64</ele>
        <time>2015-10-10T12:58:33Z</time>
      </trkpt>
      <trkpt lat="44.747" lon="5.43946">
        <ele>745.64</ele>
        <time>2015-10-10T12:58:37Z</time>
      </trkpt>
      <trkpt lat="44.74698" lon="5.43941">
        <ele>743.72</ele>
        <time>2015-10-10T12:58:44Z</time>
      </trkpt>
      <trkpt lat="44.74695" lon="5.43934">
        <ele>741.79</ele>
        <time>2015-10-10T12:58:48Z</time>
      </trkpt>
      <trkpt lat="44.74689" lon="5.43917">
        <ele>739.39</ele>
        <time>2015-10-10T12:58:58Z</time>
      </trkpt>
      <trkpt lat="44.74684" lon="5.43903">
        <ele>736.51</ele>
        <time>2015-10-10T12:59:06Z</time>
      </trkpt>
      <trkpt lat="44.74681" lon="5.43896">
        <ele>735.07</ele>
        <time>2015-10-10T12:59:11Z</time>
      </trkpt>
      <trkpt lat="44.74676" lon="5.43878">
        <ele>733.62</ele>
        <time>2015-10-10T12:59:18Z</time>
      </trkpt>
      <trkpt lat="44.74669" lon="5.43864">
        <ele>731.22</ele>
        <time>2015-10-10T12:59:27Z</time>
      </trkpt>
      <trkpt lat="44.74665" lon="5.43841">
        <ele>728.82</ele>
        <time>2015-10-10T12:59:39Z</time>
      </trkpt>
      <trkpt lat="44.74661" lon="5.43828">
        <ele>727.37</ele>
        <time>2015-10-10T12:59:47Z</time>
      </trkpt>
      <trkpt lat="44.74659" lon="5.43819">
        <ele>726.41</ele>
        <time>2015-10-10T12:59:52Z</time>
      </trkpt>
      <trkpt lat="44.74653" lon="5.43802">
        <ele>722.09</ele>
        <time>2015-10-10T13:00:03Z</time>
      </trkpt>
      <trkpt lat="44.7465" lon="5.43777">
        <ele>721.13</ele>
        <time>2015-10-10T13:00:17Z</time>
      </trkpt>
      <trkpt lat="44.74644" lon="5.43752">
        <ele>718.24</ele>
        <time>2015-10-10T13:00:28Z</time>
      </trkpt>
      <trkpt lat="44.74641" lon="5.43734">
        <ele>715.84</ele>
        <time>2015-10-10T13:00:39Z</time>
      </trkpt>
      <trkpt lat="44.74637" lon="5.43721">
        <ele>713.44</ele>
        <time>2015-10-10T13:00:51Z</time>
      </trkpt>
      <trkpt lat="44.74637" lon="5.43722">
        <ele>713.44</ele>
        <time>2015-10-10T13:00:52Z</time>
      </trkpt>
      <trkpt lat="44.74631" lon="5.43722">
        <ele>709.11</ele>
        <time>2015-10-10T13:01:00Z</time>
      </trkpt>
      <trkpt lat="44.7463" lon="5.43721">
        <ele>708.63</ele>
        <time>2015-10-10T13:01:01Z</time>
      </trkpt>
      <trkpt lat="44.74628" lon="5.4372">
        <ele>707.19</ele>
        <time>2015-10-10T13:01:04Z</time>
      </trkpt>
      <trkpt lat="44.74625" lon="5.43722">
        <ele>704.78</ele>
        <time>2015-10-10T13:01:08Z</time>
      </trkpt>
      <trkpt lat="44.74622" lon="5.43726">
        <ele>701.42</ele>
        <time>2015-10-10T13:01:16Z</time>
      </trkpt>
      <trkpt lat="44.74617" lon="5.4372">
        <ele>698.53</ele>
        <time>2015-10-10T13:01:26Z</time>
      </trkpt>
      <trkpt lat="44.74615" lon="5.43714">
        <ele>697.57</ele>
        <time>2015-10-10T13:01:29Z</time>
      </trkpt>
      <trkpt lat="44.74613" lon="5.43688">
        <ele>695.65</ele>
        <time>2015-10-10T13:01:41Z</time>
      </trkpt>
      <trkpt lat="44.74614" lon="5.43683">
        <ele>694.21</ele>
        <time>2015-10-10T13:01:44Z</time>
      </trkpt>
      <trkpt lat="44.74616" lon="5.43674">
        <ele>694.69</ele>
        <time>2015-10-10T13:01:49Z</time>
      </trkpt>
      <trkpt lat="44.74614" lon="5.43648">
        <ele>691.81</ele>
        <time>2015-10-10T13:02:01Z</time>
      </trkpt>
      <trkpt lat="44.74613" lon="5.43643">
        <ele>691.33</ele>
        <time>2015-10-10T13:02:05Z</time>
      </trkpt>
      <trkpt lat="44.74609" lon="5.43624">
        <ele>689.88</ele>
        <time>2015-10-10T13:02:18Z</time>
      </trkpt>
      <trkpt lat="44.74602" lon="5.43604">
        <ele>686.52</ele>
        <time>2015-10-10T13:02:29Z</time>
      </trkpt>
      <trkpt lat="44.74598" lon="5.43602">
        <ele>685.08</ele>
        <time>2015-10-10T13:02:37Z</time>
      </trkpt>
      <trkpt lat="44.74593" lon="5.43601">
        <ele>685.56</ele>
        <time>2015-10-10T13:02:41Z</time>
      </trkpt>
      <trkpt lat="44.74584" lon="5.43587">
        <ele>686.04</ele>
        <time>2015-10-10T13:02:52Z</time>
      </trkpt>
      <trkpt lat="44.74581" lon="5.43572">
        <ele>683.63</ele>
        <time>2015-10-10T13:03:00Z</time>
      </trkpt>
      <trkpt lat="44.74582" lon="5.43564">
        <ele>683.63</ele>
        <time>2015-10-10T13:03:06Z</time>
      </trkpt>
      <trkpt lat="44.74575" lon="5.4355">
        <ele>680.27</ele>
        <time>2015-10-10T13:03:17Z</time>
      </trkpt>
      <trkpt lat="44.74571" lon="5.43544">
        <ele>685.08</ele>
        <time>2015-10-10T13:03:24Z</time>
      </trkpt>
      <trkpt lat="44.74571" lon="5.4354">
        <ele>681.71</ele>
        <time>2015-10-10T13:03:25Z</time>
      </trkpt>
      <trkpt lat="44.74569" lon="5.43532">
        <ele>680.75</ele>
        <time>2015-10-10T13:03:27Z</time>
      </trkpt>
      <trkpt lat="44.74567" lon="5.43526">
        <ele>681.23</ele>
        <time>2015-10-10T13:03:29Z</time>
      </trkpt>
      <trkpt lat="44.74565" lon="5.43518">
        <ele>676.91</ele>
        <time>2015-10-10T13:03:32Z</time>
      </trkpt>
      <trkpt lat="44.74565" lon="5.43518">
        <ele>680.27</ele>
        <time>2015-10-10T13:03:33Z</time>
      </trkpt>
      <trkpt lat="44.74559" lon="5.43498">
        <ele>679.31</ele>
        <time>2015-10-10T13:03:43Z</time>
      </trkpt>
      <trkpt lat="44.74558" lon="5.43496">
        <ele>679.31</ele>
        <time>2015-10-10T13:03:44Z</time>
      </trkpt>
      <trkpt lat="44.7455" lon="5.43475">
        <ele>676.91</ele>
        <time>2015-10-10T13:03:57Z</time>
      </trkpt>
      <trkpt lat="44.74542" lon="5.43454">
        <ele>676.42</ele>
        <time>2015-10-10T13:04:08Z</time>
      </trkpt>
      <trkpt lat="44.74538" lon="5.43442">
        <ele>674.98</ele>
        <time>2015-10-10T13:04:13Z</time>
      </trkpt>
      <trkpt lat="44.74528" lon="5.43419">
        <ele>674.5</ele>
        <time>2015-10-10T13:04:24Z</time>
      </trkpt>
      <trkpt lat="44.74528" lon="5.43412">
        <ele>673.54</ele>
        <time>2015-10-10T13:04:28Z</time>
      </trkpt>
      <trkpt lat="44.74529" lon="5.43404">
        <ele>672.58</ele>
        <time>2015-10-10T13:04:32Z</time>
      </trkpt>
      <trkpt lat="44.74528" lon="5.43394">
        <ele>670.66</ele>
        <time>2015-10-10T13:04:37Z</time>
      </trkpt>
      <trkpt lat="44.74527" lon="5.43377">
        <ele>668.73</ele>
        <time>2015-10-10T13:04:47Z</time>
      </trkpt>
      <trkpt lat="44.7453" lon="5.43353">
        <ele>666.81</ele>
        <time>2015-10-10T13:04:57Z</time>
      </trkpt>
      <trkpt lat="44.74529" lon="5.43342">
        <ele>665.85</ele>
        <time>2015-10-10T13:05:03Z</time>
      </trkpt>
      <trkpt lat="44.74529" lon="5.43338">
        <ele>665.37</ele>
        <time>2015-10-10T13:05:05Z</time>
      </trkpt>
      <trkpt lat="44.74529" lon="5.43329">
        <ele>663.45</ele>
        <time>2015-10-10T13:05:10Z</time>
      </trkpt>
      <trkpt lat="44.74528" lon="5.43316">
        <ele>662.01</ele>
        <time>2015-10-10T13:05:15Z</time>
      </trkpt>
      <trkpt lat="44.74527" lon="5.433">
        <ele>661.52</ele>
        <time>2015-10-10T13:05:25Z</time>
      </trkpt>
      <trkpt lat="44.74526" lon="5.43296">
        <ele>661.04</ele>
        <time>2015-10-10T13:05:27Z</time>
      </trkpt>
      <trkpt lat="44.74526" lon="5.43276">
        <ele>659.12</ele>
        <time>2015-10-10T13:05:36Z</time>
      </trkpt>
      <trkpt lat="44.74526" lon="5.4327">
        <ele>659.6</ele>
        <time>2015-10-10T13:05:40Z</time>
      </trkpt>
      <trkpt lat="44.74531" lon="5.43253">
        <ele>658.64</ele>
        <time>2015-10-10T13:05:47Z</time>
      </trkpt>
      <trkpt lat="44.74533" lon="5.43247">
        <ele>656.72</ele>
        <time>2015-10-10T13:05:51Z</time>
      </trkpt>
      <trkpt lat="44.74534" lon="5.43246">
        <ele>657.2</ele>
        <time>2015-10-10T13:05:59Z</time>
      </trkpt>
      <trkpt lat="44.74539" lon="5.43237">
        <ele>655.76</ele>
        <time>2015-10-10T13:06:07Z</time>
      </trkpt>
      <trkpt lat="44.74536" lon="5.43229">
        <ele>654.8</ele>
        <time>2015-10-10T13:06:11Z</time>
      </trkpt>
      <trkpt lat="44.74525" lon="5.43212">
        <ele>653.83</ele>
        <time>2015-10-10T13:06:21Z</time>
      </trkpt>
      <trkpt lat="44.74518" lon="5.43188">
        <ele>650.95</ele>
        <time>2015-10-10T13:06:36Z</time>
      </trkpt>
      <trkpt lat="44.74512" lon="5.43167">
        <ele>649.99</ele>
        <time>2015-10-10T13:06:44Z</time>
      </trkpt>
      <trkpt lat="44.7451" lon="5.43144">
        <ele>648.07</ele>
        <time>2015-10-10T13:06:55Z</time>
      </trkpt>
      <trkpt lat="44.74505" lon="5.4312">
        <ele>648.07</ele>
        <time>2015-10-10T13:07:08Z</time>
      </trkpt>
      <trkpt lat="44.74499" lon="5.431">
        <ele>646.62</ele>
        <time>2015-10-10T13:07:21Z</time>
      </trkpt>
      <trkpt lat="44.74497" lon="5.43098">
        <ele>646.62</ele>
        <time>2015-10-10T13:07:26Z</time>
      </trkpt>
      <trkpt lat="44.74493" lon="5.43085">
        <ele>647.59</ele>
        <time>2015-10-10T13:07:31Z</time>
      </trkpt>
      <trkpt lat="44.7449" lon="5.43079">
        <ele>646.14</ele>
        <time>2015-10-10T13:07:38Z</time>
      </trkpt>
      <trkpt lat="44.74483" lon="5.4306">
        <ele>644.22</ele>
        <time>2015-10-10T13:07:50Z</time>
      </trkpt>
      <trkpt lat="44.74473" lon="5.43033">
        <ele>643.74</ele>
        <time>2015-10-10T13:08:04Z</time>
      </trkpt>
      <trkpt lat="44.74464" lon="5.43004">
        <ele>644.22</ele>
        <time>2015-10-10T13:08:19Z</time>
      </trkpt>
      <trkpt lat="44.74461" lon="5.42998">
        <ele>642.78</ele>
        <time>2015-10-10T13:08:22Z</time>
      </trkpt>
      <trkpt lat="44.74452" lon="5.42974">
        <ele>641.82</ele>
        <time>2015-10-10T13:08:36Z</time>
      </trkpt>
      <trkpt lat="44.74445" lon="5.42955">
        <ele>641.34</ele>
        <time>2015-10-10T13:08:46Z</time>
      </trkpt>
      <trkpt lat="44.74442" lon="5.42944">
        <ele>640.38</ele>
        <time>2015-10-10T13:08:52Z</time>
      </trkpt>
      <trkpt lat="44.74439" lon="5.42937">
        <ele>641.82</ele>
        <time>2015-10-10T13:08:55Z</time>
      </trkpt>
      <trkpt lat="44.74432" lon="5.42924">
        <ele>640.38</ele>
        <time>2015-10-10T13:09:02Z</time>
      </trkpt>
      <trkpt lat="44.7443" lon="5.4292">
        <ele>638.93</ele>
        <time>2015-10-10T13:09:05Z</time>
      </trkpt>
      <trkpt lat="44.74427" lon="5.42912">
        <ele>638.45</ele>
        <time>2015-10-10T13:09:10Z</time>
      </trkpt>
      <trkpt lat="44.74419" lon="5.42893">
        <ele>636.53</ele>
        <time>2015-10-10T13:09:21Z</time>
      </trkpt>
      <trkpt lat="44.74408" lon="5.42865">
        <ele>634.61</ele>
        <time>2015-10-10T13:09:37Z</time>
      </trkpt>
      <trkpt lat="44.744" lon="5.42841">
        <ele>633.17</ele>
        <time>2015-10-10T13:09:51Z</time>
      </trkpt>
      <trkpt lat="44.74388" lon="5.42816">
        <ele>631.72</ele>
        <time>2015-10-10T13:10:05Z</time>
      </trkpt>
      <trkpt lat="44.74378" lon="5.42792">
        <ele>628.84</ele>
        <time>2015-10-10T13:10:19Z</time>
      </trkpt>
      <trkpt lat="44.74371" lon="5.42765">
        <ele>626.92</ele>
        <time>2015-10-10T13:10:32Z</time>
      </trkpt>
      <trkpt lat="44.74367" lon="5.42758">
        <ele>624.99</ele>
        <time>2015-10-10T13:10:38Z</time>
      </trkpt>
      <trkpt lat="44.74354" lon="5.42737">
        <ele>623.55</ele>
        <time>2015-10-10T13:10:50Z</time>
      </trkpt>
      <trkpt lat="44.74341" lon="5.4272">
        <ele>620.19</ele>
        <time>2015-10-10T13:11:03Z</time>
      </trkpt>
      <trkpt lat="44.74328" lon="5.42705">
        <ele>618.26</ele>
        <time>2015-10-10T13:11:16Z</time>
      </trkpt>
      <trkpt lat="44.74323" lon="5.42699">
        <ele>615.86</ele>
        <time>2015-10-10T13:11:22Z</time>
      </trkpt>
      <trkpt lat="44.74312" lon="5.4269">
        <ele>615.38</ele>
        <time>2015-10-10T13:11:31Z</time>
      </trkpt>
      <trkpt lat="44.7431" lon="5.42689">
        <ele>614.42</ele>
        <time>2015-10-10T13:11:34Z</time>
      </trkpt>
      <trkpt lat="44.74303" lon="5.42685">
        <ele>614.42</ele>
        <time>2015-10-10T13:11:40Z</time>
      </trkpt>
      <trkpt lat="44.74285" lon="5.42679">
        <ele>610.57</ele>
        <time>2015-10-10T13:11:54Z</time>
      </trkpt>
      <trkpt lat="44.7428" lon="5.42674">
        <ele>610.57</ele>
        <time>2015-10-10T13:11:58Z</time>
      </trkpt>
      <trkpt lat="44.74271" lon="5.42667">
        <ele>611.06</ele>
        <time>2015-10-10T13:12:03Z</time>
      </trkpt>
      <trkpt lat="44.74264" lon="5.42665">
        <ele>610.09</ele>
        <time>2015-10-10T13:12:07Z</time>
      </trkpt>
      <trkpt lat="44.74249" lon="5.42642">
        <ele>608.17</ele>
        <time>2015-10-10T13:12:22Z</time>
      </trkpt>
      <trkpt lat="44.74239" lon="5.4262">
        <ele>606.73</ele>
        <time>2015-10-10T13:12:33Z</time>
      </trkpt>
      <trkpt lat="44.74225" lon="5.42591">
        <ele>606.25</ele>
        <time>2015-10-10T13:12:48Z</time>
      </trkpt>
      <trkpt lat="44.74217" lon="5.42573">
        <ele>603.85</ele>
        <time>2015-10-10T13:13:01Z</time>
      </trkpt>
      <trkpt lat="44.74218" lon="5.42569">
        <ele>603.36</ele>
        <time>2015-10-10T13:13:16Z</time>
      </trkpt>
      <trkpt lat="44.74218" lon="5.4257">
        <ele>604.33</ele>
        <time>2015-10-10T13:13:38Z</time>
      </trkpt>
      <trkpt lat="44.74218" lon="5.42569">
        <ele>600.96</ele>
        <time>2015-10-10T13:13:53Z</time>
      </trkpt>
      <trkpt lat="44.74218" lon="5.42569">
        <ele>604.33</ele>
        <time>2015-10-10T13:13:55Z</time>
      </trkpt>
      <trkpt lat="44.74218" lon="5.42567">
        <ele>604.81</ele>
        <time>2015-10-10T13:14:23Z</time>
      </trkpt>
      <trkpt lat="44.74218" lon="5.42565">
        <ele>600.96</ele>
        <time>2015-10-10T13:14:45Z</time>
      </trkpt>
      <trkpt lat="44.74218" lon="5.42566">
        <ele>606.73</ele>
        <time>2015-10-10T13:14:46Z</time>
      </trkpt>
      <trkpt lat="44.74218" lon="5.42566">
        <ele>603.85</ele>
        <time>2015-10-10T13:14:47Z</time>
      </trkpt>
      <trkpt lat="44.74219" lon="5.42568">
        <ele>592.31</ele>
        <time>2015-10-10T13:14:49Z</time>
      </trkpt>
      <trkpt lat="44.7422" lon="5.42568">
        <ele>607.69</ele>
        <time>2015-10-10T13:14:50Z</time>
      </trkpt>
      <trkpt lat="44.7422" lon="5.42569">
        <ele>600.48</ele>
        <time>2015-10-10T13:14:51Z</time>
      </trkpt>
    </trkseg>
  </trk>
</gpx>